     2              OBSERVATION DATA    GPS                 RINEX VERSION / TYPE
                                                            PGM / RUN BY / DATE
                                                            COMMENT
sig: 9 8 7 6 5 4 1 0                                        COMMENT
sig: 9 8 7 6 5 4 1 0                                        COMMENT
sig: 9 8 7 6 5 4 1 0                                        COMMENT
Original Marker Name: OJAI                                  COMMENT
Campaign Name: jpl 1993-1997                                COMMENT
4-Character Station Name: OJAI                              COMMENT
6-Character Antenna Code: DMRCHT                            COMMENT
Vertical Measurement Point: BCR                             COMMENT
Vertical Offset to Rinex Ref. Point: 0.0349                 COMMENT
Radial Measurement Point: ECF                               COMMENT
Radial Offset to Rinex Ref. Point: 0.1896                   COMMENT
Antenna Height from Field Measurement: 1.3880 m             COMMENT
Additional Antenna Identification Info.:                    COMMENT
Turborogue and Ashtech Choke Ring                           COMMENT
Lost power at 1:47 and 14:21.                               COMMENT
Original XYZ: -2569284.0859 -4596778.2592 3586964.2240      COMMENT
New XYZ position is based on association with SCEC monument COMMENT
E1E9H5I3+0011. Position of that monument is believed to be  COMMENT
valid to within 1 m horizontally; vertical accuracy         COMMENT
should be no worse than 3-times this value.                 COMMENT
                                                            COMMENT
Revised Rinex header created by UCSD GPS archive for        COMMENT
GSAC on 14-Apr-1999 (1999:104) 23:08:15 GMT                 COMMENT
For assistance contact dagnew@ucsd.edu or hjohnson@ucsd.edu COMMENT
                                                            COMMENT
OJAI                                                        MARKER NAME
OJAI                                                        MARKER NUMBER
AD JET PROPULSION LABORATORY                                OBSERVER / AGENCY
T262 TURBOROGUE SNR-8000 95.03.08                           REC # / TYPE / VERS
S/N UNKNOWN DORNE-MARGOL. TYPE T                            ANT # / TYPE
 -2569287.0000 -4596791.0000  3586986.0000                  APPROX POSITION XYZ
        1.3401        0.0000        0.0000                  ANTENNA: DELTA H/E/N
     1     1     0                                          WAVELENGTH FACT L1/2
     5    L1    L2    P1    P2    C1                        # / TYPES OF OBSERV
    30                                                      INTERVAL
  1997     3    25     1    39   30.000000                  TIME OF FIRST OBS
  1997     3    25    23    59   30.000000                  TIME OF LAST OBS
    25                                                      # OF SATELLITES
                                                            END OF HEADER
 97 03 25 01 39 30.0000000  0  5 05 06 17 24 30
        -0.74659         0.40356         0.00051  20995841.84356  20995841.90359
        -0.39159        -0.01856         0.00051  21666514.49356  21666514.36759
        -0.89958        -0.29055         0.00051  23903917.73055  23903915.00158
        -0.67458         0.25956         0.00051  22603459.56756  22603459.14658
        -0.36859        -0.04457         0.00051  20345689.56657  20345690.21159
 97 03 25 01 40 00.0000000  0  7 05 06 10 17 24 25 30
     85724.78849     66799.50046         0.00041  21012155.55346  21012155.13249
    -35307.31449    -27511.88746         0.00041  21659795.68646  21659795.38549
        -0.94859        -1.03256         0.00051  21153860.57256  21153860.06059
    -64695.35248    -50411.45044         0.00041  23891604.98744  23891603.89748
     98562.85648     76803.01346         0.00041  22622215.36046  22622214.98848
        -0.41657         0.00051         0.00051         0.00051  24888481.82257
     28390.04749     22122.35447         0.00041  20351091.83347  20351092.47349
 97 03 25 01 40 30.0000000  0  7 05 06 10 17 24 25 30
    157819.16649    122976.90946         0.00041  21025874.61246  21025874.27949
    -84610.41949    -65929.87546         0.00041  21650413.92946  21650413.61149
     11616.32149      9051.40846         0.00041  21156071.81846  21156070.79449
   -143303.99648   -111664.86045         0.00041  23876648.81545  23876645.69548
    183118.48748    142690.51646         0.00041  22638306.10146  22638305.55848
      1903.40647         0.00041         0.00041         0.00041  24888842.59647
     43279.89249     33724.82947         0.00041  20353925.50247  20353925.88749
 97 03 25 01 41 00.0000000  0  7 05 06 10 17 24 25 30
    219421.29249    170978.53546         0.00041  21037597.04346  21037596.76749
   -144753.76149   -112794.79746         0.00041  21638968.49946  21638968.81749
     12928.04549     10073.54346         0.00041  21156321.12046  21156320.27349
   -232643.87448   -181280.25145         0.00041  23859647.20145  23859644.61448
    256825.47748    200124.52646         0.00041  22652332.25346  22652331.76648
     -6669.39847         0.00041         0.00041         0.00041  24887210.65747
     47834.72149     37274.04347         0.00041  20354792.11947  20354792.61149
 97 03 25 01 41 30.0000000  0  7 05 06 10 17 24 25 30
    271983.64449    211936.18646         0.00041  21047599.47246  21047599.24249
   -214291.87649   -166980.32746         0.00041  21625735.57046  21625735.95149
      5372.64249      4186.22546         0.00041  21154883.24646  21154882.69149
   -331258.48148   -258122.71245         0.00041  23840879.66145  23840878.68248
    321116.32648    250221.30046         0.00041  22664565.96946  22664566.05148
    -24262.78848         0.00041         0.00041         0.00041  24883864.69448
     43513.39849     33906.77447         0.00041  20353969.98647  20353970.43149
 97 03 25 01 42 00.0000000  0  6 05 06 10 17 24 30
    325677.81449    253775.78246         0.00041  21057817.09546  21057816.74649
   -283051.43849   -220559.18546         0.00041  21612651.11646  21612651.47949
      -888.39349      -692.48946         0.00041  21153691.55146  21153691.34249
   -429000.98348   -334285.61845         0.00041  23822281.03645  23822278.15548
    386148.11148    300895.41746         0.00041  22676940.70846  22676941.01748
     40475.43849     31539.53147         0.00041  20353391.96747  20353392.42149
 97 03 25 01 42 30.0000000  0  6 05 06 10 17 24 30
    384373.47249    299512.63746         0.00041  21068986.59546  21068986.29349
   -347148.28149   -270504.74846         0.00041  21600453.86246  21600454.41549
     -1975.54949     -1539.59646         0.00041  21153484.28946  21153484.69549
   -521992.66448   -406746.57645         0.00041  23804585.79345  23804582.38148
    455777.38448    355151.99646         0.00041  22690190.65246  22690190.64848
     42584.36249     33182.84847         0.00041  20353793.21147  20353793.72249
 97 03 25 01 43 00.0000000  0  6 05 06 10 17 24 30
    445849.85549    347416.29746         0.00041  21080684.86446  21080684.86349
   -408791.08149   -318538.08146         0.00041  21588724.23146  21588724.34849
      -131.74549      -102.84046         0.00041  21153835.42746  21153835.39249
   -612449.43748   -477232.30145         0.00041  23787371.59445  23787369.97048
    527780.75948    411258.52346         0.00041  22703892.39946  22703892.65948
     47603.68749     37094.01047         0.00041  20354748.34547  20354748.90049
 97 03 25 01 43 30.0000000  0  6 05 06 10 17 24 30
    509381.02849    396921.10146         0.00041  21092774.69546  21092774.34549
   -468715.23949   -365232.20746         0.00041  21577320.54346  21577320.74649
      3893.51949      3033.75546         0.00041  21154601.49746  21154600.92949
   -701122.00748   -546327.71845         0.00041  23770497.56245  23770496.18748
    601423.25448    468642.28046         0.00041  22717906.09846  22717906.36648
     54774.40649     42681.58547         0.00041  20356112.96447  20356113.47849
 97 03 25 01 44 00.0000000  0  6 05 06 10 17 24 30
    574399.53949    447584.87046         0.00041  21105147.27746  21105146.87849
   -527484.06849   -411026.06846         0.00041  21566137.39046  21566137.75649
      9556.73749      7446.67646         0.00041  21155679.37346  21155678.61249
   -788562.20148   -614462.86045         0.00041  23753859.02345  23753856.90648
    676168.98748    526885.71046         0.00041  22732130.08946  22732129.90148
     63530.41149     49504.44847         0.00041  20357778.87047  20357779.40249
 97 03 25 01 44 30.0000000  0  6 05 06 10 17 24 30
    640728.47249    499269.74146         0.00041  21117769.08146  21117768.88649
   -585259.47949   -456045.84046         0.00041  21555143.00346  21555143.35549
     16694.00349     13008.20246         0.00041  21157037.56846  21157036.86349
   -874929.85448   -681762.25645         0.00041  23737423.44645  23737421.49248
    751849.07648    585857.20946         0.00041  22746533.06946  22746532.01348
     73709.56949     57436.25647         0.00041  20359716.01447  20359716.37849
 97 03 25 01 45 00.0000000  0  6 05 06 10 17 24 30
    707946.86849    551647.68346         0.00041  21130560.62646  21130560.28049
   -642450.28849   -500610.08346         0.00041  21544259.57546  21544259.84949
     24896.03049     19399.40946         0.00041  21158598.06546  21158597.61349
   -960645.82748   -748553.87645         0.00041  23721111.54445  23721110.55648
    828064.26248    645245.65746         0.00041  22761035.83246  22761035.01048
     84922.97749     66173.97047         0.00041  20361849.82647  20361850.31149
 97 03 25 01 45 30.0000000  0  6 05 06 10 17 24 30
    776088.10949    604744.71946         0.00041  21143527.63846  21143527.30449
   -699022.35749   -544692.18246         0.00041  21533494.40546  21533494.77749
     34198.78249     26648.32946         0.00041  21160368.24846  21160368.11149
  -1045682.64448   -814816.26245         0.00041  23704929.26445  23704928.25748
    904849.17748    705078.04846         0.00041  22775647.04646  22775646.44048
     97225.18349     75760.09847         0.00041  20364191.19547  20364191.73249
 97 03 25 01 46 00.0000000  0  6 05 06 10 17 24 30
    845215.00049    658609.80746         0.00041  21156681.92046  21156681.61849
   -754912.67049   -588243.04446         0.00041  21522858.79146  21522859.16849
     44658.96349     34799.13546         0.00041  21162358.85946  21162358.40149
  -1129982.41648   -880504.34345         0.00041  23688887.61845  23688886.30848
    982264.83748    765401.93546         0.00041  22790378.62446  22790378.29248
    110702.22049     86261.68147         0.00041  20366755.76447  20366756.23049
 97 03 25 01 46 30.0000000  0  6 05 06 10 17 24 30
    915021.10549    713004.15146         0.00041  21169965.55846  21169965.33349
   -810430.55749   -631503.70646         0.00041  21512294.24746  21512294.29949
     55950.54349     43597.78646         0.00041  21164507.41646  21164507.13149
  -1213870.45848   -945871.57545         0.00041  23672924.24645  23672923.14748
   1059986.92848    825964.60646         0.00041  22805168.62346  22805168.15648
    125056.39949     97446.75447         0.00041  20369487.04647  20369487.53449
 97 03 25 01 49 30.0000000  0  4 05 10 17 24
        -0.29259         0.41956         0.00051  21257931.48556  21257930.83559
        -0.07059         0.23156         0.00051  21186255.33356  21186255.03159
        -0.39258         0.54655         0.00051  23584476.31755  23584473.28458
         0.22158         1.21756         0.00051  22900619.69656  22900618.54258
 97 03 25 01 50 00.0000000  0  4 05 10 17 24
     96788.34749     75420.09546         0.00041  21276349.72246  21276349.31749
     39432.71349     30727.09046         0.00041  21193758.93546  21193759.04049
    -58409.02248    -45512.62545         0.00041  23573360.65345  23573358.27148
    101981.94648     79467.50546         0.00041  22920026.59346  22920025.05248
 97 03 25 01 50 30.0000000  0  5 05 06 10 17 24
    191224.46549    149006.65446         0.00041  21294320.32646  21294319.91349
        -0.66359        -0.42656         0.00051  21443769.74456  21443770.00559
     76718.77349     59781.18446         0.00041  21200854.40046  21200854.32249
   -119390.37048    -93030.50145         0.00041  23561756.08445  23561753.72248
    201245.51748    156815.73346         0.00041  22938916.41546  22938914.78348
 97 03 25 01 51 00.0000000  0  6 05 06 10 17 24 30
    281212.05749    219126.83946         0.00041  21311444.48746  21311443.81449
    -37943.10249    -29565.94346         0.00041  21436549.45946  21436549.55649
    109772.30949     85537.20846         0.00041  21207144.35846  21207144.06049
   -185059.24948   -144201.01345         0.00041  23549259.32845  23549257.30448
    295720.12448    230432.30946         0.00041  22956894.26346  22956893.25248
        -0.04659         0.60557         0.00051  20417545.86557  20417546.32659
 97 03 25 01 51 30.0000000  0  6 05 06 10 17 24 30
    367453.82249    286328.19746         0.00041  21327855.78846  21327855.43649
    -79915.88849    -62271.99046         0.00041  21428562.22946  21428562.61949
    139285.18749    108534.27146         0.00041  21212760.64846  21212760.05349
   -254712.85548   -198476.49645         0.00041  23536005.61045  23536002.76748
    386109.43248    300865.52746         0.00041  22974094.49546  22974094.01348
     32499.74849     25325.12147         0.00041  20423730.16447  20423730.68349
 97 03 25 01 52 00.0000000  0  6 05 06 10 17 24 30
    451211.11249    351593.59146         0.00041  21343794.62346  21343794.03149
   -124665.76349    -97141.99546         0.00041  21420046.26946  21420047.14849
    166490.48649    129733.22546         0.00041  21217937.25646  21217937.11949
   -327088.55248   -254873.07845         0.00041  23522231.28245  23522229.94548
    473663.96148    369089.84646         0.00041  22990755.63646  22990755.06948
     62667.12349     48832.16547         0.00041  20429470.80247  20429471.39349
 97 03 25 01 52 30.0000000  0  6 05 06 10 17 24 30
    531853.49749    414431.79246         0.00041  21359140.29146  21359139.68849
   -172817.18749   -134662.55746         0.00041  21410883.85346  21410883.85249
    190740.43249    148629.30246         0.00041  21222551.96046  21222551.83949
   -402816.94348   -313882.14445         0.00041  23507819.78545  23507819.21048
    557742.97748    434605.96846         0.00041  23006754.80846  23006754.41548
     89880.93649     70037.72847         0.00041  20434649.49747  20434649.86049
 97 03 25 01 53 00.0000000  0  6 05 06 10 17 24 30
    598998.40549    466752.48146         0.00041  21371917.20346  21371916.79149
   -234749.62549   -182921.58146         0.00041  21399098.57846  21399098.47049
    201638.65749    157121.44246         0.00041  21224625.61246  21224625.69549
   -492247.80648   -383568.47045         0.00041  23490803.71345  23490800.87548
    627948.32948    489311.44545         0.00041  23020114.78145  23020113.95648
    103768.27449     80859.02547         0.00041  20437291.95147  20437292.49049
 97 03 25 01 53 30.0000000  0  6 05 06 10 17 24 30
    657704.25149    512497.26846         0.00041  21383088.81546  21383088.37349
   -305404.68249   -237977.45546         0.00041  21385653.17746  21385653.25149
    204235.64349    159145.07946         0.00041  21225119.75246  21225119.87349
   -590301.10448   -459973.57145         0.00041  23472144.30345  23472142.03148
    689327.06348    537139.02445         0.00041  23031794.02545  23031793.54648
    109383.03449     85234.15947         0.00041  20438360.59847  20438361.08349
 97 03 25 01 54 00.0000000  0  6 05 06 10 17 24 30
    712817.31749    555442.49146         0.00041  21393576.25746  21393575.78849
   -379924.77349   -296045.03946         0.00041  21371472.25046  21371472.69249
    203401.77149    158495.32846         0.00041  21224961.15346  21224961.09449
   -692116.97148   -539310.51745         0.00041  23452768.81445  23452767.16848
    746748.68748    581883.14445         0.00041  23042720.34545  23042720.23748
    111588.09449     86952.38547         0.00041  20438780.16247  20438780.67349
 97 03 25 01 54 30.0000000  0  6 05 06 10 17 24 30
    772275.38649    601773.42846         0.00041  21404890.91446  21404890.47249
   -450362.69249   -350931.71146         0.00041  21358068.69446  21358068.77949
    207098.62249    161376.01146         0.00041  21225664.65646  21225664.53449
   -789739.42148   -615379.89945         0.00041  23434190.80045  23434190.13748
    808153.43048    629731.00445         0.00041  23054406.02545  23054405.47248
    118340.11649     92213.70047         0.00041  20440064.82647  20440065.64449
 97 03 25 01 55 00.0000000  0  6 05 06 10 17 24 30
    836382.51149    651726.98946         0.00041  21417089.93346  21417089.43049
   -516416.60949   -402402.27946         0.00041  21345499.01346  21345499.37149
    215640.43849    168031.98846         0.00041  21227289.99246  21227289.90849
   -882855.06948   -687937.48045         0.00041  23416472.16145  23416470.34448
    873843.93048    680918.41145         0.00041  23066906.26045  23066906.05648
    129942.38649    101254.42947         0.00041  20442272.54847  20442273.56949
 97 03 25 01 55 30.0000000  0  6 05 06 10 17 24 30
    904268.71649    704625.30546         0.00041  21430008.23246  21430008.01449
   -578945.72949   -451126.24846         0.00041  21333599.75346  21333600.14149
    228181.27949    177804.08746         0.00041  21229676.33046  21229676.38849
   -972344.43548   -757669.37745         0.00041  23399442.20145  23399441.45648
    942967.38548    734780.85845         0.00041  23080060.95045  23080059.63048
    145550.98049    113416.96847         0.00041  20445243.07947  20445243.72749
 97 03 25 01 56 00.0000000  0  6 05 06 10 17 24 30
    974857.94249    759629.89246         0.00041  21443440.95046  21443440.48149
   -639028.02049   -497943.58746         0.00041  21322166.36046  21322166.69449
    243635.71449    189846.52146         0.00041  21232617.55246  21232617.29849
  -1059307.20048   -825432.48845         0.00041  23382893.74345  23382892.32248
   1014430.88148    790466.70145         0.00041  23093659.50945  23093658.44248
    164098.68049    127869.71747         0.00041  20448772.50947  20448772.93449
 97 03 25 01 56 30.0000000  0  6 05 06 10 17 24 30
   1047837.53549    816497.11146         0.00041  21457328.66746  21457328.32149
   -696996.31749   -543113.67146         0.00041  21311135.64246  21311135.48149
    261652.40449    203885.51246         0.00041  21236045.88446  21236045.85449
  -1144080.25848   -891489.34345         0.00041  23366761.58245  23366760.67748
   1087886.40348    847704.80845         0.00041  23107638.07145  23107636.47848
    185242.65649    144345.53747         0.00041  20452796.28247  20452796.48449
 97 03 25 01 57 00.0000000  0  6 05 06 10 17 24 30
   1122836.65349    874937.98546         0.00041  21471600.59846  21471599.96249
   -753215.85849   -586921.07946         0.00041  21300437.12946  21300437.41149
    281853.26449    219626.45846         0.00041  21239889.70346  21239889.78049
  -1227045.83148   -956137.76445         0.00041  23350974.24045  23350972.95748
   1162974.45548    906214.97445         0.00041  23121925.70045  23121925.15948
    208608.55449    162552.72147         0.00041  20457242.72347  20457243.07149
 97 03 25 01 57 30.0000000  0  6 05 06 10 17 24 30
   1199255.79949    934485.35846         0.00041  21486142.37846  21486142.11449
   -808262.73249   -629814.72046         0.00041  21289962.36546  21289962.55149
    303638.54749    236602.02046         0.00041  21244035.68246  21244035.30049
  -1308805.17248  -1019846.27145         0.00041  23335416.61645  23335415.21548
   1239112.10548    965542.95445         0.00041  23136414.59545  23136413.97248
    233599.94349    182026.52547         0.00041  20461998.45447  20461999.04549
 97 03 25 01 58 00.0000000  0  6 05 06 10 17 24 30
   1276791.94649    994903.10846         0.00041  21500897.45046  21500896.91149
   -862426.38949   -672020.14746         0.00041  21279654.90546  21279655.26449
    326699.43549    254571.55746         0.00041  21248423.55646  21248423.66549
  -1389644.12248  -1082837.59745         0.00041  23320032.42345  23320031.89448
   1315997.49948   1025453.66445         0.00041  23151045.45445  23151045.10648
    259881.63949    202505.76747         0.00041  20466999.36347  20467000.21749
 97 03 25 01 58 30.0000000  0  6 05 06 10 17 24 30
   1355368.02749   1056131.21546         0.00041  21515849.90846  21515849.49949
   -915755.94949   -713575.62546         0.00041  21269506.86746  21269507.22449
    350993.79249    273502.24646         0.00041  21253046.74246  21253046.82449
  -1469612.59348  -1145150.61945         0.00041  23304815.59945  23304814.10948
   1393583.08748   1085909.97645         0.00041  23165809.55545  23165809.48248
    287378.56949    223931.94547         0.00041  20472231.84447  20472232.56549
 97 03 25 01 59 00.0000000  0  6 05 06 10 17 24 30
   1434694.98049   1117944.43546         0.00041  21530945.25046  21530944.76049
   -968504.87749   -754678.66446         0.00041  21259469.12346  21259469.39449
    376278.22849    293204.41846         0.00041  21257858.26846  21257858.01349
  -1548976.31348  -1206992.39845         0.00041  23289713.83445  23289711.82748
   1471619.26548   1146717.39145         0.00041  23180659.26445  23180659.30548
    315832.25649    246103.64947         0.00041  20477646.29547  20477646.68549
 97 03 25 01 59 30.0000000  0  6 05 06 10 17 24 30
   1514731.92749   1180310.87746         0.00041  21546175.72146  21546175.10449
  -1020720.16049   -795365.88046         0.00041  21249532.75346  21249533.12249
    402528.53649    313659.21546         0.00041  21262853.52146  21262853.16249
  -1627774.17448  -1268393.26745         0.00041  23274717.72345  23274716.99048
   1550057.36048   1207837.99645         0.00041  23195585.59545  23195585.38148
    345190.65749    268980.32047         0.00041  20483233.14047  20483233.59849
 97 03 25 02 00 00.0000000  0  6 05 06 10 17 24 30
   1595358.53949   1243136.79246         0.00041  21561518.38846  21561517.74749
  -1072539.97949   -835744.93946         0.00041  21239671.96546  21239672.49349
    429632.21549    334778.97446         0.00041  21268011.12046  21268010.99449
  -1706126.75648  -1329447.16445         0.00041  23259808.68645  23259806.56248
   1628762.49748   1269166.66845         0.00041  23210562.62145  23210562.33148
    375338.14349    292471.86047         0.00041  20488970.30247  20488970.73849
 97 03 25 02 00 30.0000000  0  6 05 06 10 17 24 30
   1676507.97449   1306370.10446         0.00041  21576960.58146  21576960.33949
  -1124048.24349   -875881.22146         0.00041  21229870.27046  21229870.61849
    457506.76749    356499.42146         0.00041  21273315.20646  21273315.31849
  -1784108.54148  -1390212.12945         0.00041  23244968.41745  23244966.95048
   1707653.05948   1330639.85345         0.00041  23225575.55445  23225574.73848
    406237.19049    316549.03647         0.00041  20494849.94547  20494850.52849
 97 03 25 02 01 00.0000000  0  6 05 06 10 17 24 30
   1758167.74149   1370001.08146         0.00041  21592500.22646  21592499.72749
  -1175278.61449   -915800.97946         0.00041  21220121.25946  21220121.71049
    486107.59149    378785.79546         0.00041  21278757.87446  21278757.79749
  -1861737.32948  -1450702.03645         0.00041  23230196.38545  23230194.79048
   1786687.89848   1392225.42345         0.00041  23240614.39845  23240613.66748
    437870.68149    341198.50347         0.00041  20500869.75547  20500870.34049
 97 03 25 02 01 30.0000000  0  6 05 06 10 17 24 30
   1840320.36749   1434016.08846         0.00041  21608132.95946  21608133.05049
  -1226267.20349   -955532.32446         0.00041  21210418.27946  21210418.83649
    515391.15849    401604.17446         0.00041  21284330.49846  21284330.08249
  -1939028.87048  -1510929.15545         0.00041  23215488.10345  23215486.63848
   1865816.80648   1453884.31245         0.00041  23255672.51245  23255671.75448
    470213.95249    366401.05247         0.00041  20507024.38347  20507024.98749
 97 03 25 02 02 00.0000000  0  6 05 06 10 17 24 30
   1922935.43449   1498391.44646         0.00041  21623854.46846  21623854.30149
  -1277033.81349   -995090.70446         0.00041  21200757.93146  21200757.95049
    545304.53749    424913.31646         0.00041  21290022.97246  21290022.58749
  -2015998.48648  -1570905.41345         0.00041  23200841.51945  23200839.63648
   1945009.54848   1515592.93845         0.00041  23270742.77345  23270742.16048
    503247.66449    392141.60947         0.00041  20513310.48647  20513310.98049
 97 03 25 02 02 30.0000000  0  6 05 06 10 17 24 30
   2005996.54149   1563114.36046         0.00041  21639660.10646  21639660.04149
  -1327588.29549  -1034483.79046         0.00041  21191137.64346  21191137.85249
    575826.18849    448696.43446         0.00041  21295831.10146  21295830.85449
  -2092653.33348  -1630636.40845         0.00041  23186254.27745  23186252.26648
   2024261.92248   1577348.02245         0.00041  23285823.48545  23285822.99848
    536951.46849    418404.31147         0.00041  20519724.17347  20519724.63249
 97 03 25 02 03 00.0000000  0  6 05 06 10 17 24 30
   2089461.04649   1628151.62446         0.00041  21655543.38346  21655542.90949
  -1377949.24449  -1073726.06346         0.00041  21181554.17046  21181554.52449
    606938.92349    472940.13246         0.00041  21301751.64746  21301751.34249
  -2169033.97948  -1690153.73245         0.00041  23171719.30645  23171717.63348
   2103557.59848   1639136.87645         0.00041  23300913.03845  23300912.90348
    571269.00549    445145.24247         0.00041  20526254.54247  20526255.04649
 97 03 25 02 03 30.0000000  0  6 05 06 10 17 24 30
   2173326.68249   1693501.44946         0.00041  21671502.21746  21671501.44749
  -1428107.72349  -1112810.57046         0.00041  21172009.56846  21172009.71749
    638654.59149    497653.65246         0.00041  21307786.94746  21307786.74249
  -2245150.14448  -1749464.96745         0.00041  23157234.69145  23157233.15748
   2182910.33348   1700970.18345         0.00041  23316012.57845  23316013.27348
    606197.40649    472362.17647         0.00041  20532901.35447  20532901.75449
 97 03 25 02 04 00.0000000  0  6 05 06 10 17 24 30
   2257559.59949   1759137.45946         0.00041  21687531.12946  21687530.49149
  -1478065.59749  -1151738.76546         0.00041  21162502.74946  21162503.06549
    670953.62249    522821.73946         0.00041  21313933.05646  21313932.77149
  -2321032.92948  -1808594.35445         0.00041  23142794.78345  23142792.68548
   2262309.26748   1762839.46945         0.00041  23331122.26845  23331122.63148
    641707.48749    500032.36747         0.00041  20539658.54947  20539659.05249
 97 03 25 02 04 30.0000000  0  6 05 06 10 17 24 30
   2342131.06648   1825037.28946         0.00041  21703624.63946  21703623.33448
  -1527837.69049  -1190522.18946         0.00041  21153031.15046  21153031.69949
    703815.33049    548428.27846         0.00041  21320186.42946  21320186.15849
  -2396725.70348  -1867575.68045         0.00041  23128390.41645  23128388.70148
   2341729.20948   1824725.14145         0.00041  23346236.16645  23346235.80848
    677757.86449    528123.56847         0.00041  20546518.67647  20546519.28649
 97 03 25 02 05 00.0000000  0  6 05 06 10 17 24 30
   2427055.70749   1891212.31146         0.00041  21719785.20646  21719784.46849
  -1577390.26449  -1229134.55946         0.00041  21143601.59246  21143602.11749
    737258.82749    574488.16346         0.00041  21326550.23646  21326550.34049
  -2472216.54848  -1926399.64845         0.00041  23114024.58445  23114023.46848
   2421182.27348   1886636.63045         0.00041  23361355.52945  23361354.70448
    714364.28349    556648.04947         0.00041  20553484.70047  20553485.25749
 97 03 25 02 05 30.0000000  0  6 05 06 10 17 24 30
   2512356.68949   1957680.58846         0.00041  21736017.50646  21736016.90049
  -1626704.72449  -1267561.38946         0.00041  21134217.50346  21134218.04649
    771285.77949    601002.69046         0.00041  21333025.18546  21333025.43449
  -2547479.90948  -1985046.36345         0.00041  23099702.65445  23099701.11348
   2500676.39048   1948580.10045         0.00041  23376483.07545  23376481.81548
    751554.53549    585627.46847         0.00041  20560561.62847  20560562.18049
 97 03 25 02 06 00.0000000  0  6 05 06 10 17 24 30
   2598016.22149   2024428.26246         0.00041  21752318.00246  21752317.29849
  -1675800.36849  -1305817.71846         0.00041  21124875.04046  21124875.52749
    805869.00949    627950.67746         0.00041  21339606.79846  21339606.33349
  -2622524.13148  -2043522.31945         0.00041  23085423.07145  23085421.01948
   2580198.31948   2010545.24345         0.00041  23391614.79745  23391614.03148
    789315.85749    615051.87447         0.00041  20567747.52947  20567748.04849
 97 03 25 02 06 30.0000000  0  6 05 06 10 17 24 30
   2684052.46749   2091469.48646         0.00041  21768690.17646  21768689.82749
  -1724690.47049  -1343913.88246         0.00041  21115571.05246  21115571.69949
    841025.60849    655345.44346         0.00041  21346296.87546  21346296.44049
  -2697324.74748  -2101808.45346         0.00041  23071188.40846  23071186.62348
   2659765.79448   2072545.88745         0.00041  23406755.70145  23406755.00248
    827670.08049    644938.27747         0.00041  20575045.97547  20575046.47149
 97 03 25 02 07 00.0000000  0  6 05 06 10 17 24 30
   2770438.43049   2158783.21546         0.00041  21785128.94246  21785128.74949
  -1773415.57749  -1381881.47446         0.00041  21106299.21146  21106299.52749
    876742.04049    683176.44446         0.00041  21353093.12446  21353093.03849
  -2771888.35248  -2159909.90646         0.00041  23056999.49546  23056997.25848
   2739354.69948   2134563.20645         0.00041  23421901.48145  23421900.91148
    866617.49549    675286.90947         0.00041  20582457.55047  20582458.09249
 97 03 25 02 07 30.0000000  0  6 05 06 10 17 24 30
   2857172.46149   2226368.16046         0.00041  21801633.92746  21801633.41149
  -1821989.49049  -1419731.25546         0.00041  21097055.93446  21097056.15749
    913011.67549    711438.51346         0.00041  21359994.99746  21359995.13449
  -2846210.65148  -2217823.31546         0.00041  23042856.03946  23042854.40848
   2818962.30848   2196595.11245         0.00041  23437050.48345  23437049.88548
    906159.15549    706098.59047         0.00041  20589981.72147  20589982.51849
 97 03 25 02 08 00.0000000  0  6 05 06 10 17 24 30
   2944348.92949   2294297.87146         0.00041  21818223.16046  21818222.80349
  -1870317.47449  -1457389.40246         0.00041  21087859.43446  21087859.71749
    949952.79449    740223.81546         0.00041  21367024.86046  21367024.69449
  -2920188.65348  -2275468.45145         0.00041  23028778.81945  23028777.17048
   2898689.67748   2258720.34845         0.00041  23452222.31245  23452221.10148
    946393.68549    737450.16747         0.00041  20597638.25547  20597638.66249
 97 03 25 02 08 30.0000000  0  5 05 06 10 17 30
   3031816.85749   2362454.68546         0.00041  21834867.61646  21834867.44149
  -1918540.66849  -1494965.89746         0.00041  21078682.64846  21078683.24649
    987424.09949    769422.25546         0.00041  21374155.23746  21374155.16349
  -2993975.16248  -2332964.36746         0.00041  23014736.25446  23014735.80848
    987170.57349    769224.35847         0.00041  20605397.82247  20605398.22149
 97 03 25 02 09 00.0000000  0  5 05 06 10 17 30
   3119552.22148   2430819.90246         0.00041  21851562.96046  21851562.69648
  -1966674.88849  -1532473.05646         0.00041  21069522.93146  21069523.87349
   1025391.27149    799007.07846         0.00041  21381380.23646  21381379.67649
  -3067603.86948  -2390337.31546         0.00041  23000726.40146  23000724.93248
   1028445.34649    801386.51447         0.00041  20613252.39747  20613252.85349
 97 03 25 02 09 30.0000000  0  5 05 06 10 17 30
   3207555.88048   2499394.17746         0.00041  21868309.41246  21868308.96648
  -2014716.53649  -1569908.07846         0.00041  21060381.03846  21060381.78749
   1063843.54449    828969.90246         0.00041  21388697.37446  21388697.19849
  -3141089.56948  -2447598.83946         0.00041  22986742.41846  22986741.17348
   1070187.76849    833913.07247         0.00041  20621195.71047  20621196.46749
 97 03 25 02 10 00.0000000  0  5 05 06 10 17 30
   3295917.51048   2568247.39346         0.00041  21885123.79846  21885123.70948
  -2062574.44149  -1607199.93046         0.00041  21051273.69246  21051274.13049
   1102874.14749    859383.37246         0.00041  21396124.46446  21396124.54549
  -3214344.90048  -2504680.85946         0.00041  22972802.13346  22972801.58648
   1112483.08049    866870.46447         0.00041  20629244.04547  20629245.03049
 97 03 25 02 10 30.0000000  0  5 05 06 10 17 30
   3384723.46348   2637446.82846         0.00041  21902023.39646  21902022.85648
  -2110147.04049  -1644269.46846         0.00041  21042221.19346  21042221.74749
   1142565.06149    890311.36946         0.00041  21403677.43446  21403677.59149
  -3287276.17448  -2561510.35946         0.00041  22958923.72446  22958922.79848
   1155415.50149    900324.30247         0.00041  20637413.73947  20637414.41049
 97 03 25 02 11 00.0000000  0  5 05 06 10 17 30
   3473856.60048   2706901.20146         0.00041  21918985.01346  21918984.40248
  -2157533.19649  -1681193.71646         0.00041  21033203.84646  21033204.49749
   1182807.34749    921669.00746         0.00041  21411335.46746  21411335.34949
  -3359989.35248  -2618169.92146         0.00041  22945086.70346  22945086.24148
   1198873.96749    934188.03947         0.00041  20645683.65247  20645683.98049
 97 03 25 02 11 30.0000000  0  5 05 06 10 17 30
   3563271.01948   2776574.75846         0.00041  21936000.03546  21935999.34348
  -2204747.82849  -1717984.31246         0.00041  21024219.06346  21024219.55349
   1223573.11049    953434.55246         0.00041  21419092.73046  21419092.54649
  -3432513.90848  -2674682.49246         0.00041  22931286.88646  22931284.61748
   1242834.13849    968442.71547         0.00041  20654049.08447  20654049.48149
 97 03 25 02 12 00.0000000  0  5 05 06 10 17 30
   3652935.77448   2846443.39846         0.00041  21953062.58946  21953061.80248
  -2251802.14749  -1754649.99146         0.00041  21015264.99146  21015265.56749
   1264836.68849    985588.00046         0.00041  21426944.66446  21426944.91249
  -3504863.08348  -2731058.42546         0.00041  22917518.71946  22917517.18548
   1287290.56149   1003084.07847         0.00041  20662508.96047  20662509.33349
 97 03 25 02 12 30.0000000  0  5 05 06 10 17 30
   3742854.61448   2916510.02346         0.00041  21970173.15646  21970173.18748
  -2298680.93349  -1791178.88946         0.00041  21006344.25046  21006344.90849
   1306603.16849   1018133.32146         0.00041  21434892.62546  21434892.83249
  -3577024.14948  -2787287.76746         0.00041  22903786.53446  22903785.21148
   1332257.02649   1038122.87647         0.00041  20671065.72447  20671066.37349
 97 03 25 02 13 00.0000000  0  5 05 06 10 17 30
   3833048.81448   2986791.21646         0.00041  21987336.72246  21987336.39148
  -2345371.41449  -1827561.05746         0.00041  20997459.24546  20997459.67949
   1348886.72949   1051081.56846         0.00041  21442938.95746  21442939.25849
  -3648978.26248  -2843355.85246         0.00041  22890093.91746  22890092.57248
   1377760.54149   1073580.15547         0.00041  20679724.42947  20679725.20449
 97 03 25 02 13 30.0000000  0  5 05 06 10 17 30
   3923547.79948   3057309.90746         0.00041  22004558.77246  22004557.82448
  -2391857.86149  -1863784.23846         0.00041  20988613.23346  20988613.68749
   1391708.61249   1084449.28046         0.00041  21451087.46046  21451087.88449
  -3720704.60148  -2899246.45046         0.00041  22876445.27946  22876443.78048
   1423831.51849   1109479.62047         0.00041  20688491.29547  20688492.40349
 97 03 25 02 14 00.0000000  0  5 05 06 10 17 30
   4014368.12548   3128078.97646         0.00041  22021841.07646  22021840.21448
  -2438145.81049  -1899852.75146         0.00041  20979804.93146  20979805.29549
   1435069.12849   1118236.71346         0.00041  21459338.99746  21459339.09349
  -3792197.03248  -2954954.77846         0.00041  22862840.60446  22862839.04748
   1470482.29849   1145830.87947         0.00041  20697368.83247  20697369.97849
 97 03 25 02 14 30.0000000  0  5 05 06 10 17 30
   4105519.87248   3199106.30146         0.00041  22039186.89246  22039185.82148
  -2484231.98949  -1935764.04046         0.00041  20971034.94146  20971035.44149
   1478978.77349   1152452.03646         0.00041  21467694.58146  21467694.60949
  -3863453.61948  -3010479.33246         0.00041  22849280.56246  22849279.15348
   1517721.10749   1182640.34247         0.00041  20706358.11347  20706358.84349
 97 03 25 02 15 00.0000000  0  5 05 06 10 17 30
   4196998.47148   3270388.30646         0.00041  22056594.63946  22056593.69048
  -2530114.05649  -1971516.28546         0.00041  20962303.79446  20962304.32449
   1523424.63249   1187085.17946         0.00041  21476152.02946  21476152.51449
  -3934483.61548  -3065827.33146         0.00041  22835763.36746  22835762.40848
   1565536.93549   1219899.42647         0.00041  20715457.33447  20715457.75849
 97 03 25 02 15 30.0000000  0  5 05 06 10 17 30
   4288810.54348   3341930.17246         0.00041  22074065.85646  22074065.01648
  -2575777.57749  -2007098.23546         0.00041  20953614.15446  20953614.66449
   1568417.87149   1222144.85546         0.00041  21484713.88446  21484714.23749
  -4005284.67848  -3120996.93646         0.00041  22822290.34146  22822289.86748
   1613927.08449   1257606.03447         0.00041  20724665.78047  20724666.15449
 97 03 25 02 16 00.0000000  0  5 05 06 10 17 30
   4380952.55348   3413729.12846         0.00041  22091599.76946  22091599.19948
  -2621212.93849  -2042502.40046         0.00041  20944968.19546  20944968.74749
   1613961.75549   1257633.60646         0.00041  21493380.89246  21493380.84549
  -4075833.54748  -3175970.03546         0.00041  22808864.18146  22808864.13948
   1662891.66149   1295760.24547         0.00041  20733983.65147  20733984.08449
 97 03 25 02 16 30.0000000  0  5 05 06 10 17 30
   4473429.40048   3485789.00146         0.00041  22109197.35346  22109196.89548
  -2666394.00849  -2077708.41346         0.00041  20936370.51246  20936371.11849
   1660070.02649   1293562.13946         0.00041  21502155.32846  21502154.95349
  -4146115.37248  -3230735.03146         0.00041  22795490.68246  22795490.07448
   1712429.46449   1334361.12647         0.00041  20743410.12447  20743410.50149
 97 03 25 02 17 00.0000000  0  5 05 06 10 17 30
   4566242.39548   3558110.80546         0.00041  22126858.77546  22126858.64548
  -2711311.03249  -2112708.67446         0.00041  20927823.23246  20927823.76049
   1706750.00849   1329936.16746         0.00041  21511038.10846  21511038.23149
  -4216119.77248  -3285283.84846         0.00041  22782169.72046  22782169.28648
   1762529.04449   1373399.76147         0.00041  20752943.71947  20752944.13449
 97 03 25 02 17 30.0000000  0  5 05 06 10 17 30
   4659362.95648   3630672.25846         0.00041  22144579.48046  22144578.96748
  -2755994.70749  -2147527.11047         0.00041  20919320.17147  20919320.72349
   1753982.32449   1366740.57946         0.00041  21520026.15846  21520026.30649
  -4285866.90648  -3339632.20646         0.00041  22768896.05446  22768896.40248
   1813153.55949   1412847.43347         0.00041  20762577.15247  20762577.96949
 97 03 25 02 18 00.0000000  0  5 05 06 10 17 30
   4752777.61248   3703462.88546         0.00041  22162355.90246  22162355.43848
  -2800468.43849  -2182181.95847         0.00041  20910857.08547  20910857.64649
   1801745.17449   1403958.39446         0.00041  21529114.87946  21529115.13049
  -4355364.39248  -3393786.03746         0.00041  22755672.03446  22755671.72048
   1864282.54949   1452688.20547         0.00041  20772306.45047  20772307.44149
 97 03 25 02 18 30.0000000  0  5 05 06 10 17 30
   4846478.11048   3776476.24946         0.00041  22180186.31546  22180185.96648
  -2844756.34449  -2216692.00847         0.00041  20902429.30547  20902430.01049
   1850009.27649   1441566.79746         0.00041  21538299.15446  21538299.38849
  -4424654.47848  -3447778.25346         0.00041  22742486.77046  22742486.36248
   1915891.40549   1492902.89647         0.00041  20782127.29447  20782128.35349
 97 03 25 02 19 00.0000000  0  5 05 06 10 17 30
   4940459.40348   3849708.41246         0.00041  22198070.16046  22198069.73648
  -2888876.09449  -2251071.01647         0.00041  20894033.72547  20894034.33649
   1898773.77149   1479565.11746         0.00041  21547578.71546  21547579.00049
  -4493737.63348  -3501609.23346         0.00041  22729340.59946  22729340.22348
   1967984.51049   1533494.92747         0.00041  20792040.23647  20792041.04849
 97 03 25 02 19 30.0000000  0  5 05 06 10 17 30
   5034698.47848   3923141.44646         0.00041  22216003.32546  22216002.84648
  -2932846.31649  -2285333.51547         0.00041  20885666.55647  20885666.95949
   1948007.90749   1517929.39646         0.00041  21556947.44346  21556947.81949
  -4562630.02048  -3555291.55746         0.00041  22716231.23046  22716230.48148
   2020557.52249   1574460.91147         0.00041  20802044.73047  20802045.34549
 97 03 25 02 20 00.0000000  0  5 05 06 10 17 30
   5129183.20748   3996765.90446         0.00041  22233982.86046  22233983.00248
  -2976658.95349  -2319473.21747         0.00041  20877329.04747  20877329.57849
   1997699.80249   1556650.36846         0.00041  21566403.61346  21566403.96849
  -4631345.48948  -3608836.03946         0.00041  22703154.87946  22703154.23548
   2073631.46849   1615817.22847         0.00041  20812144.43347  20812144.93849
 97 03 25 02 20 30.0000000  0  5 05 06 10 17 30
   5223889.24248   4070562.81146         0.00041  22252005.13546  22252005.04548
  -3020302.81549  -2353481.40547         0.00041  20869023.54947  20869024.35949
   2047864.37549   1595739.65146         0.00041  21575949.82446  21575950.08249
  -4699893.45048  -3662249.98546         0.00041  22690111.16546  22690109.67048
   2127222.52049   1657576.49047         0.00041  20822342.58947  20822343.18549
 97 03 25 02 21 00.0000000  0  5 05 06 10 17 30
   5318806.64548   4144524.40546         0.00041  22270067.58946  22270067.00048
  -3063760.64049  -2387344.63247         0.00041  20860754.13247  20860754.69049
   2098522.84949   1635213.79746         0.00041  21585589.99446  21585589.91149
  -4768250.94848  -3715515.52946         0.00041  22677103.26246  22677101.73348
   2181338.68549   1699744.93247         0.00041  20832640.53047  20832641.13749
 97 03 25 02 21 30.0000000  0  5 05 06 10 17 30
   5413969.22548   4218677.05946         0.00041  22288175.96446  22288175.62848
  -3106985.95449  -2421026.68247         0.00041  20852528.76447  20852529.37149
   2149697.34449   1675090.04046         0.00041  21595327.72646  21595328.04249
  -4836382.71648  -3768605.17746         0.00041  22664138.63146  22664136.35848
   2236009.59949   1742345.64747         0.00041  20843043.68847  20843044.59049
 97 03 25 02 22 00.0000000  0  5 05 06 10 17 30
   5509396.97348   4293036.32646         0.00041  22306335.83746  22306335.24448
  -3149964.67849  -2454516.58247         0.00041  20844350.07547  20844350.79349
   2201419.41049   1715392.96346         0.00041  21605170.08346  21605170.72049
  -4904275.88448  -3821508.90746         0.00041  22651218.11346  22651216.61448
   2291248.51749   1785388.95746         0.00041  20853555.59846  20853556.08849
 97 03 25 02 22 30.0000000  0  5 05 06 10 17 30
   5605114.19548   4367621.16546         0.00041  22324549.86846  22324549.35048
  -3192697.63149  -2487814.97647         0.00041  20836218.22347  20836218.84949
   2253698.13049   1756129.64446         0.00041  21615118.47846  21615118.98849
  -4971905.70348  -3874207.42146         0.00041  22638348.81546  22638347.06648
   2347038.27849   1828861.49846         0.00041  20864172.15646  20864172.70449
 97 03 25 02 23 00.0000000  0  5 05 06 10 17 30
   5701131.56748   4442439.89546         0.00041  22342821.19146  22342821.19148
  -3235195.91549  -2520930.51247         0.00041  20828130.71247  20828131.59149
   2306500.65149   1797274.47946         0.00041  21625166.51646  21625166.83949
  -5039266.98648  -3926696.68846         0.00041  22625529.89146  22625528.70548
   2403348.44749   1872739.54746         0.00041  20874887.78246  20874888.07349
 97 03 25 02 23 30.0000000  0  5 05 06 10 17 30
   5797473.11548   4517511.22646         0.00041  22361154.49946  22361154.44448
  -3277436.81149  -2553845.47947         0.00041  20820092.80847  20820093.64849
   2359837.56149   1838835.71646         0.00041  21635315.73846  21635316.19949
  -5106347.04748  -3978966.81946         0.00041  22612764.48046  22612763.03848
   2460203.67549   1917042.32346         0.00041  20885706.74946  20885707.28349
 97 03 25 02 24 00.0000000  0  5 05 06 10 17 30
   5894098.05048   4592803.40146         0.00041  22379541.85746  22379541.40048
  -3319452.34049  -2586584.83447         0.00041  20812097.41347  20812097.99249
   2413672.40249   1880784.95446         0.00041  21645560.88246  21645560.72649
  -5173187.12748  -4031049.95146         0.00041  22600044.72046  22600044.33948
   2517562.10749   1961737.20246         0.00041  20896621.56346  20896622.30849
 97 03 25 02 24 30.0000000  0  5 05 06 10 17 30
   5990996.29048   4668308.52046         0.00041  22397981.04546  22397980.56548
  -3361233.79149  -2619141.79647         0.00041  20804146.90847  20804147.26349
   2467987.69849   1923108.56846         0.00041  21655896.41546  21655896.48949
  -5239785.68048  -4082944.87746         0.00041  22587371.54246  22587370.67748
   2575408.03249   2006811.94946         0.00041  20907628.98846  20907629.83849
 97 03 25 02 25 00.0000000  0  5 05 06 10 17 30
   6088153.71348   4744015.59646         0.00041  22416469.60046  22416469.08048
  -3402765.83049  -2651504.41147         0.00041  20796243.58347  20796243.95449
   2522794.71049   1965815.33746         0.00041  21666325.63346  21666325.83649
  -5306148.76548  -4134656.33146         0.00041  22574742.71646  22574742.21548
   2633763.05349   2052283.39846         0.00041  20918733.71846  20918734.68949
 97 03 25 02 25 30.0000000  0  5 05 06 10 17 30
   6185540.16848   4819901.14046         0.00041  22435001.62346  22435001.01148
  -3444058.43549  -2683680.45347         0.00041  20788385.70847  20788386.33049
   2578079.65249   2008894.53446         0.00041  21676846.31646  21676846.52049
  -5372307.19948  -4186208.31346         0.00041  22562154.19446  22562153.56148
   2692614.44449   2098141.62446         0.00041  20929933.21046  20929933.77749
 97 03 25 02 26 00.0000000  0  5 05 06 10 17 30
   6283138.65748   4895951.88046         0.00041  22453574.03846  22453572.99948
  -3485129.76949  -2715684.07247         0.00041  20780569.79647  20780570.59349
   2633831.60449   2052337.62746         0.00041  21687455.42246  21687455.60949
  -5438267.90248  -4237606.21046         0.00041  22549601.48646  22549601.58248
   2751940.89549   2144370.02546         0.00041  20941222.58246  20941222.92449
 97 03 25 02 26 30.0000000  0  5 05 06 10 17 30
   6380951.69748   4972169.83346         0.00041  22472187.11346  22472186.63348
  -3525980.60449  -2747515.87547         0.00041  20772795.95547  20772796.75349
   2690059.57949   2096151.64146         0.00041  21698155.42046  21698155.08949
  -5504022.74748  -4288843.71146         0.00041  22537089.00746  22537088.68748
   2811749.93449   2190974.46546         0.00041  20952604.14346  20952604.21349
 97 03 25 02 27 00.0000000  0  5 05 06 10 17 30
   6478987.30948   5048561.19946         0.00041  22490842.87546  22490841.90548
  -3566613.63049  -2779177.95947         0.00041  20765064.08147  20765064.60149
   2746782.64849   2140351.43946         0.00041  21708949.05046  21708949.12149
  -5569557.92448  -4339910.04346         0.00041  22524618.66946  22524618.19348
   2872059.34649   2237968.80846         0.00041  20964080.24846  20964080.68049
 97 03 25 02 27 30.0000000  0  5 05 06 10 17 30
   6577266.01548   5125142.00646         0.00041  22509544.12046  22509543.78748
  -3607016.83449  -2810660.96247         0.00041  20757375.36547  20757375.92949
   2804012.09149   2184945.81946         0.00041  21719839.35546  21719839.76049
  -5634843.78148  -4390782.10346         0.00041  22512194.58346  22512194.40348
   2932879.64549   2285361.24746         0.00041  20975653.90246  20975654.46049
 97 03 25 02 28 00.0000000  0  5 05 06 10 17 30
   6675807.86448   5201927.84846         0.00041  22528296.14646  22528295.71548
  -3647189.50249  -2841964.32647         0.00041  20749730.92747  20749731.43249
   2861761.33449   2229945.24246         0.00041  21730828.80946  21730829.21249
  -5699869.45948  -4441451.42246         0.00041  22499820.93746  22499819.90648
   2994221.73049   2333160.27546         0.00041  20987326.65446  20987327.24249
 97 03 25 02 28 30.0000000  0  5 05 06 10 17 30
   6774585.12748   5278897.12546         0.00041  22547092.35346  22547092.35648
  -3687142.85449  -2873096.79347         0.00041  20742128.26847  20742128.84149
   2920011.56449   2275335.04546         0.00041  21741913.63046  21741913.96949
  -5764653.58948  -4491932.52146         0.00041  22487492.55646  22487491.64748
   3056064.48049   2381349.42846         0.00041  20999095.19146  20999095.75749
 97 03 25 02 29 00.0000000  0  5 05 06 10 17 30
   6873582.77048   5356038.15446         0.00041  22565931.43346  22565930.78648
  -3726870.76849  -2904053.59147         0.00041  20734568.21747  20734568.85649
   2978741.15849   2321098.37346         0.00041  21753089.58046  21753089.65049
  -5829207.00148  -4542233.83846         0.00041  22475208.08146  22475206.93848
   3118398.07649   2429921.06146         0.00041  21010956.56446  21010957.58449
 97 03 25 02 29 30.0000000  0  5 05 06 10 17 30
   6972778.26748   5433333.34446         0.00041  22584807.18746  22584807.07648
  -3766376.55249  -2934837.30147         0.00041  20727050.40547  20727050.96749
   3037913.55149   2367206.74346         0.00041  21764349.77846  21764349.77349
  -5893567.85848  -4592385.11146         0.00041  22462961.91446  22462959.94048
   3181195.40749   2478854.05146         0.00041  21022906.87046  21022907.83749
 97 03 25 02 30 00.0000000  0  5 05 06 10 17 30
   7072170.72448   5510781.99546         0.00041  22603721.31646  22603720.70548
  -3805644.43349  -2965435.63547         0.00041  20719578.02747  20719578.56349
   3097521.12149   2413654.20746         0.00041  21775692.69646  21775693.00549
  -5957735.73548  -4642386.01446         0.00041  22450749.42646  22450749.06548
   3244462.84949   2528153.35446         0.00041  21034946.35146  21034947.01549
 97 03 25 02 30 30.0000000  0  5 05 06 10 17 30
   7171759.83248   5588383.88846         0.00041  22622672.83546  22622672.33448
  -3844647.73549  -2995827.80247         0.00041  20712155.80347  20712156.42249
   3157560.28349   2460437.98246         0.00041  21787117.87046  21787117.85649
  -6021697.12248  -4692226.01246         0.00041  22438577.94346  22438577.89748
   3308208.53349   2577825.31846         0.00041  21047076.49546  21047077.05149
 97 03 25 02 31 00.0000000  0  5 05 06 10 17 30
   7271586.83248   5666171.14946         0.00041  22641669.39646  22641668.88148
  -3883366.65749  -3025998.37547         0.00041  20704787.96447  20704788.40749
   3218043.63149   2507567.87246         0.00041  21798627.59946  21798627.32449
  -6085427.01048  -4741885.60646         0.00041  22426451.13846  22426450.85848
   3372460.73849   2627891.96546         0.00041  21059303.66346  21059303.68149
 97 03 25 02 31 30.0000000  0  5 05 06 10 17 30
   7371658.57648   5744149.12846         0.00041  22660711.46046  22660712.10848
  -3921810.91249  -3055954.92447         0.00041  20697471.93047  20697472.70649
   3278986.41448   2555055.76446         0.00041  21810224.16046  21810224.03948
  -6148918.08148  -4791359.11846         0.00041  22414368.95746  22414368.69048
   3437215.40549   2678350.14646         0.00041  21071625.70446  21071626.50249
 97 03 25 02 32 00.0000000  0  5 05 06 10 17 30
   7472002.78448   5822339.40746         0.00041  22679807.48546  22679807.12948
  -3959955.72249  -3085678.13047         0.00041  20690213.26147  20690214.37449
   3340436.89148   2602939.26146         0.00041  21821917.76046  21821917.81848
  -6212125.77148  -4840611.81246         0.00041  22402341.00146  22402341.04948
   3502490.60549   2729213.95046         0.00041  21084047.37746  21084048.01149
 97 03 25 02 32 30.0000000  0  5 05 06 10 17 30
   7572639.38448   5900757.52246         0.00041  22698957.60946  22698957.22748
  -3997784.27549  -3115154.90147         0.00041  20683014.94647  20683015.78849
   3402431.75048   2651246.95246         0.00041  21833715.18146  21833715.07648
  -6275034.61748  -4889631.64346         0.00041  22390369.77246  22390369.79948
   3568291.86149   2780487.66446         0.00041  21096568.72446  21096569.72349
 97 03 25 02 33 00.0000000  0  5 05 06 10 17 30
   7673546.91848   5979386.73946         0.00041  22718160.11046  22718159.22748
  -4035323.82949  -3144406.48447         0.00041  20675871.44047  20675872.02849
   3464967.76648   2699976.32246         0.00041  21845615.06546  21845615.43848
  -6337658.40148  -4938429.35246         0.00041  22378452.76746  22378451.89448
   3634595.41749   2832152.78346         0.00041  21109185.79746  21109186.50749
 97 03 25 02 33 30.0000000  0  5 05 06 10 17 30
   7774647.82348   6058166.63646         0.00041  22737399.16546  22737398.29148
  -4072629.63749  -3173475.93147         0.00041  20668772.31747  20668772.97549
   3527988.79948   2749083.62246         0.00041  21857607.81346  21857607.76648
  -6400061.46148  -4987055.07146         0.00041  22366578.22946  22366577.24748
   3701346.25849   2884166.42846         0.00041  21121888.36046  21121888.99349
 97 03 25 02 34 00.0000000  0  5 05 06 10 17 30
   7875921.27748   6137080.98946         0.00041  22756670.70346  22756670.11648
  -4109719.04649  -3202376.75547         0.00041  20661714.17847  20661715.17049
   3591459.77048   2798541.53146         0.00041  21869685.74246  21869686.19748
  -6462270.80148  -5035529.83346         0.00041  22354740.12446  22354738.99648
   3768528.37549   2936516.13246         0.00041  21134672.57446  21134673.09249
 97 03 25 02 34 30.0000000  0  6 05 06 10 17 26 30
   7977369.70448   6216131.71345         0.00041  22775974.81645  22775974.65348
  -4146598.03549  -3231113.60747         0.00041  20654696.29447  20654697.33149
   3655355.48248   2848330.40646         0.00041  21881844.77646  21881845.19548
  -6524290.08248  -5083856.50646         0.00041  22342937.96246  22342937.11548
         0.12858         0.00051         0.00051         0.00051  24350260.81958
   3836159.53849   2989215.74246         0.00041  21147542.37746  21147542.65549
 97 03 25 02 35 00.0000000  0  6 05 06 10 17 26 30
   8078972.33448   6295302.58446         0.00041  22795309.74246  22795309.11748
  -4183285.40349  -3259701.14647         0.00041  20647715.02847  20647715.73849
   3719655.15548   2898434.05646         0.00041  21894080.31946  21894080.70248
  -6586134.08348  -5132046.59846         0.00041  22331169.44246  22331169.14948
    -78315.07448         0.00041         0.00041         0.00041  24335356.70948
   3904231.07349   3042258.49946         0.00041  21160495.77046  21160496.21449
 97 03 25 02 35 30.0000000  0  7 05 06 10 17 23 26 30
   8180753.23048   6374612.37145         0.00041  22814678.15545  22814677.34048
  -4219747.48249  -3288113.14347         0.00041  20640776.84347  20640777.29149
   3784372.44048   2948863.11346         0.00041  21906395.55346  21906396.06048
  -6647770.56048  -5180074.98146         0.00041  22319440.11546  22319439.97748
        -0.65957         0.00051         0.00051         0.00051  24545945.61457
   -156574.11748         0.00041         0.00041         0.00041  24320463.84348
   3972767.88949   3095663.81746         0.00041  21173537.97946  21173538.36249
 97 03 25 02 36 00.0000000  0  7 05 06 10 17 23 26 30
   8282717.14448   6454064.76146         0.00041  22834081.09146  22834080.59248
  -4255976.81949  -3316343.78247         0.00041  20633882.48047  20633882.96649
   3849509.29448   2999619.11146         0.00041  21918790.69046  21918791.27248
  -6709184.83348  -5227930.20946         0.00041  22307753.21346  22307753.62448
   -106165.75047         0.00041         0.00041         0.00041  24525741.88347
   -234785.95348   -182948.83444         0.00041  24305585.13244  24305581.75048
   4041751.28049   3149417.10846         0.00041  21186665.05746  21186665.61249
 97 03 25 02 36 30.0000000  0  7 05 06 10 17 23 26 30
   8384875.98448   6533669.05145         0.00041  22853520.98345  22853520.25248
  -4291947.37449  -3344372.77447         0.00041  20627037.36147  20627037.90449
   3915083.40548   3050715.83146         0.00041  21931268.88846  21931269.29048
  -6770354.95148  -5275595.19546         0.00041  22296112.90346  22296113.43648
   -212286.80047         0.00041         0.00041         0.00041  24505547.47247
   -312935.90348   -243844.81544         0.00041  24290711.81244  24290710.77948
   4111186.44949   3203522.43646         0.00041  21199878.00246  21199878.56149
 97 03 25 02 37 00.0000000  0  7 05 06 10 17 23 26 30
   8487232.33248   6613427.22745         0.00041  22872999.01845  22872997.61448
  -4327631.99649  -3372178.96347         0.00041  20620246.82447  20620247.34749
   3981098.73548   3102156.35746         0.00041  21943831.71946  21943831.79348
  -6831264.12048  -5323056.83746         0.00041  22284522.03246  22284522.34548
   -318358.87148   -248071.21241         0.00041         0.00041  24485363.55748
   -391018.90948   -304688.60544         0.00041  24275854.06344  24275852.05648
   4181065.06949   3257973.30446         0.00041  21213175.63046  21213176.15749
 97 03 25 02 37 30.0000000  0  7 05 06 10 17 23 26 30
   8589787.93148   6693340.68045         0.00041  22892514.26245  22892513.86948
  -4363025.66249  -3399758.43547         0.00041  20613511.57547  20613512.32449
   4047542.29748   3153930.56846         0.00041  21956475.13546  21956475.47348
  -6891917.94048  -5370319.51246         0.00041  22272980.51746  22272980.23748
   -424376.13248   -330681.92241         0.00041         0.00041  24465189.26648
   -469051.86448   -365493.44544         0.00041  24261002.32844  24261002.77848
   4251379.81449   3312764.01346         0.00041  21226556.23446  21226556.90249
 97 03 25 02 38 00.0000000  0  7 05 06 10 17 23 26 30
   8692525.79648   6773396.13945         0.00041  22912065.37245  22912064.62948
  -4398122.22949  -3427106.40547         0.00041  20606832.73947  20606833.59149
   4114410.36648   3206035.55646         0.00041  21969199.52546  21969199.86548
  -6952348.87348  -5417408.51446         0.00041  22261480.50746  22261480.23448
   -530351.22848   -413259.76244         0.00041  24445022.46544  24445022.98348
   -547043.30048   -426265.89444         0.00041  24246161.14444  24246161.19348
   4322115.57049   3367882.79446         0.00041  21240016.68946  21240017.51249
 97 03 25 02 38 30.0000000  0  7 05 06 10 17 23 26 30
   8795422.11948   6853575.06945         0.00041  22931645.50545  22931645.12348
  -4432928.93249  -3454228.51047         0.00041  20600209.64047  20600210.22349
   4181700.34948   3258469.30846         0.00041  21982004.96646  21982004.73048
  -7012574.85348  -5464337.81746         0.00041  22250019.95346  22250019.37348
   -636279.28048   -495800.97044         0.00041  24424869.04744  24424864.62648
   -624985.15248   -486999.73044         0.00041  24231330.15344  24231329.30448
   4393282.78149   3423337.77346         0.00041  21253558.98746  21253559.95549
 97 03 25 02 39 00.0000000  0  7 05 06 10 17 23 26 30
   8898479.68348   6933879.65745         0.00041  22951256.68745  22951256.02448
  -4467431.89149  -3481113.92847         0.00041  20593644.01447  20593644.42249
   4249446.42348   3311258.46246         0.00041  21994896.86146  21994896.42248
  -7072569.05148  -5511086.50746         0.00041  22238603.45046  22238602.75648
   -742116.77948   -578271.61544         0.00041  24404723.78244  24404723.98348
   -702854.62248   -547677.12744         0.00041  24216512.28144  24216511.83048
   4464914.59549   3479154.77646         0.00041  21267190.35046  21267191.05749
 97 03 25 02 39 30.0000000  0  7 05 06 10 17 23 26 30
   9001694.70048   7014306.91645         0.00041  22970899.31945  22970896.95748
  -4501638.84749  -3507768.70047         0.00041  20587134.58247  20587135.11549
   4317668.73048   3364418.70146         0.00041  22007878.64646  22007878.92748
  -7132339.13548  -5557660.56446         0.00041  22227229.90546  22227229.28948
   -847849.28848   -660660.43344         0.00041  24384607.13844  24384603.98048
   -780649.72248   -608296.61444         0.00041  24201708.83344  24201707.56048
   4537022.09749   3535342.44446         0.00041  21280911.92546  21280912.42249
 97 03 25 02 40 00.0000000  0  7 05 06 10 17 23 26 30
   9105042.21348   7094837.42045         0.00041  22990564.63145  22990563.69548
  -4535570.13449  -3534208.65647         0.00041  20580677.42047  20580678.05149
   4386355.08548   3417940.54346         0.00041  22020949.21746  22020949.52948
  -7191890.27348  -5604064.00546         0.00041  22215897.86946  22215897.41348
   -953470.86848   -742962.79744         0.00041  24364509.29544  24364504.88748
   -858375.01848   -668861.67544         0.00041  24186916.60844  24186916.72148
   4609599.49149   3591896.26346         0.00041  21294723.15546  21294723.78549
 97 03 25 02 40 30.0000000  0  7 05 06 10 17 23 26 30
   9208545.63048   7175489.41945         0.00041  23010260.43545  23010260.05448
  -4569236.09049  -3560441.85647         0.00041  20574271.22847  20574271.78249
   4455496.39248   3471816.88546         0.00041  22034106.39946  22034106.16648
  -7251199.29848  -5650278.79846         0.00041  22204611.45446  22204611.49048
  -1058943.61448   -825149.23344         0.00041  24344437.10944  24344434.13848
   -936014.91448   -729360.21844         0.00041  24172142.75344  24172141.76548
   4682665.09149   3648830.49746         0.00041  21308627.03946  21308627.81049
 97 03 25 02 41 00.0000000  0  7 05 06 10 17 23 26 30
   9312212.67448   7256268.93545         0.00041  23029987.59745  23029987.40448
  -4602640.18549  -3586471.01147         0.00041  20567914.25947  20567914.85249
   4525055.47148   3526018.76546         0.00041  22047343.35746  22047343.05748
  -7310277.08548  -5696313.40246         0.00041  22193368.86446  22193368.50448
  -1164288.28548   -907235.87444         0.00041  24324389.22444  24324387.66248
  -1013583.19648   -789802.95844         0.00041  24157383.40344  24157381.43248
   4756191.48749   3706123.79446         0.00041  21322618.78946  21322619.31149
 97 03 25 02 41 30.0000000  0  7 05 06 10 17 23 26 30
   9416062.31048   7337190.72145         0.00041  23049749.90345  23049748.63748
  -4635766.64549  -3612283.82247         0.00041  20561610.69947  20561611.45549
   4595014.05448   3580531.94846         0.00041  22060655.94746  22060655.86548
  -7369120.34248  -5742165.25346         0.00041  22182171.08446  22182170.67548
  -1269507.63048   -989224.88044         0.00041  24304364.78444  24304364.97548
  -1091067.41148   -850180.19844         0.00041  24142636.30744  24142636.91048
   4830164.53249   3763765.12446         0.00041  21336695.32646  21336695.78249
 97 03 25 02 42 00.0000000  0  7 05 06 10 17 23 26 30
   9520100.27548   7418259.25445         0.00041  23069546.79845  23069546.80348
  -4668600.61749  -3637868.71847         0.00041  20555362.41347  20555363.26549
   4665367.10048   3635352.50946         0.00041  22074043.58146  22074043.90348
  -7427710.75748  -5787820.08346         0.00041  22171021.71346  22171021.23548
  -1374597.68648  -1071113.05844         0.00041  24284369.70144  24284366.97848
  -1168443.81048   -910473.41944         0.00041  24127911.05244  24127912.87248
   4904584.31549   3821754.56146         0.00041  21350856.70946  21350857.38349
 97 03 25 02 42 30.0000000  0  7 05 06 10 17 23 26 30
   9624339.61948   7499484.71245         0.00041  23089382.97545  23089383.19248
  -4701122.94149  -3663210.77847         0.00041  20549173.95847  20549174.58349
   4736110.28348   3690477.06746         0.00041  22087505.47146  22087505.99548
  -7486042.29048  -5833273.19046         0.00041  22159921.88746  22159921.41648
  -1479588.77148  -1152924.22344         0.00041  24264388.25344  24264387.84648
  -1245706.74148   -970678.21944         0.00041  24113211.54144  24113210.43748
   4979434.93649   3880079.72646         0.00041  21365100.48046  21365101.01249
 97 03 25 02 43 00.0000000  0  7 05 06 10 17 23 26 30
   9728765.29448   7580855.36745         0.00041  23109255.18245  23109254.80348
  -4733326.51849  -3688304.46847         0.00041  20543045.72647  20543046.33249
   4807259.97648   3745918.39546         0.00041  22101044.82946  22101045.47248
  -7544113.25148  -5878523.25846         0.00041  22148871.08046  22148871.10748
  -1584497.99848  -1234671.55144         0.00041  24244426.21244  24244424.13248
  -1322857.17948  -1030795.36544         0.00041  24098530.54044  24098529.05248
   5054700.35349   3938728.09946         0.00041  21379422.64846  21379423.20649
 97 03 25 02 43 30.0000000  0  7 05 06 10 17 23 26 30
   9833357.19848   7662355.54445         0.00041  23129157.15845  23129157.80748
  -4765220.24849  -3713156.71647         0.00041  20536976.58347  20536977.37949
   4878818.68848   3801678.43846         0.00041  22114661.88946  22114662.33048
  -7601941.37048  -5923584.09446         0.00041  22137867.09346  22137867.12548
  -1689325.49448  -1316355.22744         0.00041  24224476.95944  24224476.14448
  -1399896.78548  -1090826.15244         0.00041  24083871.54644  24083869.09648
   5130375.20749   3997695.52146         0.00041  21393823.41246  21393823.89749
 97 03 25 02 44 00.0000000  0  7 05 06 10 17 23 26 30
   9938105.02548   7743977.23245         0.00041  23149091.46245  23149090.80048
  -4796814.30749  -3737775.45447         0.00041  20530964.12547  20530965.05049
   4950781.76848   3857753.57546         0.00041  22128356.08646  22128356.24448
  -7659549.41048  -5968473.43846         0.00041  22126904.78046  22126904.60448
  -1794078.52648  -1397980.90144         0.00041  24204542.58244  24204542.22748
  -1476820.78548  -1150766.86344         0.00041  24069228.28644  24069230.21248
   5206456.54349   4056979.67646         0.00041  21408300.84246  21408301.71649
 97 03 25 02 44 30.0000000  0  7 05 06 10 17 23 26 30
  10043014.34548   7825724.73845         0.00041  23169054.61145  23169053.96948
  -4828100.26249  -3762154.11647         0.00041  20525010.68847  20525011.52849
   5023159.69348   3914151.95946         0.00041  22142129.15946  22142129.38148
  -7716945.27648  -6013197.46146         0.00041  22115982.37446  22115982.17548
  -1898737.01448  -1479532.83944         0.00041  24184627.28644  24184626.02348
  -1553625.58948  -1210614.68844         0.00041  24054613.46844  24054614.11348
   5282948.24149   4116583.59546         0.00041  21422857.01646  21422857.73049
 97 03 25 02 45 00.0000000  0  7 05 06 10 17 23 26 30
  10148066.92248   7907583.87545         0.00041  23189045.92145  23189044.76848
  -4859087.32449  -3786299.88447         0.00041  20519114.04047  20519114.85049
   5095952.79348   3970873.85646         0.00041  22155981.02346  22155981.52848
  -7774136.02248  -6057761.64446         0.00041  22105099.54246  22105098.83048
  -2003270.18448  -1560987.19644         0.00041  24164734.28344  24164734.12248
  -1630295.82848  -1270357.67444         0.00041  24040024.27544  24040024.61548
   5359866.01949   4176519.51646         0.00041  21437493.86946  21437494.41749
 97 03 25 02 45 30.0000000  0  7 05 06 10 17 23 26 30
  10253259.65448   7989552.25845         0.00041  23209062.56345  23209062.24148
  -4889786.39849  -3810221.24447         0.00041  20513272.30847  20513273.15349
   5169158.48448   4027917.25546         0.00041  22169911.55846  22169912.61748
  -7831112.56948  -6102158.91846         0.00041  22094256.77646  22094256.41148
  -2107678.14448  -1642343.94744         0.00041  24144866.92744  24144865.90648
  -1706826.94948  -1329992.28244         0.00041  24025463.07844  24025461.45648
   5437209.89249   4236787.46646         0.00041  21452211.99746  21452212.51549
 97 03 25 02 46 00.0000000  0  7 05 06 10 17 23 26 30
  10358583.10848   8071622.47345         0.00041  23229105.46045  23229104.65748
  -4920211.03249  -3833928.74947         0.00041  20507482.63147  20507483.35949
   5242783.20648   4085287.17546         0.00041  22183921.77946  22183922.56748
  -7887860.12049  -6146377.75346         0.00041  22083458.40446  22083458.15249
  -2211958.61948  -1723601.34744         0.00041  24125023.04744  24125021.99848
  -1783227.50248  -1389525.10244         0.00041  24010922.76844  24010922.29248
   5514973.64249   4297382.58646         0.00041  21467010.03246  21467010.56349
 97 03 25 02 46 30.0000000  0  7 05 06 10 17 23 26 30
  10464020.84948   8153781.73945         0.00041  23249168.84245  23249168.61148
  -4950362.24049  -3857423.18847         0.00041  20501744.94547  20501745.86049
   5316822.67348   4142980.26646         0.00041  22198010.75046  22198011.53048
  -7944359.02149  -6190402.83646         0.00041  22072706.81246  22072707.22449
  -2316097.17648  -1804748.17644         0.00041  24105205.00244  24105205.36948
  -1859513.76848  -1448968.88744         0.00041  23996405.42744  23996404.82348
   5593153.24949   4358301.75546         0.00041  21481887.01146  21481887.65549
 97 03 25 02 47 00.0000000  0  7 05 06 10 17 23 26 30
  10569571.18148   8236028.75445         0.00041  23269255.17745  23269254.12748
  -4980246.09449  -3880709.29247         0.00041  20496058.19847  20496059.11349
   5391266.43648   4200988.40046         0.00041  22212177.68346  22212177.50348
  -8000597.09749  -6234224.68246         0.00041  22062004.83946  22062005.17249
  -2420108.82248  -1885796.09844         0.00041  24085414.11244  24085412.39148
  -1935683.82448  -1508322.14144         0.00041  23981911.40244  23981910.21348
   5671737.08649   4419535.91146         0.00041  21496840.88446  21496841.45549
 97 03 25 02 47 30.0000000  0  7 05 06 10 17 23 26 30
  10675239.05248   8318367.35345         0.00041  23289362.48945  23289361.47448
  -5009853.67349  -3903780.11647         0.00041  20490424.36247  20490424.92649
   5466112.89248   4259310.31446         0.00041  22226420.24446  22226419.99348
  -8056584.29749  -6277851.04646         0.00041  22051351.17846  22051350.93349
  -2524002.71248  -1966752.28444         0.00041  24065643.20744  24065641.71748
  -2011748.57848  -1567593.30344         0.00041  23967437.23644  23967435.81248
   5750707.44249   4481071.23746         0.00041  21511868.65546  21511868.98049
 97 03 25 02 48 00.0000000  0  7 05 06 10 17 23 26 30
  10781017.83548   8400792.37245         0.00041  23309491.40245  23309491.13748
  -5039160.26149  -3926616.40847         0.00041  20484847.36647  20484847.99849
   5541341.90148   4317930.32446         0.00041  22240735.70846  22240736.00248
  -8112344.11448  -6321300.22546         0.00041  22040740.65746  22040739.70148
  -2627769.64048  -2047609.50745         0.00041  24045898.66245  24045895.45648
  -2087702.07248  -1626777.76244         0.00041  23952983.35044  23952982.80248
   5830061.33449   4542905.42746         0.00041  21526968.95046  21526969.59549
 97 03 25 02 48 30.0000000  0  7 05 06 10 17 23 26 30
  10886893.23348   8483292.67545         0.00041  23329640.38145  23329638.89548
  -5068166.39149  -3949218.57447         0.00041  20479327.71547  20479328.36549
   5616917.15048   4376820.13146         0.00041  22255117.48246  22255117.46848
  -8167901.94848  -6364592.02046         0.00041  22030167.96046  22030167.41848
  -2731437.64848  -2128389.67945         0.00041  24026170.14245  24026168.11548
  -2163555.70148  -1685884.43844         0.00041  23938547.32944  23938548.33448
   5909772.33749   4605017.89446         0.00041  21542137.52846  21542138.22749
 97 03 25 02 49 00.0000000  0  7 05 06 10 17 23 26 30
  10992867.57948   8565870.07545         0.00041  23349804.69645  23349805.15148
  -5096870.99249  -3971585.78347         0.00041  20473865.15447  20473866.02049
   5692834.81548   4435976.76046         0.00041  22269564.13446  22269564.37448
  -8223283.75849  -6407746.65146         0.00041  22019629.12146  22019629.11249
  -2835035.57248  -2209115.24244         0.00041  24006455.64344  24006453.67948
  -2239310.29648  -1744913.95644         0.00041  23924133.16444  23924132.81748
   5989825.99049   4667397.35946         0.00041  21557371.28346  21557372.01649
 97 03 25 02 49 30.0000000  0  7 05 06 10 17 23 26 30
  11098951.78748   8648533.08845         0.00041  23369991.63145  23369991.77848
  -5125239.82049  -3993691.35247         0.00041  20468466.80847  20468467.75549
   5769115.44148   4495416.21746         0.00041  22284079.42246  22284080.39148
  -8278480.60049  -6450757.14646         0.00041  22009125.37146  22009125.83149
  -2938533.22848  -2289762.71744         0.00041  23986761.25744  23986758.54748
  -2314942.01248  -1803847.73844         0.00041  23909741.06344  23909740.52348
   6070248.23149   4730064.02946         0.00041  21572675.22346  21572675.84049
 97 03 25 02 50 00.0000000  0  7 05 06 10 17 23 26 30
  11205162.99048   8731295.04545         0.00041  23390203.63945  23390203.03848
  -5153258.20749  -4015523.85047         0.00041  20463135.12247  20463136.13849
   5845767.15448   4555144.83246         0.00041  22298665.82246  22298666.45148
  -8333460.30949  -6493598.45346         0.00041  21998662.77046  21998663.14549
  -3041910.20948  -2370316.11044         0.00041  23967087.52344  23967086.63248
  -2390424.66548  -1862665.34344         0.00041  23895377.32744  23895376.84148
   6151057.65849   4793032.40146         0.00041  21588052.48546  21588053.65649
 97 03 25 02 50 30.0000000  0  8 05 06 10 17 22 23 26 30
  11311513.34748   8814165.43745         0.00041  23410441.17945  23410441.66048
  -5180938.13949  -4037092.62047         0.00041  20457867.64447  20457868.70449
   5922796.07148   4615167.37046         0.00041  22313323.63946  22313324.25548
  -8388199.93249  -6536252.68146         0.00041  21988246.52746  21988246.32749
        -0.18558         0.19054         0.00051  24911862.46354  24911863.11558
  -3145163.40348  -2450773.06244         0.00041  23947439.09244  23947438.18348
  -2465746.62748  -1921357.75245         0.00041  23881042.80245  23881043.74248
   6232260.04449   4856306.98546         0.00041  21603505.38746  21603505.97749
 97 03 25 02 51 00.0000000  0  8 05 06 10 17 22 23 26 30
  11417991.24548   8897135.23045         0.00041  23430703.61045  23430703.50548
  -5208305.65649  -4058417.95047         0.00041  20452660.14547  20452660.79549
   6000193.92848   4675477.38546         0.00041  22328052.28646  22328052.58348
  -8442713.86849  -6578731.05746         0.00041  21977872.95446  21977872.58949
    -85718.84747         0.00041         0.00041         0.00041  24895550.15047
  -3248291.55048  -2531132.57744         0.00041  23927814.29344  23927813.55648
  -2540910.37248  -1979926.83344         0.00041  23866740.98444  23866740.18148
   6313856.43349   4919888.57646         0.00041  21619032.54146  21619033.35049
 97 03 25 02 51 30.0000000  0  8 05 06 10 17 22 23 26 30
  11524589.03348   8980198.44245         0.00041  23450989.89945  23450988.21248
  -5235380.30149  -4079515.06347         0.00041  20447507.59147  20447508.59449
   6077947.85948   4736064.86246         0.00041  22342848.57046  22342848.87448
  -8496991.17449  -6621025.03146         0.00041  21967544.40246  21967543.72349
   -171144.08048         0.00041         0.00041         0.00041  24879294.92648
  -3351278.18248  -2611381.79944         0.00041  23908217.19344  23908215.90548
  -2615915.91748  -2038372.65644         0.00041  23852464.77444  23852466.80348
   6395846.11149   4983776.63646         0.00041  21634634.49546  21634635.18949
 97 03 25 02 52 00.0000000  0  8 05 06 10 17 22 23 26 30
  11631327.60948   9063371.33145         0.00041  23471301.35045  23471299.96848
  -5262154.80549  -4100378.30347         0.00041  20442412.58947  20442413.67849
   6156076.19548   4796944.09046         0.00041  22357715.67646  22357716.25748
  -8551003.91249  -6663112.85746         0.00041  21957266.00746  21957265.99049
   -256251.72648   -199676.20141         0.00041         0.00041  24863100.13748
  -3454100.78248  -2691503.22844         0.00041  23888650.56244  23888649.05448
  -2690749.67348  -2096684.64544         0.00041  23838225.07344  23838226.49048
   6478242.75749   5047981.80646         0.00041  21650314.22246  21650314.79649
 97 03 25 02 52 30.0000000  0  8 05 06 10 17 22 23 26 30
  11738179.89548   9146632.83845         0.00041  23491633.81245  23491633.39948
  -5288644.02949  -4121019.24447         0.00041  20437372.02847  20437372.96849
   6234573.62248   4858110.91846         0.00041  22372653.68046  22372654.13948
  -8604779.16749  -6705015.63446         0.00041  21947032.73746  21947033.15249
   -341060.72947         0.00041         0.00041         0.00041  24846960.36147
  -3556772.40148  -2771507.02844         0.00041  23869110.39944  23869110.73048
  -2765436.96948  -2154882.49544         0.00041  23824014.39544  23824013.62848
   6561035.48249   5112495.61646         0.00041  21666068.86246  21666069.48049
 97 03 25 02 53 00.0000000  0  8 05 06 10 17 22 23 26 30
  11845133.98848   9229973.70945         0.00041  23511987.57245  23511985.93148
  -5314836.49249  -4141428.94947         0.00041  20432387.85247  20432388.59549
   6313444.66248   4919568.87346         0.00041  22387661.83346  22387662.55948
  -8658329.96249  -6746743.50246         0.00041  21936842.09946  21936842.49749
   -425582.27248         0.00041         0.00041         0.00041  24830876.81248
  -3659288.16348  -2851389.33244         0.00041  23849604.36644  23849602.62648
  -2839985.99948  -2212972.60144         0.00041  23809827.01744  23809828.05248
   6644215.55949   5177311.24846         0.00041  21681897.84446  21681898.16549
 97 03 25 02 53 30.0000000  0  8 05 06 10 17 22 23 26 30
  11952183.79548   9313389.12545         0.00041  23532358.51245  23532356.84548
  -5340707.98349  -4161588.54747         0.00041  20427464.32047  20427465.32349
   6392687.20748   4981316.31646         0.00041  22402741.34546  22402741.96448
  -8711650.55949  -6788292.00046         0.00041  21926695.40046  21926695.62749
   -509810.02648         0.00041         0.00041         0.00041  24814849.56448
  -3761644.27048  -2931147.24944         0.00041  23830125.44844  23830125.28948
  -2914388.50548  -2270948.51244         0.00041  23795671.41744  23795669.49648
   6727778.35149   5242425.10246         0.00041  21697799.24546  21697799.64349
 97 03 25 02 54 00.0000000  0  8 05 06 10 17 22 23 26 30
  12059330.90348   9396880.37645         0.00041  23552746.53045  23552746.28048
  -5366237.23549  -4181481.46647         0.00041  20422606.38047  20422607.29949
   6472302.75348   5043354.40746         0.00041  22417891.41746  22417892.03248
  -8764743.82949  -6829663.35546         0.00041  21916592.70546  21916592.21749
   -593736.02848         0.00041         0.00041         0.00041  24798880.03448
  -3863838.16948  -3010778.77844         0.00041  23810679.38444  23810678.74748
  -2988627.27948  -2328796.86644         0.00041  23781541.44844  23781541.56548
   6811729.89049   5307841.87546         0.00041  21713774.48146  21713775.25249
 97 03 25 02 54 30.0000000  0  7 06 10 17 22 23 26 30
  -5391424.80549  -4201108.13747         0.00041  20417813.57147  20417814.23349
   6552280.05948   5105674.38646         0.00041  22433110.93446  22433111.54648
  -8817612.90349  -6870860.01346         0.00041  21906532.22646  21906531.82749
   -677363.04648   -527814.77244         0.00041  24782963.14544  24782966.37848
  -3965868.40248  -3090282.81944         0.00041  23791263.10544  23791263.02048
  -3062688.29948  -2386506.71544         0.00041  23767450.39944  23767447.94648
   6896066.98549   5373559.08146         0.00041  21729823.78146  21729824.32749
 97 03 25 02 55 00.0000000  0  7 06 10 17 22 23 26 30
  -5416272.92849  -4220470.30447         0.00041  20413085.08747  20413085.62049
   6632598.32348   5168260.04246         0.00041  22448395.64946  22448395.72648
  -8870254.72049  -6911879.59146         0.00041  21896514.75846  21896514.60349
   -760699.29548   -592752.06641         0.00041         0.00041  24767105.86848
  -4067740.78448  -3169663.82644         0.00041  23771877.66244  23771877.02748
  -3136577.63848  -2444082.78144         0.00041  23753388.76944  23753386.67148
   6980766.83049   5439558.94546         0.00041  21745941.30746  21745942.19249
 97 03 25 02 55 30.0000000  0  7 06 10 17 22 23 26 30
  -5440736.03549  -4239532.46347         0.00041  20408429.83947  20408430.43449
   6713301.38748   5231145.54746         0.00041  22463752.31546  22463752.67048
  -8922614.82349  -6952679.65146         0.00041  21886550.65446  21886550.58649
   -843684.13348   -657415.57741         0.00041         0.00041  24751316.68348
  -4169410.30848  -3248886.74545         0.00041  23752531.18245  23752529.22348
  -3210241.03948  -2501482.79244         0.00041  23739370.38944  23739369.65048
   7065876.62749   5505878.25446         0.00041  21762136.98446  21762137.94749
 97 03 25 02 56 00.0000000  0  7 06 10 17 22 23 26 30
  -5464905.28349  -4258365.63547         0.00041  20403830.48447  20403831.34749
   6794312.51248   5294271.10046         0.00041  22479168.08646  22479168.62448
  -8974775.63649  -6993324.42346         0.00041  21876624.42346  21876623.98349
   -926397.11448   -721867.22044         0.00041  24735576.53944  24735576.33548
  -4270955.86448  -3328013.07244         0.00041  23733208.59144  23733205.46748
  -3283759.60248  -2558769.93944         0.00041  23725380.32444  23725380.52848
   7151305.92749   5572446.51746         0.00041  21778393.84546  21778394.75249
 97 03 25 02 56 30.0000000  0  7 06 10 17 22 23 26 30
  -5488726.11549  -4276927.31447         0.00041  20399297.70547  20399298.47149
   6875678.05548   5357672.82746         0.00041  22494651.34546  22494651.94948
  -9026691.66849  -7033778.44746         0.00041  21866745.44846  21866745.03049
  -1008800.33748   -786077.51244         0.00041  24719895.57544  24719894.20148
  -4372336.48148  -3407010.86845         0.00041  23713914.35045  23713914.26048
  -3357093.74548  -2615913.42944         0.00041  23711424.26244  23711424.68748
   7237082.69849   5639285.56046         0.00041  21794716.17746  21794717.51249
 97 03 25 02 57 00.0000000  0  7 06 10 17 22 23 26 30
  -5512188.33449  -4295209.55647         0.00041  20394833.02047  20394833.74949
   6957406.72948   5421357.51146         0.00041  22510204.16646  22510204.53648
  -9078376.16149  -7074052.04846         0.00041  21856909.83046  21856909.72549
  -1090883.08748         0.00041         0.00041         0.00041  24704274.64348
  -4473555.12148  -3485882.47844         0.00041  23694652.55144  23694653.03648
  -3430239.84148  -2672910.36044         0.00041  23697505.90544  23697504.44648
   7323206.64949   5706395.12946         0.00041  21811105.30346  21811106.21349
 97 03 25 02 57 30.0000000  0  7 06 10 17 22 23 26 30
  -5535315.73249  -4313230.90047         0.00041  20390431.61047  20390432.81749
   7039479.21548   5485310.10646         0.00041  22525821.89146  22525822.22348
  -9129861.55149  -7114170.50846         0.00041  21847112.90046  21847112.50849
  -1172659.58748   -913760.01441         0.00041         0.00041  24688712.67948
  -4574635.13648  -3564646.05844         0.00041  23675418.27944  23675417.64248
  -3503193.14648  -2729757.01944         0.00041  23683623.39844  23683622.77348
   7409663.05649   5773763.75646         0.00041  21827557.62246  21827558.42249
 97 03 25 02 58 00.0000000  0  7 06 10 17 22 23 26 30
  -5558119.39449  -4330999.98447         0.00041  20386092.24847  20386093.50849
   7121881.30848   5549519.53046         0.00041  22541501.64246  22541502.59848
  -9181163.93949  -7154146.37346         0.00041  21837350.44046  21837350.03249
  -1254140.99948   -977252.01441         0.00041         0.00041  24673208.82048
  -4675576.86848  -3643301.87745         0.00041  23656210.74945  23656209.22648
  -3575965.74648  -2786462.89745         0.00041  23669775.91845  23669775.47048
   7496429.22349   5841373.74646         0.00041  21844069.06546  21844069.40849
 97 03 25 02 58 30.0000000  0  7 06 10 17 22 23 26 30
  -5580575.46049  -4348498.21147         0.00041  20381819.18947  20381820.29049
   7204623.93348   5613994.30446         0.00041  22557247.33146  22557248.16948
  -9232254.65349  -7193957.30446         0.00041  21827628.35046  21827627.92349
  -1335299.07948         0.00041         0.00041         0.00041  24657763.47848
  -4776348.43448  -3721825.10445         0.00041  23637034.50345  23637032.72548
  -3648542.25048  -2843015.99844         0.00041  23655961.90944  23655964.53148
   7583531.40849   5909245.56746         0.00041  21860643.32246  21860644.44749
 97 03 25 02 59 00.0000000  0  7 06 10 17 22 23 26 30
  -5602702.92649  -4365740.39147         0.00041  20377608.54947  20377609.37849
   7287707.48148   5678734.74046         0.00041  22573058.16146  22573058.51248
  -9283126.47849  -7233597.66446         0.00041  21817947.62646  21817946.95549
  -1416130.65148  -1103477.68244         0.00041  24642378.16144  24642381.28548
  -4876947.58948  -3800213.99245         0.00041  23617890.25745  23617889.50548
  -3720924.79648  -2899417.94244         0.00041  23642188.82244  23642190.29948
   7670981.31049   5977388.34246         0.00041  21877284.74846  21877285.40949
 97 03 25 02 59 30.0000000  0  7 06 10 17 22 23 26 30
  -5624478.14649  -4382708.09847         0.00041  20373465.04947  20373465.68449
   7371143.40248   5743749.74746         0.00041  22588935.19346  22588935.61348
  -9333736.71749  -7273034.19046         0.00041  21808316.49046  21808316.12149
  -1496615.57648  -1166193.18941         0.00041         0.00041  24627066.15448
  -4977340.52748  -3878442.17345         0.00041  23598785.49945  23598784.86148
  -3793101.81748  -2955659.72844         0.00041  23628453.42244  23628455.22148
   7758788.00649   6045809.13146         0.00041  21893993.85646  21893994.40149
 97 03 25 03 00 00.0000000  0  7 06 10 17 22 23 26 30
  -5645908.10549  -4399406.76847         0.00041  20369386.83447  20369387.79149
   7454910.95548   5809023.16046         0.00041  22604876.28146  22604876.12248
  -9384082.39149  -7312264.55846         0.00041  21798735.94246  21798735.85549
  -1576769.79748  -1228650.95244         0.00041  24611813.70244  24611813.19748
  -5077535.09248  -3956515.80445         0.00041  23579720.30645  23579718.34448
  -3865099.71548  -3011761.95944         0.00041  23614754.75444  23614754.39748
   7846932.01349   6114492.76046         0.00041  21910767.12546  21910767.67149
 97 03 25 03 00 30.0000000  0  7 06 10 17 22 23 26 30
  -5666999.75349  -4415841.80947         0.00041  20365373.29247  20365374.17449
   7538986.46248   5874536.55646         0.00041  22620873.89246  22620874.96248
  -9434172.25949  -7351295.59946         0.00041  21789203.93946  21789203.84749
  -1656610.58048  -1290864.54444         0.00041  24596620.45644  24596620.45248
  -5177552.80448  -4034451.61545         0.00041  23560687.45145  23560685.52848
  -3936916.27948  -3067722.88544         0.00041  23601088.73844  23601088.50048
   7935409.47749   6183436.23046         0.00041  21927603.72346  21927604.28849
 97 03 25 03 01 00.0000000  0  7 06 10 17 22 23 26 30
  -5687737.63549  -4432001.18547         0.00041  20361426.81047  20361427.78549
   7623378.70748   5940296.75046         0.00041  22636934.09346  22636934.46748
  -9484011.90649  -7390131.67046         0.00041  21779720.40746  21779719.94149
  -1736127.36548  -1352825.69644         0.00041  24581487.51144  24581489.56448
  -5277386.95448  -4112244.38645         0.00041  23541689.48645  23541687.87348
  -4008518.69948  -3123516.94944         0.00041  23587463.49244  23587462.93748
   8024226.19949   6252644.05746         0.00041  21944505.32046  21944505.79849
 97 03 25 03 01 30.0000000  0  7 06 10 17 22 23 26 30
  -5708105.13549  -4447871.95947         0.00041  20357551.10947  20357551.88549
   7708078.07748   6006296.26746         0.00041  22653051.76046  22653052.10748
  -9533618.54149  -7428786.17646         0.00041  21770280.57746  21770279.94049
  -1815312.11948  -1414528.02444         0.00041  24566419.12344  24566421.43048
  -5377030.30548  -4189888.50045         0.00041  23522727.48945  23522726.77448
  -4079889.05248  -3179130.19544         0.00041  23573881.51644  23573881.41048
   8113372.74649   6322108.90146         0.00041  21961468.99946  21961469.58849
 97 03 25 03 02 00.0000000  0  7 06 10 17 22 23 26 30
  -5728106.59649  -4463457.51247         0.00041  20353744.98747  20353745.48049
   7793081.44248   6072532.64946         0.00041  22669227.88946  22669228.02648
  -9583016.09049  -7467277.75446         0.00041  21760880.12646  21760879.87049
  -1894171.68248  -1475977.03644         0.00041  24551413.89044  24551414.79748
  -5476495.30248  -4267393.62145         0.00041  23503801.75345  23503799.33948
  -4151011.80648  -3234550.47844         0.00041  23560347.57744  23560347.14148
   8202850.79749   6391832.06446         0.00041  21978495.98246  21978496.79349
 97 03 25 03 02 30.0000000  0  7 06 10 17 22 23 26 30
  -5747751.97349  -4478765.58747         0.00041  20350006.65147  20350007.13549
   7878387.94948   6139005.25046         0.00041  22685460.87146  22685461.39148
  -9632229.43049  -7505625.78846         0.00041  21751515.21246  21751514.85649
  -1972702.73448  -1537170.02744         0.00041  24536468.15044  24536470.35348
  -5575786.95748  -4344763.68545         0.00041  23484906.40145  23484905.06748
  -4221880.49348  -3289772.80944         0.00041  23546861.55844  23546861.07248
   8292649.92949   6461805.41946         0.00041  21995584.62546  21995584.98649
 97 03 25 03 03 00.0000000  0  7 06 10 17 22 23 26 30
  -5767064.53149  -4493814.32047         0.00041  20346331.76347  20346332.37949
   7963989.05448   6205707.41146         0.00041  22701750.07846  22701750.95348
  -9681280.00749  -7543846.99746         0.00041  21742180.87146  21742180.95549
  -2050915.98248  -1598115.39144         0.00041  24521586.17644  24521585.79248
  -5674917.14748  -4422007.94145         0.00041  23466042.42245  23466040.89648
  -4292519.82748  -3344816.43045         0.00041  23533417.67745  23533418.99448
   8382747.89949   6532011.63546         0.00041  22012729.63846  22012729.93949
 97 03 25 03 03 30.0000000  0  7 06 10 17 22 23 26 30
  -5786028.23249  -4508591.21247         0.00041  20342722.82647  20342723.80149
   8049904.40748   6272654.43646         0.00041  22718098.45746  22718099.59348
  -9730138.44749  -7581918.48446         0.00041  21732883.75946  21732883.36849
  -2128789.93248  -1658796.31844         0.00041  24506762.36644  24506766.88348
  -5773867.36848  -4499111.94945         0.00041  23447211.27645  23447210.93348
  -4362922.96248  -3399676.00345         0.00041  23520021.43845  23520022.01348
   8473154.40148   6602458.26046         0.00041  22029933.32646  22029933.61448
 97 03 25 03 04 00.0000000  0  7 06 10 17 22 23 26 30
  -5804637.06849  -4523091.58747         0.00041  20339181.63147  20339182.61849
   8136143.59548   6339853.80446         0.00041  22734511.00946  22734510.57648
  -9778779.76249  -7619820.78946         0.00041  21723627.87546  21723627.22049
  -2206309.74548  -1719201.35844         0.00041  24492017.09944  24492016.18748
  -5872621.93148  -4576063.49945         0.00041  23428419.45545  23428418.76248
  -4433084.37948  -3454347.21345         0.00041  23506669.87445  23506670.57248
   8563868.05848   6673144.22746         0.00041  22047196.18246  22047195.97548
 97 03 25 03 04 30.0000000  0  7 06 10 17 22 23 26 30
  -5822904.15049  -4537325.67247         0.00041  20335705.73747  20335706.29549
   8222687.96548   6407290.98646         0.00041  22750979.08946  22750979.07148
  -9827208.51049  -7657557.45846         0.00041  21714412.08746  21714411.27149
  -2283475.74448  -1779330.67444         0.00041  24477331.28544  24477332.05948
  -5971181.57948  -4652863.18645         0.00041  23409663.52745  23409663.31148
  -4503022.09748  -3508844.09845         0.00041  23493362.14145  23493361.65948
   8654879.60348   6744062.31146         0.00041  22064514.40346  22064515.01448
 97 03 25 03 05 00.0000000  0  7 06 10 17 22 23 26 30
  -5840810.42249  -4551278.61447         0.00041  20332298.21647  20332298.89549
   8309532.04348   6474961.68946         0.00041  22767505.26446  22767504.76448
  -9875408.38649  -7695115.78846         0.00041  21705239.37846  21705238.99249
  -2360281.00248  -1839178.88244         0.00041  24462716.09244  24462717.33548
  -6069531.94648  -4729499.76845         0.00041  23390948.86245  23390948.01448
  -4572728.48148  -3563160.74645         0.00041  23480097.15845  23480096.37148
   8746198.83048   6815220.15346         0.00041  22081891.89446  22081892.28248
 97 03 25 03 05 30.0000000  0  7 06 10 17 22 23 26 30
  -5858359.36649  -4564953.11247         0.00041  20328958.75347  20328959.56149
   8396649.45248   6542845.39546         0.00041  22784083.41046  22784082.82448
  -9923383.21249  -7732498.74446         0.00041  21696110.21546  21696110.43049
  -2436744.38748  -1898760.72744         0.00041  24448160.85644  24448166.07948
  -6167689.06048  -4805985.78445         0.00041  23372270.29345  23372269.11948
  -4642212.62548  -3617304.21744         0.00041  23466872.82544  23466874.05048
   8837799.09348   6886596.96946         0.00041  22099322.88946  22099323.43648
 97 03 25 03 06 00.0000000  0  7 06 10 17 22 23 26 30
  -5875555.88049  -4578352.99047         0.00041  20325686.28547  20325687.13549
   8484027.77348   6610932.39746         0.00041  22800710.79446  22800710.44848
  -9971126.93149  -7769701.62046         0.00041  21687024.43946  21687024.92249
  -2512871.13448  -1958080.25444         0.00041  24433680.12544  24433679.56548
  -6265653.34248  -4882321.53045         0.00041  23353628.48645  23353627.02148
  -4711476.18048  -3671275.81944         0.00041  23453691.08844  23453693.25148
   8929684.83549   6958196.24646         0.00041  22116808.08946  22116808.88649
 97 03 25 03 06 30.0000000  0  7 06 10 17 22 23 26 30
  -5892397.80749  -4591476.56547         0.00041  20322481.48547  20322482.26249
   8571670.54348   6679225.46046         0.00041  22817388.06046  22817388.39848
 -10018629.27249  -7806716.41246         0.00041  21677985.76946  21677985.31249
  -2588665.02648  -2017140.40944         0.00041  24419257.21644  24419255.83648
  -6363412.74648  -4958497.62445         0.00041  23335024.72345  23335023.72748
  -4780503.84248  -3725063.58145         0.00041  23440559.01245  23440558.59948
   9021871.21848   7030029.79346         0.00041  22134350.42046  22134351.07948
 97 03 25 03 07 00.0000000  0  7 06 10 17 22 23 26 30
  -5908872.94649  -4604314.33147         0.00041  20319346.18347  20319347.04549
   8659594.03448   6747737.27246         0.00041  22834119.19746  22834119.85848
 -10065870.22849  -7843527.53446         0.00041  21668996.51646  21668995.45249
  -2664121.54248  -2075937.68244         0.00041  24404896.79044  24404896.26048
  -6460956.94148  -5034506.03845         0.00041  23316462.95945  23316462.15548
  -4849285.66948  -3778659.79544         0.00041  23427471.20144  23427470.16048
   9114355.63948   7102095.57746         0.00041  22151949.80546  22151950.25448
 97 03 25 03 07 30.0000000  0  7 06 10 17 22 23 26 30
  -5925000.09149  -4616880.92847         0.00041  20316277.23147  20316278.20349
   8747793.70448   6816464.29046         0.00041  22850902.90946  22850903.94448
 -10112859.50449  -7880142.54346         0.00041  21660054.09446  21660053.96249
  -2739245.60548  -2134475.86644         0.00041  24390600.66944  24390600.98248
  -6558295.28948  -5110354.02745         0.00041  23297940.29445  23297938.97948
  -4917834.71748  -3832074.62045         0.00041  23414426.56145  23414426.06748
   9207123.86748   7174382.48546         0.00041  22169603.40346  22169603.45248
 97 03 25 03 08 00.0000000  0  7 06 10 17 22 23 26 30
  -5940783.46949  -4629179.66247         0.00041  20313273.71747  20313274.80249
   8836279.91448   6885414.59246         0.00041  22867741.36046  22867741.78548
 -10159622.89349  -7916581.52946         0.00041  21651155.10246  21651155.27549
  -2814023.89548  -2192744.65444         0.00041  24376372.16144  24376371.58548
  -6655420.50948  -5186035.97245         0.00041  23279458.18945  23279457.18748
  -4986144.31848  -3885302.87945         0.00041  23401428.08645  23401426.48548
   9300177.17948   7246891.55046         0.00041  22187310.28046  22187310.88048
 97 03 25 03 08 30.0000000  0  7 06 10 17 22 23 26 30
  -5956183.55949  -4641179.73247         0.00041  20310343.27947  20310344.25149
   8925080.89748   6954610.15445         0.00041  22884639.84245  22884640.06448
 -10206160.64449  -7952844.69346         0.00041  21642299.22246  21642299.28049
  -2888426.89948  -2250720.98744         0.00041  24362212.13944  24362214.15548
  -6752316.61348  -5261539.36845         0.00041  23261019.45945  23261017.96548
  -5054184.81648  -3938321.42245         0.00041  23388478.28645  23388478.34248
   9393522.45148   7319628.12246         0.00041  22205073.14246  22205073.95248
 97 03 25 03 09 00.0000000  0  7 06 10 17 22 23 26 30
  -5971183.51249  -4652868.00947         0.00041  20307488.85647  20307489.77649
   9014185.81648   7024042.55946         0.00041  22901596.28746  22901596.18748
 -10252490.29549  -7988945.70146         0.00041  21633482.95646  21633482.81849
  -2962433.97048  -2308388.79444         0.00041  24348130.22544  24348130.84748
  -6848994.07048  -5336872.40845         0.00041  23242622.06745  23242621.10948
  -5121961.10248  -3991134.08245         0.00041  23375581.52345  23375581.18548
   9487160.06348   7392592.49846         0.00041  22222892.13046  22222892.51548
 97 03 25 03 09 30.0000000  0  7 06 10 17 22 23 26 30
  -5985765.84349  -4664230.87147         0.00041  20304713.72747  20304714.93649
   9103589.81248   7093708.00945         0.00041  22918609.10145  22918608.91548
 -10298611.50049  -8024884.28746         0.00041  21624706.64246  21624706.58749
  -3036028.94048  -2365735.51044         0.00041  24334124.61344  24334125.17248
  -6945448.63748  -5412031.76645         0.00041  23224266.44245  23224265.94148
  -5189452.27248  -4043724.58345         0.00041  23362737.98945  23362739.17448
   9581095.77648   7465789.15046         0.00041  22240767.53046  22240767.87948
 97 03 25 03 10 00.0000000  0  7 06 10 17 22 23 26 30
  -5999947.06549  -4675281.17647         0.00041  20302015.08147  20302016.35349
   9193266.13548   7163585.65746         0.00041  22935674.77146  22935674.42148
 -10344544.40949  -8060676.14846         0.00041  21615966.03446  21615965.82349
  -3109239.74048  -2422782.85644         0.00041  24320191.33244  24320193.20648
  -7041700.73648  -5487033.36745         0.00041  23205949.64645  23205949.58948
  -5256673.56048  -4096104.77945         0.00041  23349946.19945  23349947.05948
   9675298.39748   7539193.78546         0.00041  22258693.84146  22258694.19648
 97 03 25 03 10 30.0000000  0  7 06 10 17 22 23 26 30
  -6013734.00049  -4686024.24447         0.00041  20299391.44447  20299392.67449
   9283197.29548   7233661.89545         0.00041  22952786.86645  22952787.23148
 -10390265.01549  -8096302.57546         0.00041  21607265.89346  21607265.57849
  -3182068.32348  -2479532.35244         0.00041  24306332.77544  24306335.22648
  -7137749.61248  -5561876.61145         0.00041  23187671.66845  23187671.55248
  -5323626.72748  -4148276.05445         0.00041  23337206.44545  23337205.64248
   9769773.54948   7612810.77746         0.00041  22276671.90946  22276672.25648
 97 03 25 03 11 00.0000000  0  7 06 10 17 22 23 26 30
  -6027154.67449  -4696481.91047         0.00041  20296837.93747  20296838.78449
   9373361.58848   7303919.78445         0.00041  22969945.19845  22969945.11748
 -10435763.37149  -8131755.82246         0.00041  21598607.56146  21598607.39449
  -3254532.09748  -2535997.59944         0.00041  24292543.51744  24292545.68148
  -7233595.03648  -5636561.30545         0.00041  23169433.84845  23169433.34148
  -5390315.98748  -4200241.69745         0.00041  23324515.18745  23324514.48148
   9864518.39048   7686637.91846         0.00041  22294701.17646  22294701.43248
 97 03 25 03 11 30.0000000  0  7 06 10 17 22 23 26 30
  -6040207.61649  -4706653.02747         0.00041  20294354.09147  20294354.89549
   9463791.81948   7374384.89245         0.00041  22987153.32145  22987153.03448
 -10481006.97749  -8167010.56246         0.00041  21589997.72846  21589997.40249
  -3326630.98848  -2592178.50244         0.00041  24278826.34744  24278825.84948
  -7329211.36848  -5711067.50145         0.00041  23151238.37245  23151238.53248
  -5456721.88848  -4251986.53145         0.00041  23311877.96245  23311878.37348
   9959536.36548   7760677.87946         0.00041  22312782.36446  22312782.93448
 97 03 25 03 12 00.0000000  0  7 06 10 17 22 23 26 30
  -6052916.20049  -4716555.82247         0.00041  20291935.88247  20291936.62049
   9554484.11048   7445054.20245         0.00041  23004411.48445  23004411.80648
 -10526016.93949  -8202083.24546         0.00041  21581432.49746  21581432.68849
  -3398377.25048  -2648084.65844         0.00041  24265172.36244  24265172.65848
  -7424606.46448  -5785401.30145         0.00041  23133085.47645  23133085.19048
  -5522866.25048  -4303527.57145         0.00041  23299292.75945  23299291.10948
  10054821.97748   7834926.40246         0.00041  22330914.57046  22330915.09348
 97 03 25 03 12 30.0000000  0  7 06 10 17 22 23 26 30
  -6065288.96249  -4726196.93647         0.00041  20289581.19647  20289582.17349
   9645421.63848   7515914.62545         0.00041  23021716.14445  23021716.54748
 -10570814.97349  -8236990.78446         0.00041  21572907.79446  21572907.98849
  -3469774.72948  -2703719.03144         0.00041  24251585.43344  24251585.46648
  -7519792.45248  -5859572.16045         0.00041  23114971.68245  23114971.71848
  -5588751.52748  -4354866.71945         0.00041  23286753.05145  23286753.49548
  10150369.10148   7909378.70946         0.00041  22349096.72946  22349096.53148
 97 03 25 03 13 00.0000000  0  7 06 10 17 22 23 26 30
  -6077282.22449  -4735542.34047         0.00041  20287298.75947  20287299.90849
   9736638.45748   7586992.66345         0.00041  23039074.47245  23039074.82348
 -10615389.84949  -8271724.43746         0.00041  21564425.46146  21564425.64249
  -3540803.33348  -2759065.97844         0.00041  24238067.56244  24238070.19148
  -7614744.22148  -5933560.52546         0.00041  23096903.42346  23096903.10148
  -5654347.71348  -4405980.59745         0.00041  23274270.88245  23274270.82648
  10246184.95548   7984040.39946         0.00041  22367330.20446  22367330.14048
 97 03 25 03 13 30.0000000  0  7 06 10 17 22 23 26 30
  -6088884.62249  -4744583.17247         0.00041  20285090.95547  20285092.02149
   9828144.43048   7658296.01845         0.00041  23056487.64045  23056487.87748
 -10659750.36449  -8306291.05846         0.00041  21555983.86546  21555983.74449
  -3611442.54748  -2814109.50944         0.00041  24224625.79944  24224628.45548
  -7709459.39948  -6007364.51646         0.00041  23078879.74346  23078879.62548
  -5719651.07148  -4456866.28445         0.00041  23261844.50745  23261844.40648
  10342265.26148   8058908.15246         0.00041  22385613.69046  22385613.87448
 97 03 25 03 14 00.0000000  0  7 06 10 17 22 23 26 30
  -6100091.17249  -4753315.54747         0.00041  20282958.40047  20282959.50749
   9919914.60348   7729805.24845         0.00041  23073950.59845  23073951.16248
 -10703919.49749  -8340708.55246         0.00041  21547578.50146  21547578.72349
  -3681694.76448  -2868851.46244         0.00041  24211260.01944  24211259.83948
  -7803950.75548  -6080994.10046         0.00041  23060899.55646  23060898.69048
  -5784655.18748  -4507518.80345         0.00041  23249474.17545  23249474.38148
  10438589.21248   8133965.75946         0.00041  22403943.28446  22403943.60148
 97 03 25 03 14 30.0000000  0  7 06 10 17 22 23 26 30
  -6110890.76549  -4761730.81747         0.00041  20280903.33347  20280904.35849
  10011940.71748   7801513.90845         0.00041  23091462.15945  23091462.70948
 -10747887.66249  -8374969.44246         0.00041  21539211.95346  21539212.33249
  -3751558.56448  -2923290.77144         0.00041  24197964.73344  24197964.68648
  -7898222.56848  -6154452.63346         0.00041  23042959.55346  23042959.10648
  -5849341.65848  -4557923.79845         0.00041  23237165.69145  23237164.97048
  10535139.42048   8209199.67446         0.00041  22422316.22246  22422316.70148
 97 03 25 03 15 00.0000000  0  7 06 10 17 22 23 26 30
  -6121271.45349  -4769819.66847         0.00041  20278927.98747  20278929.02449
  10104229.36648   7873427.14745         0.00041  23109024.58145  23109024.56748
 -10791626.80549  -8409051.86946         0.00041  21530888.62546  21530888.80449
  -3821020.79848  -2977417.16044         0.00041  24184745.59344  24184746.22148
  -7992257.28148  -6227726.37846         0.00041  23025065.24246  23025064.20348
  -5913709.34248  -4608080.41845         0.00041  23224916.44545  23224916.79848
  10631924.19848   8284616.36446         0.00041  22440733.49746  22440734.23748
 97 03 25 03 15 30.0000000  0  7 06 10 17 22 23 26 30
  -6131265.43349  -4777607.17947         0.00041  20277026.16647  20277027.17149
  10196745.16748   7945517.37945         0.00041  23126630.07645  23126629.73048
 -10835152.89249  -8442968.28846         0.00041  21522605.96646  21522605.66349
  -3890094.83748  -3031241.06344         0.00041  24171603.03844  24171601.64548
  -8086073.84948  -6300830.15346         0.00041  23007212.84546  23007212.02848
  -5977774.68548  -4658001.43845         0.00041  23212725.89345  23212725.25448
  10728926.68248   8360202.70646         0.00041  22459192.88046  22459193.68048
 97 03 25 03 16 00.0000000  0  7 06 10 17 22 23 26 30
  -6140862.86349  -4785085.68747         0.00041  20275199.96047  20275200.71249
  10289478.77048   8017777.31945         0.00041  23144277.21145  23144276.96048
 -10878467.35949  -8476719.81146         0.00041  21514363.46046  21514363.29849
  -3958787.88548  -3084768.09244         0.00041  24158529.53144  24158528.94848
  -8179669.63448  -6373761.89746         0.00041  22989401.36946  22989401.43048
  -6041530.27848  -4707681.12945         0.00041  23200593.84745  23200592.47648
  10826147.13748   8435958.90246         0.00041  22477693.38246  22477693.99248
 97 03 25 03 16 30.0000000  0  7 06 10 17 22 23 26 30
  -6150056.25249  -4792249.36747         0.00041  20273450.32147  20273451.23449
  10382434.63648   8090210.45645         0.00041  23161964.73945  23161965.84648
 -10921548.21049  -8510289.28846         0.00041  21506165.17946  21506165.62549
  -4027083.82448  -3137985.70044         0.00041  24145532.73844  24145533.31848
  -8273015.50848  -6446498.90146         0.00041  22971638.28846  22971637.97748
  -6104982.64548  -4757124.46945         0.00041  23188517.83845  23188518.33448
  10923616.20048   8511908.81846         0.00041  22496240.61146  22496241.59648
 97 03 25 03 17 00.0000000  0  7 06 10 17 22 23 26 30
  -6158852.05049  -4799103.24247         0.00041  20271776.49547  20271777.52549
  10475602.44748   8162808.74845         0.00041  23179694.29345  23179694.63948
 -10964403.35649  -8543682.89546         0.00041  21498010.28646  21498010.60049
  -4094986.88248  -3190897.13444         0.00041  24132610.06644  24132612.10548
  -8366097.74048  -6519030.47046         0.00041  22953925.94446  22953924.56948
  -6168136.38148  -4806335.15745         0.00041  23176500.91945  23176500.37648
  11021344.17048   8588060.48146         0.00041  22514838.21646  22514838.49948
 97 03 25 03 17 30.0000000  0  7 06 10 17 22 23 26 30
  -6167244.15249  -4805642.55247         0.00041  20270179.70747  20270180.77149
  10568995.55748   8235582.59145         0.00041  23197466.98845  23197466.69348
 -11007053.57949  -8576916.82846         0.00041  21489893.86246  21489894.04949
  -4162491.79548  -3243498.33744         0.00041  24119765.01044  24119766.19648
  -8458908.68248  -6591350.65546         0.00041  22936263.66146  22936263.97548
  -6230973.66548  -4855299.25745         0.00041  23164542.21545  23164543.14448
  11119324.62348   8664408.87346         0.00041  22533483.06946  22533483.37148
 97 03 25 03 18 00.0000000  0  7 06 10 17 22 23 26 30
  -6175206.71549  -4811847.15647         0.00041  20268664.37847  20268665.61049
  10662641.09148   8308553.15145         0.00041  23215287.17445  23215286.80748
 -11049479.83349  -8609976.24146         0.00041  21481820.95546  21481821.37149
  -4229579.31248  -3295774.30444         0.00041  24106997.56544  24106999.12748
  -8551419.96648  -6663437.34946         0.00041  22918659.32946  22918659.64848
  -6293489.81648  -4904013.12845         0.00041  23152646.06345  23152646.65548
  11217575.97948   8740968.34946         0.00041  22552179.75546  22552179.65548
 97 03 25 03 18 30.0000000  0  7 06 10 17 22 23 26 30
  -6182754.23149  -4817728.34647         0.00041  20267227.97247  20267229.32749
  10756534.86948   8381717.12245         0.00041  23233155.24945  23233154.23348
 -11091681.46249  -8642860.61546         0.00041  21473789.92046  21473790.27949
  -4296246.67548  -3347722.89844         0.00041  24094312.91644  24094313.00148
  -8643628.73948  -6735288.30546         0.00041  22901112.30646  22901112.51448
  -6355689.93948  -4952480.71845         0.00041  23140810.10545  23140810.47148
  11316084.12548   8817727.92546         0.00041  22570925.18846  22570925.09248
 97 03 25 03 19 00.0000000  0  7 06 10 17 22 23 26 30
  -6189900.36749  -4823296.77347         0.00041  20265868.13047  20265869.30949
  10850668.84248   8455068.27245         0.00041  23251067.49245  23251066.91048
 -11133677.81149  -8675585.02946         0.00041  21465798.52546  21465798.22649
  -4362506.94148  -3399354.25444         0.00041  24081704.93044  24081705.14648
  -8735569.65748  -6806930.56546         0.00041  22883617.09846  22883617.03748
  -6417576.00148  -5000703.59545         0.00041  23129034.19345  23129034.03448
  11414805.61148   8894653.75246         0.00041  22589710.98346  22589711.33048
 97 03 25 03 19 30.0000000  0  7 06 10 17 22 23 26 30
  -6196668.17549  -4828570.39347         0.00041  20264580.40047  20264581.45549
  10945019.39148   8528588.18445         0.00041  23269020.53445  23269021.28348
 -11175491.92349  -8708167.44146         0.00041  21457841.27546  21457841.12949
  -4428385.51948  -3450688.19544         0.00041  24069169.42344  24069168.63948
  -8827283.54148  -6878395.90746         0.00041  22866163.75546  22866164.09348
  -6479187.38448  -5048712.44345         0.00041  23117309.89845  23117309.85148
  11513697.62548   8971712.45846         0.00041  22608529.76046  22608529.46948
 97 03 25 03 20 00.0000000  0  7 06 10 17 22 23 26 30
  -6203055.71649  -4833547.69847         0.00041  20263365.11447  20263366.07249
  11039579.42748   8602271.33145         0.00041  23287015.21845  23287016.07148
 -11217091.45449  -8740582.64746         0.00041  21449925.17046  21449925.58549
  -4493873.56948  -3501717.83244         0.00041  24056705.17944  24056706.32648
  -8918767.04548  -6949681.72746         0.00041  22848756.03546  22848755.31348
  -6540502.91448  -5096490.76145         0.00041  23105641.85645  23105642.14248
  11612760.45448   9048904.24746         0.00041  22627381.75046  22627380.83548
 97 03 25 03 20 30.0000000  0  7 06 10 17 22 23 26 30
  -6209040.96249  -4838211.52847         0.00041  20262226.08047  20262227.03749
  11134358.47948   8676125.12445         0.00041  23305050.79545  23305051.96448
 -11258455.05849  -8772814.01346         0.00041  21442053.84646  21442054.22249
  -4558946.39448  -3552423.90744         0.00041  24044323.56544  24044323.93448
  -9010010.20348  -7020780.26946         0.00041  22831393.29246  22831392.69848
  -6601473.65148  -5144000.38345         0.00041  23094039.01445  23094039.78448
  11712016.76748   9126246.82746         0.00041  22646269.01946  22646269.23448
 97 03 25 03 21 00.0000000  0  7 06 10 17 22 23 26 30
  -6214603.86049  -4842546.26147         0.00041  20261167.43947  20261168.27049
  11229370.18148   8750160.20945         0.00041  23323130.99145  23323132.48748
 -11299566.06849  -8804848.55546         0.00041  21434230.65146  21434230.94849
  -4623597.06548  -3602801.02244         0.00041  24032021.28744  24032020.32748
  -9101006.85348  -7091686.72346         0.00041  22814076.47246  22814076.05648
  -6662081.96348  -5191227.62645         0.00041  23082503.88845  23082506.02248
  11811493.24248   9203760.96046         0.00041  22665198.47646  22665198.64748
 97 03 25 03 21 30.0000000  0  7 06 10 17 22 23 26 30
  -6219749.36549  -4846555.75047         0.00041  20260188.43847  20260189.11949
  11324605.96848   8824369.89145         0.00041  23341254.70145  23341254.92448
 -11340436.79049  -8836695.86146         0.00041  21426453.27746  21426453.43849
  -4687816.76148  -3652842.33944         0.00041  24019799.39044  24019799.50948
  -9191753.32348  -7162398.22146         0.00041  22796807.80346  22796807.06448
  -6722320.97248  -5238167.09545         0.00041  23071041.73245  23071041.84148
  11911203.42448   9281457.19146         0.00041  22684172.68646  22684172.59748
 97 03 25 03 22 00.0000000  0  7 06 10 17 22 23 26 30
  -6224483.45649  -4850244.65547         0.00041  20259287.61747  20259288.31649
  11420053.39248   8898744.49645         0.00041  23359417.13145  23359417.84948
 -11381071.26549  -8868359.07946         0.00041  21418720.95346  21418721.04349
  -4751594.21148  -3702539.05044         0.00041  24007663.54044  24007663.23148
  -9282237.04948  -7232904.99946         0.00041  22779589.13046  22779588.65548
  -6782172.48148  -5284804.60545         0.00041  23059652.50845  23059653.22348
  12011140.74848   9359330.40646         0.00041  22703189.30846  22703190.43048
 97 03 25 03 22 30.0000000  0  7 06 10 17 22 23 26 30
  -6228808.30849  -4853614.66947         0.00041  20258464.41347  20258465.53349
  11515704.58248   8973277.88245         0.00041  23377620.16845  23377619.47648
 -11421495.57149  -8899858.52746         0.00041  21411028.22746  21411028.51449
  -4814936.63748  -3751896.75844         0.00041  23995609.43744  23995609.59948
  -9372462.71348  -7303210.68946         0.00041  22762420.67246  22762419.33748
  -6841666.76348  -5331163.76145         0.00041  23048331.60945  23048331.87648
  12111308.88548   9437383.48646         0.00041  22722251.60646  22722251.62248
 97 03 25 03 23 00.0000000  0  7 06 10 17 22 23 26 30
  -6232745.68449  -4856682.75947         0.00041  20257715.26247  20257716.45849
  11611547.09148   9047960.35445         0.00041  23395856.81245  23395857.23648
 -11461736.03149  -8931214.71646         0.00041  21403370.50346  21403370.85949
  -4877852.63948  -3800922.17844         0.00041  23983636.29844  23983638.15448
  -9462424.97348  -7373311.12946         0.00041  22745300.61446  22745300.41948
  -6900833.73248  -5377267.88445         0.00041  23037073.93045  23037072.74948
  12211680.69048   9515595.25946         0.00041  22741351.05646  22741352.00948
 97 03 25 03 23 30.0000000  0  7 06 10 17 22 23 26 30
  -6236275.52949  -4859433.29147         0.00041  20257043.53647  20257044.61249
  11707584.45748   9122794.65545         0.00041  23414133.35745  23414132.96948
 -11501770.34349  -8962410.27746         0.00041  21395752.33246  21395752.58049
  -4940313.09648  -3849592.65544         0.00041  23971750.51744  23971752.31448
  -9552091.40448  -7443181.05446         0.00041  22728237.82346  22728237.51548
  -6959656.80848  -5423104.01445         0.00041  23025878.93645  23025878.50548
  12312254.24748   9593964.26446         0.00041  22760489.98246  22760490.28748
 97 03 25 03 24 00.0000000  0  7 06 10 17 22 23 26 30
  -6239407.03949  -4861873.43447         0.00041  20256447.83547  20256448.52549
  11803797.56148   9197765.91245         0.00041  23432440.29045  23432441.75148
 -11541604.75749  -8993450.07346         0.00041  21388172.64346  21388172.20249
  -5002357.37248  -3897938.81744         0.00041  23959944.63944  23959945.02848
  -9641468.93348  -7512825.86246         0.00041  22711229.80546  22711229.60948
  -7018160.23348  -5468691.06545         0.00041  23014747.33545  23014745.56248
  12413003.50248   9672470.16746         0.00041  22779661.90446  22779662.37548
 97 03 25 03 24 30.0000000  0  7 06 10 17 22 23 26 30
  -6242139.30349  -4864002.47347         0.00041  20255927.83447  20255928.47449
  11900190.71048   9272877.44045         0.00041  23450785.40445  23450785.19548
 -11581245.06449  -9024338.61746         0.00041  21380628.94546  21380629.17849
  -5064002.24848  -3945973.76444         0.00041  23948213.70344  23948213.40148
  -9730568.01448  -7582253.70546         0.00041  22694274.93046  22694275.20948
  -7076356.91348  -5514039.12445         0.00041  23003671.70945  23003671.21848
  12513931.98148   9751115.72046         0.00041  22798868.16346  22798868.61548
 97 03 25 03 25 00.0000000  0  7 06 10 17 22 23 26 30
  -6244477.83849  -4865824.71247         0.00041  20255482.88947  20255483.50949
  11996740.41048   9348110.96645         0.00041  23469157.18645  23469158.30848
 -11620690.87249  -9055075.59946         0.00041  21373122.23746  21373123.06949
  -5125259.50948  -3993706.67444         0.00041  23936556.92044  23936556.81648
  -9819397.66548  -7651471.58146         0.00041  22677370.52546  22677371.11748
  -7134240.45248  -5559143.15545         0.00041  22992656.52145  22992656.83248
  12615013.53148   9829880.54446         0.00041  22818103.43346  22818103.98748
 97 03 25 03 25 30.0000000  0  7 06 10 17 22 23 26 30
  -6246394.26349  -4867318.04047         0.00041  20255117.99647  20255118.83449
  12093461.46448   9423478.01545         0.00041  23487564.16645  23487563.65348
 -11659919.23449  -9085643.14446         0.00041  21365658.01146  21365657.77149
  -5186123.75048  -4041133.31744         0.00041  23924974.38744  23924975.15148
  -9907964.93148  -7720485.01246         0.00041  22660517.30646  22660517.12248
  -7191771.74548  -5603972.72345         0.00041  22981708.03245  22981709.43248
  12716256.86348   9908771.44546         0.00041  22837369.01746  22837370.00548
 97 03 25 03 26 00.0000000  0  7 06 10 17 22 23 26 30
  -6247872.85149  -4868470.19247         0.00041  20254836.73147  20254837.55649
  12190374.37348   9498994.58445         0.00041  23506005.08745  23506004.87448
 -11698929.26349  -9116040.56246         0.00041  21358234.76346  21358234.32749
  -5246583.97248  -4088245.15944         0.00041  23913469.17244  23913470.30048
  -9996260.91948  -7789287.05746         0.00041  22643714.90046  22643714.45148
  -7248922.41248  -5648505.67045         0.00041  22970832.95445  22970834.18348
  12817684.57248   9987806.02946         0.00041  22856669.13546  22856671.38248
 97 03 25 03 26 30.0000000  0  7 06 10 17 22 23 26 30
  -6248921.58049  -4869287.38247         0.00041  20254637.28647  20254638.15049
  12287474.59348   9574657.09445         0.00041  23524481.78545  23524482.05848
 -11737733.50749  -9146277.62846         0.00041  21350850.37146  21350850.37749
  -5306623.11348  -4135028.91144         0.00041  23902044.93044  23902045.24748
 -10084298.12448  -7857887.46046         0.00041  22626962.40946  22626962.03048
  -7305693.45848  -5692742.82245         0.00041  22960029.53945  22960030.57548
  12919281.34748  10066972.34746         0.00041  22876003.36246  22876004.00148
 97 03 25 03 27 00.0000000  0  7 06 10 17 22 23 26 30
  -6249464.39049  -4869710.35547         0.00041  20254534.04647  20254534.74249
  12384835.33648   9650522.61045         0.00041  23543009.12645  23543009.56848
 -11776253.65349  -9176293.31946         0.00041  21343519.90546  21343520.29649
  -5366159.19248  -4181420.62244         0.00041  23890715.78144  23890715.82348
 -10172000.01848  -7926226.57946         0.00041  22610273.05946  22610272.78548
  -7361995.81048  -5736614.76145         0.00041  22949315.18945  22949316.33348
  13021104.72048  10146315.20846         0.00041  22895379.02446  22895380.38848
 97 03 25 03 27 30.0000000  0  7 06 10 17 22 23 26 30
  -6249539.88749  -4869769.18647         0.00041  20254519.58347  20254520.23149
  12482436.86748   9726575.74445         0.00041  23561582.62445  23561582.94748
 -11814535.07949  -9206122.99346         0.00041  21336235.08446  21336235.16349
  -5425217.52348  -4227440.07844         0.00041  23879476.00544  23879477.04548
 -10259397.96548  -7994328.85946         0.00041  22593641.93746  22593641.38948
  -7417864.63548  -5780148.88345         0.00041  22938683.34545  22938685.07848
  13123113.08648  10225802.23446         0.00041  22914790.90646  22914791.90748
 97 03 25 03 28 00.0000000  0  7 06 10 17 22 23 26 30
  -6249343.24849  -4869615.96747         0.00041  20254557.05947  20254557.59649
  12580093.02148   9802671.45445         0.00041  23580165.75045  23580166.14848
 -11852758.52849  -9235907.49046         0.00041  21328961.73546  21328961.69849
  -5483974.27348  -4273224.51344         0.00041  23868295.42544  23868295.94448
 -10346667.39948  -8062330.98646         0.00041  22577035.21946  22577034.50248
  -7473504.33948  -5823504.47145         0.00041  22928096.14245  22928097.12148
  13225113.55648  10305283.10546         0.00041  22934200.58246  22934202.03248
 97 03 25 03 28 30.0000000  0  7 06 10 17 22 23 26 30
  -6248744.96349  -4869149.79147         0.00041  20254670.92747  20254671.48049
  12677922.88648   9878902.51145         0.00041  23598782.00045  23598782.39948
 -11890788.27149  -9265541.04746         0.00041  21321725.08946  21321724.97149
  -5542301.40748  -4318674.21144         0.00041  23857197.02344  23857196.58648
 -10433683.59548  -8130135.78846         0.00041  22560476.88546  22560475.81848
  -7528798.97348  -5866591.17045         0.00041  22917575.03745  22917574.59448
  13327222.32548  10384848.36546         0.00041  22953631.66446  22953632.76448
 97 03 25 03 29 00.0000000  0  7 06 10 17 22 23 26 30
  -6247630.26849  -4868281.22147         0.00041  20254883.17047  20254883.67449
  12776029.46748   9955349.17745         0.00041  23617449.88145  23617451.01348
 -11928509.17349  -9294933.95146         0.00041  21314546.50446  21314546.88349
  -5600092.36248  -4363706.10745         0.00041  23846200.22945  23846199.21648
 -10520326.62648  -8197649.81446         0.00041  22543988.42446  22543988.25048
  -7583627.96248  -5909315.04645         0.00041  22907140.27445  22907141.20548
  13429565.89648  10464596.59946         0.00041  22973107.42446  22973107.84148
 97 03 25 03 29 30.0000000  0  7 06 10 17 22 23 26 30
  -6246067.36549  -4867063.38847         0.00041  20255180.47747  20255181.16849
  12874330.89948  10031947.70345         0.00041  23636159.01245  23636156.69948
 -11966005.95449  -9324152.21346         0.00041  21307411.02346  21307411.50649
  -5657411.68048  -4408370.48344         0.00041  23835291.43644  23835292.04848
 -10606667.11348  -8264928.08846         0.00041  22527558.78446  22527558.28248
  -7638067.63848  -5951735.53845         0.00041  22896780.97745  22896781.36648
  13532087.56548  10544483.60546         0.00041  22992617.24046  22992617.18948
 97 03 25 03 30 00.0000000  0  7 06 10 17 22 23 26 30
  -6244060.43849  -4865499.55347         0.00041  20255562.19747  20255562.89149
  12972805.86648  10108681.43344         0.00041  23654897.63944  23654895.83648
 -12003274.74049  -9353192.81246         0.00041  21300319.02646  21300319.60549
  -5714269.83448  -4452675.50644         0.00041  23824471.21044  23824471.53048
 -10692704.30548  -8331970.02946         0.00041  22511186.39346  22511186.26048
  -7692124.20648  -5993857.52245         0.00041  22886494.54545  22886494.18448
  13634792.85148  10624513.69446         0.00041  23012160.99646  23012161.27148
 97 03 25 03 30 30.0000000  0  7 06 10 17 22 23 26 30
  -6241609.28549  -4863589.56347         0.00041  20256028.46847  20256029.52449
  13071426.26648  10185528.47845         0.00041  23673664.39745  23673662.97048
 -12040337.63949  -9382072.98146         0.00041  21293266.29046  21293266.76149
  -5770675.89048  -4496628.23745         0.00041  23813738.82945  23813738.57548
 -10778432.35148  -8398771.08146         0.00041  22494871.98146  22494872.71748
  -7745803.24748  -6035685.32145         0.00041  22876279.57345  22876279.25448
  13737681.72848  10704686.83745         0.00041  23031740.48145  23031739.86548
 97 03 25 03 31 00.0000000  0  7 06 10 17 22 23 26 30
  -6238729.98649  -4861345.95847         0.00041  20256576.27747  20256577.53749
  13170177.13648  10262477.20745         0.00041  23692454.76445  23692454.56848
 -12077213.43149  -9410807.35746         0.00041  21286249.30946  21286249.24349
  -5826638.77348  -4540235.66445         0.00041  23803089.32445  23803089.36648
 -10863860.02048  -8465338.07646         0.00041  22478616.41346  22478616.39048
  -7799100.76648  -6077215.83345         0.00041  22866136.91145  22866137.31348
  13840745.27548  10784996.07745         0.00041  23051352.71745  23051352.57048
 97 03 25 03 31 30.0000000  0  7 06 10 17 22 23 26 30
  -6235416.50849  -4858764.03247         0.00041  20257206.77447  20257208.01849
  13269066.12848  10339533.57545         0.00041  23711272.34945  23711272.53948
 -12113884.10849  -9439381.90546         0.00041  21279270.85746  21279270.95349
  -5882139.93148  -4583483.31045         0.00041  23792526.47845  23792527.19548
 -10948973.23248  -8531660.04146         0.00041  22462419.64446  22462419.50048
  -7852007.12648  -6118441.57245         0.00041  22856069.28845  22856069.72048
  13943973.37448  10865433.54145         0.00041  23070995.79645  23070996.09048
 97 03 25 03 32 00.0000000  0  6 06 17 22 23 26 30
  -6231670.35049  -4855844.95947         0.00041  20257919.74847  20257920.87149
 -12150331.32949  -9467782.32046         0.00041  21272335.13546  21272335.74949
  -5937188.42948  -4626378.24245         0.00041  23782051.33945  23782051.54548
 -11033766.96548  -8597733.05046         0.00041  22446284.43446  22446283.52948
  -7904514.65148  -6159356.49545         0.00041  22846078.10945  22846078.41048
  14047355.91448  10945991.34045         0.00041  23090668.77145  23090669.05648
 97 03 25 03 32 30.0000000  0  6 06 17 22 23 26 30
  -6227507.92449  -4852601.52547         0.00041  20258712.04547  20258712.81049
 -12186583.59649  -9496030.82646         0.00041  21265436.80946  21265436.87849
  -5991806.66748  -4668937.89345         0.00041  23771657.62045  23771658.09248
 -11118267.21248  -8663577.36746         0.00041  22430204.51846  22430203.93848
  -7956625.27948  -6199962.16545         0.00041  22836161.20245  22836162.20548
  14150873.66648  11026654.51245         0.00041  23110368.22945  23110367.42248
 97 03 25 03 33 00.0000000  0  6 06 17 22 23 26 30
  -6222927.61849  -4849032.46847         0.00041  20259583.76047  20259584.41249
 -12222620.24649  -9524111.32346         0.00041  21258579.23146  21258579.03249
  -6045990.00948  -4711158.65845         0.00041  23761348.16645  23761347.61748
 -11202478.47648  -8729196.51446         0.00041  22414179.44946  22414178.92748
  -8008311.77348  -6240237.33745         0.00041  22826325.29645  22826326.05548
  14254540.66748  11107433.98245         0.00041  23130094.93945  23130095.00548
 97 03 25 03 33 30.0000000  0  6 06 17 22 23 26 30
  -6217931.43549  -4845139.34247         0.00041  20260534.36047  20260535.35549
 -12258454.70449  -9552034.26646         0.00041  21251760.10946  21251760.48149
  -6099753.96548  -4753052.64745         0.00041  23751115.57945  23751116.65148
 -11286414.04048  -8794600.82346         0.00041  22398207.28046  22398206.64148
  -8059603.31348  -6280204.74945         0.00041  22816564.22145  22816565.57248
  14358327.30048  11188306.65145         0.00041  23149844.61545  23149844.35648
 97 03 25 03 34 00.0000000  0  6 06 17 22 23 26 30
  -6212489.96349  -4840899.23547         0.00041  20261569.83247  20261571.00249
 -12294084.98549  -9579798.10846         0.00041  21244979.87246  21244980.15049
  -6153084.29548  -4794608.74745         0.00041  23740966.88045  23740968.12348
 -11370058.70448  -8859778.46846         0.00041  22382289.75046  22382289.92448
  -8110484.22148  -6319852.18245         0.00041  22806883.19445  22806882.94748
  14462264.14648  11269296.38745         0.00041  23169623.85445  23169623.51848
 97 03 25 03 34 30.0000000  0  6 06 17 22 23 26 30
  -6206612.90649  -4836319.70547         0.00041  20262688.05647  20262689.34149
 -12329531.91049  -9607419.08046         0.00041  21238234.39546  21238234.55949
  -6205972.29948  -4835820.16845         0.00041  23730904.92545  23730904.06048
 -11453415.44048  -8924731.75146         0.00041  22366427.60046  22366427.48648
  -8160973.44448  -6359194.41245         0.00041  22797275.71945  22797275.47248
  14566337.94048  11350392.84045         0.00041  23189428.41445  23189428.51748
 97 03 25 03 35 00.0000000  0  6 06 17 22 23 26 30
  -6200284.07349  -4831388.14147         0.00041  20263892.53347  20263893.61049
 -12364770.30049  -9634877.55946         0.00041  21231528.99446  21231528.94149
  -6258386.78748  -4876662.61845         0.00041  23720929.38845  23720930.19248
 -11536468.68748  -8989448.54946         0.00041  22350622.87046  22350622.59048
  -8211070.21448  -6398230.84246         0.00041  22787742.73046  22787742.12548
  14670531.87448  11431582.88845         0.00041  23209255.58445  23209255.38148
 97 03 25 03 35 30.0000000  0  6 06 17 22 23 26 30
  -6193490.88049  -4826094.74347         0.00041  20265185.33147  20265186.33549
 -12399802.46049  -9662175.33146         0.00041  21224862.81046  21224862.62349
  -6310307.24848  -4917120.11045         0.00041  23711049.85545  23711050.15848
 -11619192.80948  -9053908.88246         0.00041  22334881.08146  22334880.80948
  -8260778.80148  -6436964.78646         0.00041  22778282.60646  22778283.21648
  14774830.65848  11512854.67545         0.00041  23229102.50545  23229103.14848
 97 03 25 03 36 00.0000000  0  6 06 17 22 23 26 30
  -6186238.08149  -4820443.21047         0.00041  20266565.67547  20266566.41449
 -12434624.42649  -9689309.31846         0.00041  21218236.02046  21218235.95349
  -6361723.64848  -4957184.83245         0.00041  23701264.90345  23701265.88448
 -11701571.99648  -9118100.43946         0.00041  22319205.23346  22319204.45548
  -8310070.44748  -6475373.84845         0.00041  22768903.33345  22768902.87848
  14879244.23348  11594215.91245         0.00041  23248973.68845  23248972.45248
 97 03 25 03 36 30.0000000  0  6 06 17 22 23 26 30
  -6178518.36449  -4814427.84647         0.00041  20268034.65047  20268035.48149
 -12469214.14749  -9716262.33746         0.00041  21211653.65346  21211654.13449
  -6412635.85348  -4996856.68545         0.00041  23691577.36945  23691577.56048
 -11783598.61148  -9182017.25946         0.00041  22303595.75346  22303595.16548
  -8358916.76548  -6513435.88846         0.00041  22759606.97946  22759607.94648
  14983753.15648  11675651.41945         0.00041  23268859.94945  23268860.09448
 97 03 25 03 37 00.0000000  0  6 06 17 22 23 26 30
  -6170332.29849  -4808049.09347         0.00041  20269592.38147  20269593.15049
 -12503583.85249  -9743043.91546         0.00041  21205113.33546  21205113.42249
  -6463061.84848  -5036149.64645         0.00041  23681982.63445  23681981.93448
 -11865285.56048  -9245669.41446         0.00041  22288050.76846  22288051.26048
  -8407315.01548  -6551148.78446         0.00041  22750397.02946  22750398.60648
  15088340.56948  11757148.08645         0.00041  23288761.69745  23288762.69048
 97 03 25 03 37 30.0000000  0  6 06 17 22 23 26 30
  -6161704.14149  -4801325.85047         0.00041  20271234.15647  20271234.87449
 -12537757.48049  -9769672.70646         0.00041  21198610.19046  21198610.27349
  -6513026.57248  -5075083.17945         0.00041  23672473.01545  23672473.75848
 -11946640.19248  -9309062.61446         0.00041  22272569.94246  22272569.99048
  -8455269.67648  -6588516.02545         0.00041  22741272.67945  22741273.16148
  15193019.03548  11838715.73345         0.00041  23308681.32745  23308682.83248
 97 03 25 03 38 00.0000000  0  6 06 17 22 23 26 30
  -6152625.84749  -4794251.85247         0.00041  20272961.71847  20272962.42749
 -12571722.48149  -9796138.93146         0.00041  21192147.17046  21192147.51149
  -6562536.62648  -5113662.42345         0.00041  23663050.62545  23663051.43548
 -12027678.08348  -9372208.99946         0.00041  22257148.92446  22257148.90548
  -8502761.60248  -6625522.71845         0.00041  22732233.87445  22732235.72148
  15297801.57648  11920364.47645         0.00041  23328621.50345  23328622.05248
 97 03 25 03 38 30.0000000  0  6 06 17 22 23 26 30
  -6143089.58649  -4786821.01347         0.00041  20274776.18347  20274777.26849
 -12605468.05549  -9822434.17646         0.00041  21185725.74746  21185725.68849
  -6611580.55948  -5151878.48645         0.00041  23653718.15345  23653719.27148
 -12108408.89748  -9435116.11446         0.00041  22241785.73246  22241786.13148
  -8549802.87448  -6662178.22045         0.00041  22723282.96245  22723283.74748
  15402697.00448  12002101.16245         0.00041  23348582.66045  23348583.08748
 97 03 25 03 39 00.0000000  0  6 06 17 22 23 26 30
  -6133116.01349  -4779049.41047         0.00041  20276674.33947  20276675.27949
 -12639005.32849  -9848567.11246         0.00041  21179343.39946  21179343.94949
  -6660151.50148  -5189725.94845         0.00041  23644475.49645  23644477.38548
 -12188829.98848  -9497781.88246         0.00041  22226482.54946  22226482.25048
  -8596409.59848  -6698495.11745         0.00041  22714413.64145  22714414.56348
  15507713.50648  12083932.19645         0.00041  23368566.37345  23368567.06648
 97 03 25 03 39 30.0000000  0  6 06 17 22 23 26 30
  -6122712.26649  -4770942.60147         0.00041  20278654.07147  20278655.02049
 -12672333.20249  -9874536.87046         0.00041  21173001.50746  21173001.98449
  -6708253.33948  -5227207.87945         0.00041  23635322.20745  23635323.89448
 -12268946.04148  -9560209.95646         0.00041  22211236.65146  22211236.51448
  -8642577.00148  -6734469.68145         0.00041  22705628.50145  22705629.30748
  15612855.27748  12165860.81245         0.00041  23388574.22545  23388575.29948
 97 03 25 03 40 00.0000000  0  6 06 17 22 23 26 30
  -6111871.07649  -4762494.93047         0.00041  20280716.97547  20280717.95149
 -12705462.71749  -9900352.06346         0.00041  21166697.15046  21166697.38549
  -6755899.77848  -5264334.96745         0.00041  23626257.62545  23626256.09148
 -12348770.24848  -9622410.62546         0.00041  22196047.12546  22196046.53248
  -8688317.75148  -6770111.82245         0.00041  22696925.18645  22696925.18848
  15718087.01748  12247859.55745         0.00041  23408597.80445  23408600.03548
 97 03 25 03 40 30.0000000  0  6 06 17 22 23 26 30
  -6100594.38749  -4753707.91247         0.00041  20282862.85447  20282863.77849
 -12738396.02949  -9926014.37946         0.00041  21160430.24046  21160430.54049
  -6803074.95548  -5301094.84345         0.00041  23617277.87045  23617278.57748
 -12428271.84548  -9684359.89946         0.00041  22180918.23146  22180917.83048
  -8733632.67348  -6805422.12945         0.00041  22688301.38645  22688302.13348
  15823408.05148  12329927.86845         0.00041  23428641.17345  23428641.54148
 97 03 25 03 41 00.0000000  0  6 06 17 22 23 26 30
  -6088896.66849  -4744592.81847         0.00041  20285088.82447  20285089.81549
 -12771162.59049  -9951546.75646         0.00041  21154194.81546  21154195.20549
  -6849810.78848  -5337512.35045         0.00041  23608386.21245  23608385.87248
 -12507453.01748  -9746059.49746         0.00041  22165850.43046  22165850.06248
  -8778532.61648  -6840409.08945         0.00041  22679757.29745  22679757.89648
  15928799.27248  12412050.85445         0.00041  23448696.40945  23448696.05148
 97 03 25 03 41 30.0000000  0  6 06 17 22 23 26 30
  -6076760.09349  -4735135.76247         0.00041  20287398.33447  20287399.42549
 -12803748.74249  -9976938.54646         0.00041  21147993.68846  21147994.13549
  -6896104.91648  -5373585.71545         0.00041  23599576.13245  23599576.84448
 -12586308.37548  -9807505.21146         0.00041  22150844.66746  22150844.32448
  -8823014.43948  -6875070.23145         0.00041  22671292.68945  22671293.20348
  16034266.99948  12494233.47045         0.00041  23468765.63945  23468766.46048
 97 03 25 03 42 00.0000000  0  6 06 17 22 23 26 30
  -6064175.53249  -4725329.62247         0.00041  20289793.16847  20289794.34449
 -12836131.34549 -10002171.73746         0.00041  21141831.49146  21141831.81449
  -6941931.73048  -5409294.88245         0.00041  23590853.97545  23590855.83048
 -12664807.21648  -9868673.11746         0.00041  22135906.41146  22135906.78448
  -8867068.81148  -6909398.30545         0.00041  22662909.07145  22662910.17748
  16139820.61748  12576483.03745         0.00041  23488851.08245  23488851.82748
 97 03 25 03 42 30.0000000  0  7 06 17 21 22 23 26 30
  -6051134.52649  -4715167.80347         0.00041  20292274.70247  20292275.91049
 -12868289.79749 -10027230.26846         0.00041  21135712.88646  21135712.70649
        -0.20357         0.00051         0.00051         0.00051  25188181.07157
  -6987266.52348  -5444620.68345         0.00041  23582229.12945  23582228.48648
 -12742929.25848  -9929547.41446         0.00041  22121040.31546  22121040.65248
  -8910671.48548  -6943374.40245         0.00041  22654611.97245  22654612.57748
  16245488.81948  12658821.87845         0.00041  23508960.39745  23508959.84648
 97 03 25 03 43 00.0000000  0  7 06 17 21 22 23 26 30
  -6037631.08749  -4704645.65047         0.00041  20294844.28147  20294845.33749
 -12900218.00949 -10052109.38546         0.00041  21129636.13546  21129636.58049
    -99412.38848         0.00041         0.00041         0.00041  25169262.66848
  -7032111.53548  -5479564.85245         0.00041  23573694.49745  23573694.51748
 -12820693.61848  -9990142.99746         0.00041  22106242.66046  22106242.71148
  -8953816.05148  -6976993.52445         0.00041  22646400.61145  22646402.11748
  16351258.18948  12741239.55445         0.00041  23529086.07645  23529087.56748
 97 03 25 03 43 30.0000000  0  7 06 17 21 22 23 26 30
  -6023664.65749  -4693762.72047         0.00041  20297502.19947  20297502.92249
 -12931909.82749 -10076804.29346         0.00041  21123605.34346  21123605.76849
   -198733.85648         0.00041         0.00041         0.00041  25150361.69448
  -7076450.81548  -5514114.90645         0.00041  23565255.60345  23565256.85848
 -12898112.87748 -10050469.67446         0.00041  22091509.79446  22091510.21548
  -8996497.81348  -7010252.03745         0.00041  22638279.24945  22638279.98348
  16457104.39548  12823717.10745         0.00041  23549229.16245  23549229.98648
 97 03 25 03 44 00.0000000  0  7 06 17 21 22 23 26 30
  -6009248.67149  -4682529.49047         0.00041  20300245.62947  20300246.38149
 -12963406.26249 -10101346.95746         0.00041  21117611.89946  21117612.31949
   -297978.70648         0.00041         0.00041         0.00041  25131475.21748
  -7120293.52148  -5548278.05445         0.00041  23556913.36345  23556914.12948
 -12975214.91148 -10110549.16746         0.00041  22076838.23246  22076838.30148
  -9038739.88948  -7043167.91845         0.00041  22630240.97445  22630241.33248
  16562997.11748  12906230.91745         0.00041  23569380.38845  23569380.77348
 97 03 25 03 44 30.0000000  0  7 06 17 21 22 23 26 30
  -5994338.99249  -4670911.55447         0.00041  20303083.00647  20303083.63249
 -12994681.33149 -10125717.13746         0.00041  21111660.55746  21111661.06249
   -397120.28148   -309444.00841         0.00041         0.00041  25112608.63648
  -7163609.41348  -5582030.67845         0.00041  23548670.74745  23548671.76048
 -13051980.91948 -10170366.81646         0.00041  22062230.66846  22062230.47348
  -9080512.92348  -7075718.30846         0.00041  22622292.35146  22622291.71848
  16668962.56448  12988801.36445         0.00041  23589545.21345  23589544.95248
 97 03 25 03 45 00.0000000  0  7 06 17 21 22 23 26 30
  -5978941.02649  -4658913.14347         0.00041  20306013.05147  20306013.71149
 -13025738.81049 -10149917.76746         0.00041  21105750.27546  21105750.34149
   -496155.52748         0.00041         0.00041         0.00041  25093762.24948
  -7206395.06848  -5615370.14545         0.00041  23540529.50845  23540529.93748
 -13128413.68748 -10229924.80446         0.00041  22047685.52546  22047685.17448
  -9121822.99448  -7107907.96945         0.00041  22614431.65045  22614430.72948
  16774997.21148  13071425.74245         0.00041  23609722.55145  23609722.67548
 97 03 25 03 45 30.0000000  0  7 06 17 21 22 23 26 30
  -5963069.08249  -4646545.40547         0.00041  20309033.27847  20309034.04349
 -13056600.99449 -10173966.21346         0.00041  21099877.74246  21099877.61049
   -595103.06148         0.00041         0.00041         0.00041  25074933.32448
  -7248659.11848  -5648303.17645         0.00041  23532488.09545  23532487.55948
 -13204510.27048 -10289220.82346         0.00041  22033205.04846  22033204.22848
  -9162682.22448  -7139746.30446         0.00041  22606656.18846  22606655.99748
  16881107.65448  13154109.19145         0.00041  23629914.53945  23629914.77748
 97 03 25 03 46 00.0000000  0  7 06 17 21 22 23 26 30
  -5946706.50749  -4633795.36447         0.00041  20312146.96647  20312147.62449
 -13087254.53449 -10197852.07646         0.00041  21094044.48246  21094044.87849
   -693956.23648   -540744.64141         0.00041         0.00041  25056122.27448
  -7290391.67348  -5680822.03645         0.00041  23524545.09445  23524545.57248
 -13280239.34148 -10348230.46446         0.00041  22018793.90146  22018793.53148
  -9203071.27848  -7171218.27246         0.00041  22598970.10846  22598970.21848
  16987325.76048  13236876.53545         0.00041  23650126.21145  23650127.03048
 97 03 25 03 46 30.0000000  0  7 06 17 21 22 23 26 30
  -5929880.04649  -4620683.85147         0.00041  20315348.88747  20315349.68449
 -13117702.04849 -10221577.40546         0.00041  21088250.42946  21088250.78349
   -792742.74548   -617721.05744         0.00041  25037328.58344  25037323.53348
  -7331625.98948  -5712952.67745         0.00041  23516696.88245  23516698.23348
 -13355610.36448 -10406961.11146         0.00041  22004451.64346  22004450.88148
  -9242980.65948  -7202316.47945         0.00041  22591374.89745  22591375.79748
  17093627.24048  13319708.83645         0.00041  23670356.00345  23670355.30448
 97 03 25 03 47 00.0000000  0  7 06 17 21 22 23 26 30
  -5912620.36649  -4607234.76047         0.00041  20318633.12247  20318634.06749
 -13147981.40349 -10245171.70846         0.00041  21082488.39746  21082488.78849
   -891478.85448   -694658.19644         0.00041  25018541.05144  25018534.41848
  -7372391.72948  -5744718.15745         0.00041  23508939.53345  23508940.38848
 -13430652.42548 -10465435.42346         0.00041  21990171.19746  21990170.73148
  -9282425.99448  -7233053.08746         0.00041  22583868.62346  22583870.06148
  17199979.30348  13402580.56745         0.00041  23690595.20745  23690593.99448
 97 03 25 03 47 30.0000000  0  7 06 17 21 22 23 26 30
  -5894906.58649  -4593431.83647         0.00041  20322004.14547  20322004.81149
 -13178098.57549 -10268639.62746         0.00041  21076757.50646  21076757.55849
   -990148.88348   -771543.95744         0.00041  24999759.08544  24999758.11748
  -7412683.13348  -5776114.04945         0.00041  23501275.56145  23501273.88048
 -13505365.19549 -10523653.14346         0.00041  21975953.97946  21975953.90949
  -9321392.12448  -7263416.28646         0.00041  22576453.45246  22576454.63548
  17306366.76248  13485479.87045         0.00041  23710839.28745  23710838.85648
 97 03 25 03 48 00.0000000  0  7 06 17 21 22 23 26 30
  -5876738.58349  -4579274.96547         0.00041  20325461.27547  20325462.11749
 -13208045.25349 -10291974.68946         0.00041  21071058.46946  21071058.66149
  -1088734.27648   -848363.67444         0.00041  24980997.73144  24980998.27248
  -7452510.90448  -5807148.66345         0.00041  23493695.24045  23493694.66648
 -13579759.92849 -10581623.05046         0.00041  21961796.91846  21961796.99049
  -9359874.54848  -7293402.58246         0.00041  22569131.40646  22569131.89048
  17412762.48848  13568385.61945         0.00041  23731084.80345  23731085.15048
 97 03 25 03 48 30.0000000  0  7 06 17 21 22 23 26 30
  -5858103.42849  -4564754.08247         0.00041  20329007.56147  20329008.39949
 -13237797.16149 -10315157.98446         0.00041  21065396.92446  21065397.23149
  -1187189.23848   -925081.82144         0.00041  24962262.17544  24962263.22548
  -7491855.64648  -5837806.89845         0.00041  23486208.03145  23486207.21248
 -13653830.80949 -10639340.60046         0.00041  21947702.12846  21947701.83949
  -9397857.67348  -7322999.79946         0.00041  22561902.90946  22561904.01748
  17519170.97748  13651301.30945         0.00041  23751333.85245  23751334.45648
 97 03 25 03 49 00.0000000  0  7 06 17 21 22 23 26 30
  -5838994.95449  -4549864.37347         0.00041  20332643.73747  20332644.68549
 -13267363.50549 -10338196.69346         0.00041  21059770.97146  21059771.12249
  -1285496.31448  -1001684.69344         0.00041  24943558.69444  24943556.38548
  -7530707.36448  -5868080.95745         0.00041  23478814.52045  23478814.82348
 -13727573.82149 -10696802.66646         0.00041  21933668.75546  21933668.85249
  -9435352.42348  -7352216.47946         0.00041  22554767.11346  22554769.01348
  17625596.48848  13734230.28044         0.00041  23771585.41844  23771586.64848
 97 03 25 03 49 30.0000000  0  7 06 17 21 22 23 26 30
  -5819412.18249  -4534605.08447         0.00041  20336370.20947  20336371.05749
 -13296711.25949 -10361065.06846         0.00041  21054185.96046  21054186.44149
  -1383649.15348  -1078167.40144         0.00041  24924881.27644  24924878.65748
  -7569065.23248  -5897970.19945         0.00041  23471514.80145  23471515.20548
 -13800958.16749 -10753985.25946         0.00041  21919704.11746  21919704.17449
  -9472351.31848  -7381046.77246         0.00041  22547727.17346  22547728.00348
  17732045.06248  13817177.20844         0.00041  23791843.44244  23791842.95548
 97 03 25 03 50 00.0000000  0  7 06 17 21 22 23 26 30
  -5799395.13249  -4519007.39947         0.00041  20340179.41547  20340180.05549
 -13325837.24549 -10383760.62846         0.00041  21048643.55046  21048644.02349
  -1481665.43548  -1154543.67744         0.00041  24906225.06044  24906227.09348
  -7606958.49748  -5927497.40945         0.00041  23464304.07245  23464304.45548
 -13873996.15349 -10810897.95346         0.00041  21905805.68346  21905805.37649
  -9508885.72448  -7409515.11846         0.00041  22540774.92546  22540775.72548
  17838505.33848  13900133.29944         0.00041  23812102.48744  23812101.18048
 97 03 25 03 50 30.0000000  0  7 06 17 21 22 23 26 30
  -5778949.79449  -4503075.97547         0.00041  20344070.21447  20344070.75149
 -13354758.47449 -10406296.64146         0.00041  21043140.04246  21043140.14249
  -1579560.61348  -1230825.64144         0.00041  24887594.84444  24887598.03748
  -7644387.08848  -5956662.54045         0.00041  23457181.43445  23457182.76748
 -13946684.77049 -10867538.41346         0.00041  21891973.31146  21891973.40749
  -9544954.18248  -7437620.39646         0.00041  22533911.55146  22533912.11948
  17944984.04048  13983103.73844         0.00041  23832362.81544  23832363.59648
 97 03 25 03 51 00.0000000  0  7 06 17 21 22 23 26 30
  -5758060.37749  -4486798.51647         0.00041  20348045.36747  20348046.04449
 -13383464.01149 -10428664.58446         0.00041  21037677.38146  21037677.69749
  -1677353.89948  -1307028.15244         0.00041  24868988.95944  24868988.46248
  -7681335.05848  -5985453.16145         0.00041  23450150.24245  23450151.47148
 -14018999.74049 -10923887.72246         0.00041  21878211.83846  21878212.07849
  -9580532.75348  -7465343.92746         0.00041  22527140.72346  22527141.97948
  18051501.95948  14066104.72244         0.00041  23852632.99944  23852633.52248
 97 03 25 03 51 30.0000000  0  7 06 17 21 22 23 26 30
  -5736732.09849  -4470179.08247         0.00041  20352104.11747  20352104.94749
 -13411952.23549 -10450863.19146         0.00041  21032256.38946  21032256.92749
  -1775064.04248  -1383165.91044         0.00041  24850395.44244  24850394.98148
  -7717807.60448  -6013873.31845         0.00041  23443208.58845  23443209.92948
 -14090948.83349 -10979951.93346         0.00041  21864520.85346  21864521.03249
  -9615624.25048  -7492687.94746         0.00041  22520464.17646  22520464.54248
  18158053.86548  14149132.14644         0.00041  23872908.75844  23872909.65548
 97 03 25 03 52 00.0000000  0  7 06 17 21 22 23 26 30
  -5714936.29549  -4453195.34347         0.00041  20356251.44047  20356252.31049
 -13440235.63649 -10472902.19946         0.00041  21026874.32546  21026874.78649
  -1872689.13348  -1459237.39244         0.00041  24831817.00844  24831817.41848
  -7753780.27048  -6041903.95345         0.00041  23436365.95345  23436364.73048
 -14162535.26249 -11035733.55546         0.00041  21850898.30546  21850898.35449
  -9650210.31348  -7519638.10746         0.00041  22513882.09746  22513883.41948
  18264655.78948  14232198.53044         0.00041  23893195.33244  23893195.14348
 97 03 25 03 52 30.0000000  0  7 06 17 21 22 23 26 30
  -5692667.29649  -4435842.89547         0.00041  20360488.93747  20360489.84449
 -13468339.69049 -10494801.45646         0.00041  21021526.07046  21021526.37549
  -1970252.33448  -1535260.65744         0.00041  24813251.13444  24813251.29248
  -7789254.36948  -6069546.12445         0.00041  23429614.64545  23429614.65148
 -14233775.56649 -11091245.47146         0.00041  21837341.41146  21837341.21449
  -9684288.27948  -7546192.35546         0.00041  22507397.59346  22507398.53848
  18371293.79048  14315293.04445         0.00041  23913487.31245  23913487.42848
 97 03 25 03 53 00.0000000  0  7 06 17 21 22 23 26 30
  -5669898.52549  -4418101.01247         0.00041  20364821.96547  20364822.69349
 -13496242.93549 -10516544.23146         0.00041  21016216.23446  21016216.79349
  -2067726.11248  -1611214.19444         0.00041  24794701.66444  24794702.29548
  -7824210.68948  -6096784.80145         0.00041  23422962.85545  23422962.79248
 -14304658.77549 -11146479.12746         0.00041  21823853.48446  21823853.16949
  -9717858.41648  -7572350.87746         0.00041  22501008.91946  22501010.48048
  18477985.13548  14398429.12145         0.00041  23933790.23945  23933789.94848
 97 03 25 03 53 30.0000000  0  7 06 17 21 22 23 26 30
  -5646635.99949  -4399974.38047         0.00041  20369248.64347  20369249.28749
 -13523956.54349 -10538139.23246         0.00041  21010942.68946  21010942.64849
  -2165085.91848  -1687078.96944         0.00041  24776172.50444  24776175.65448
  -7858647.53348  -6123618.70845         0.00041  23416409.34145  23416409.68348
 -14375193.62549 -11201441.32346         0.00041  21810431.08546  21810430.79449
  -9750932.77748  -7598123.08846         0.00041  22494715.54946  22494716.50148
  18584712.29848  14481593.10545         0.00041  23954098.66245  23954099.72248
 97 03 25 03 54 00.0000000  0  7 06 17 21 22 23 26 30
  -5622879.06449  -4381462.49247         0.00041  20373769.25947  20373770.07949
 -13551478.72449 -10559585.08246         0.00041  21005705.52546  21005705.59349
  -2262323.89148  -1762848.82444         0.00041  24757674.12944  24757671.90948
  -7892559.65548  -6150043.73945         0.00041  23409955.32045  23409957.20248
 -14445379.63549 -11256131.70546         0.00041  21797075.25946  21797074.92349
  -9783508.86748  -7623507.03746         0.00041  22488516.21646  22488516.80448
  18691465.90648  14564777.71345         0.00041  23974413.19945  23974414.93448
 97 03 25 03 54 30.0000000  0  7 06 17 21 22 23 26 30
  -5598643.16149  -4362577.38647         0.00041  20378381.23847  20378382.16249
 -13578798.78849 -10580873.43746         0.00041  21000506.28346  21000507.17249
  -2359430.56548  -1838516.34144         0.00041  24739193.12144  24739193.27148
  -7925940.65248  -6176054.90245         0.00041  23403605.26745  23403604.73848
 -14515202.33749 -11310538.98646         0.00041  21783788.20646  21783787.88149
  -9815595.91748  -7648509.91046         0.00041  22482409.39246  22482410.98248
  18798241.05948  14647979.11445         0.00041  23994732.95745  23994733.60148
 97 03 25 03 55 00.0000000  0  7 06 17 21 22 23 26 30
  -5573964.27849  -4343347.11247         0.00041  20383077.77347  20383078.70049
 -13605935.80449 -10602019.15046         0.00041  20995342.08546  20995342.61949
  -2456424.77648  -1914096.23344         0.00041  24720735.28644  24720735.66148
  -7958814.17648  -6201670.63645         0.00041  23397348.68345  23397348.48048
 -14584665.26449 -11364665.92646         0.00041  21770569.90746  21770569.83849
  -9847217.42548  -7673150.02446         0.00041  22476393.19446  22476393.78548
  18904998.84248  14731166.97745         0.00041  24015048.63445  24015048.80348
 97 03 25 03 55 30.0000000  0  7 06 17 21 22 23 26 30
  -5548849.88649  -4323777.47647         0.00041  20387856.93047  20387857.74549
 -13632885.25849 -10623018.72146         0.00041  20990214.07946  20990214.16049
  -2553314.46948  -1989594.66144         0.00041  24702295.28444  24702298.31548
  -7991180.74548  -6226891.35345         0.00041  23391189.49445  23391188.78148
 -14653761.01249 -11418506.74946         0.00041  21757421.07546  21757421.16949
  -9878352.22348  -7697410.90246         0.00041  22470467.74146  22470468.64848
  19011721.83948  14814327.69245         0.00041  24035356.02945  24035357.60448
 97 03 25 03 56 00.0000000  0  7 06 17 21 22 23 26 30
  -5523276.48149  -4303850.16947         0.00041  20392723.37447  20392724.10449
 -13659624.45949 -10643854.45846         0.00041  20985125.67646  20985126.10849
  -2650088.88348  -2065003.25044         0.00041  24683883.36344  24683882.48948
  -8023025.52848  -6251705.46445         0.00041  23385130.02145  23385129.63148
 -14722460.65749 -11472038.92246         0.00041  21744347.57946  21744348.03249
  -9908971.77048  -7721270.27346         0.00041  22464641.18346  22464642.74548
  19118430.85248  14897477.56145         0.00041  24055663.16545  24055663.80748
 97 03 25 03 56 30.0000000  0  7 06 17 21 22 23 26 30
  -5497228.53349  -4283553.08547         0.00041  20397679.90547  20397680.77649
 -13686143.33849 -10664518.50946         0.00041  20980079.12046  20980079.61949
  -2746724.05148  -2140303.34144         0.00041  24665492.38644  24665492.88248
  -8054345.75348  -6276110.82845         0.00041  23379169.14145  23379169.86748
 -14790755.93049 -11525256.00446         0.00041  21731351.67046  21731351.52749
  -9939063.59148  -7744718.42246         0.00041  22458914.51146  22458915.95348
  19225137.50748  14980625.59745         0.00041  24075969.16945  24075969.38448
 97 03 25 03 57 00.0000000  0  7 06 17 21 22 23 26 30
  -5470687.63349  -4262871.88047         0.00041  20402730.63047  20402731.36549
 -13712445.40949 -10685013.61846         0.00041  20975074.34346  20975074.61349
  -2843216.64548  -2215492.31444         0.00041  24647129.59444  24647131.15548
  -8085147.39348  -6300112.11045         0.00041  23373307.15245  23373308.71548
 -14858664.04149 -11578171.39446         0.00041  21718428.84846  21718429.09949
  -9968610.57748  -7767742.04146         0.00041  22453292.34446  22453292.91648
  19331846.62248  15063775.54244         0.00041  24096274.33244  24096275.09248
 97 03 25 03 57 30.0000000  0  7 06 17 21 22 23 26 30
  -5443644.04149  -4241798.95847         0.00041  20407877.08547  20407877.72649
 -13738537.84249 -10705345.38246         0.00041  20970109.44046  20970109.56249
  -2939552.74448  -2290559.40744         0.00041  24628800.98644  24628799.00548
  -8115434.85148  -6323712.73645         0.00041  23367543.14245  23367544.85048
 -14926201.36649 -11630797.86646         0.00041  21705577.04746  21705577.46749
  -9997611.24548  -7790339.93946         0.00041  22447773.97246  22447774.53948
  19438569.94748  15146936.57844         0.00041  24116584.06444  24116583.73948
 97 03 25 03 58 00.0000000  0  7 06 17 21 22 23 26 30
  -5416120.32749  -4220351.91947         0.00041  20413114.44847  20413115.33949
 -13764450.18049 -10725536.80746         0.00041  20965178.17846  20965178.41149
  -3035751.99548  -2365519.77644         0.00041  24610490.77644  24610492.36848
  -8145235.23248  -6346933.80145         0.00041  23361874.15445  23361874.01048
 -14993397.94749 -11683158.82446         0.00041  21692790.21846  21692790.33749
 -10026107.51048  -7812544.80346         0.00041  22442351.37446  22442351.91548
  19545285.92948  15230091.88844         0.00041  24136890.80244  24136891.33048
 97 03 25 03 58 30.0000000  0  7 06 17 21 22 23 26 30
  -5388108.11149  -4198524.22547         0.00041  20418444.91247  20418446.05449
 -13790176.86749 -10745583.56546         0.00041  20960282.39646  20960282.70649
  -3131818.99048  -2440377.12344         0.00041  24592214.29744  24592211.23848
  -8174543.96248  -6369771.75545         0.00041  23356296.02945  23356296.59748
 -15060253.50949 -11735254.05046         0.00041  21680067.90746  21680068.28849
 -10054098.37748  -7834355.85746         0.00041  22437024.39046  22437024.99048
  19652000.65548  15313246.17244         0.00041  24157197.97944  24157198.48948
 97 03 25 03 59 00.0000000  0  7 06 17 21 22 23 26 30
  -5359609.18049  -4176317.27547         0.00041  20423868.11247  20423869.21649
 -13815724.58749 -10765490.86946         0.00041  20955420.83546  20955421.24949
  -3227771.52948  -2515145.31844         0.00041  24573949.31744  24573951.81648
  -8203354.70148  -6392221.66645         0.00041  23350814.63745  23350814.41948
 -15126755.79149 -11787073.99746         0.00041  21667412.66046  21667413.29549
 -10081583.35948  -7855772.71446         0.00041  22431794.41946  22431795.02248
  19758711.51648  15396397.51041         0.00041         0.00041  24177504.97248
 97 03 25 03 59 30.0000000  0  7 06 17 21 22 23 26 30
  -5330610.02949  -4153720.54947         0.00041  20429386.37147  20429387.48149
 -13841067.39249 -10785238.50747         0.00041  20950598.27647  20950598.83649
  -3323580.42448  -2589801.53544         0.00041  24555722.31144  24555720.68548
  -8231636.25348  -6414259.23845         0.00041  23345433.02645  23345432.91148
 -15192862.68249 -11838585.83946         0.00041  21654833.51646  21654833.74749
 -10108547.71548  -7876783.89346         0.00041  22426662.60446  22426664.00048
  19865421.55248         0.00041         0.00041         0.00041  24197811.47248
 97 03 25 04 00 00.0000000  0  7 06 17 21 22 23 26 30
  -5301120.58349  -4130741.77547         0.00041  20434998.43247  20434999.27849
 -13866208.22349 -10804828.76246         0.00041  20945814.20646  20945814.65249
  -3419263.03848  -2664359.40744         0.00041  24537510.95544  24537512.20148
  -8259384.25048  -6435881.03945         0.00041  23340152.70545  23340152.38648
 -15258569.02349 -11889785.57946         0.00041  21642329.88946  21642330.06349
 -10135001.60548  -7897397.29646         0.00041  22421628.94046  22421629.86548
  19972110.12548         0.00041         0.00041         0.00041  24218113.85548
 97 03 25 04 00 30.0000000  0  7 06 17 21 22 23 26 30
  -5271140.41149  -4107380.62547         0.00041  20440703.36647  20440704.04749
 -13891134.94649 -10824252.17546         0.00041  20941070.85846  20941071.34249
  -3514802.99748  -2738806.08644         0.00041  24519332.55844  24519332.09648
  -8286587.93748  -6457078.70245         0.00041  23334975.92445  23334975.55448
 -15323858.79549 -11940660.70946         0.00041  21629905.50646  21629905.64149
 -10160915.29048  -7917589.75946         0.00041  22416696.89946  22416698.81948
  20078788.74447         0.00041         0.00041         0.00041  24238413.19247
 97 03 25 04 01 00.0000000  0  7 06 17 21 22 23 26 30
  -5240691.30149  -4083654.05447         0.00041  20446497.65347  20446498.19849
 -13915861.37749 -10843519.51047         0.00041  20936365.31447  20936365.92049
  -3610187.18548  -2813131.38844         0.00041  24501182.50944  24501181.49548
  -8313257.91948  -6477860.51645         0.00041  23329899.46645  23329900.07548
 -15388745.06949 -11991221.42746         0.00041  21617557.92346  21617558.19949
 -10186288.68248  -7937361.22046         0.00041  22411868.80146  22411870.43248
  20185430.36747         0.00041         0.00041         0.00041  24258706.86447
 97 03 25 04 01 30.0000000  0  6 06 17 21 22 23 26
  -5209799.64149  -4059582.65147         0.00041  20452375.95747  20452376.72649
 -13940399.78349 -10862640.33046         0.00041  20931695.91546  20931696.37049
  -3705415.92748  -2887335.56044         0.00041  24483060.60944  24483059.61548
  -8339419.94448  -6498246.50845         0.00041  23324921.34645  23324921.81148
 -15453255.84349 -12041489.54546         0.00041  21605281.88046  21605282.19449
 -10211135.64648  -7956722.59346         0.00041  22407141.63646  22407142.23348
 97 03 25 04 02 00.0000000  0  6 06 17 21 22 23 26
  -5178461.46449  -4035163.31347         0.00041  20458339.46347  20458340.24749
 -13964734.60549 -10881602.52546         0.00041  20927065.64646  20927065.51349
  -3800484.92448  -2961415.26344         0.00041  24464969.12344  24464968.72748
  -8365093.01748  -6518251.51145         0.00041  23320034.88045  23320036.16948
 -15517401.42449 -12091473.09846         0.00041  21593075.45946  21593075.81049
 -10235445.85448  -7975665.36946         0.00041  22402515.61446  22402516.21448
 97 03 25 04 02 30.0000000  0  6 06 17 21 22 23 26
  -5146645.49949  -4010371.66047         0.00041  20464393.98847  20464394.57249
 -13988842.78049 -10900388.11346         0.00041  20922477.39646  20922477.64649
  -3895367.21948  -3035349.47544         0.00041  24446913.83144  24446913.42248
  -8390260.96848  -6537862.91645         0.00041  23315246.39345  23315247.06748
 -15581164.35949 -12141158.48946         0.00041  21580941.73246  21580942.14849
 -10259182.10948  -7994161.21946         0.00041  22397998.33846  22397999.21148
 97 03 25 04 03 00.0000000  0  6 06 17 21 22 23 26
  -5114371.63449  -3985223.19847         0.00041  20470535.55247  20470536.09749
 -14012756.78949 -10919022.40046         0.00041  20917926.75146  20917927.18849
  -3990107.50148  -3109173.05744         0.00041  24428885.18344  24428885.51548
  -8414946.05248  -6557098.05845         0.00041  23310550.57545  23310550.45748
 -15644578.35949 -12190571.97746         0.00041  21568874.84646  21568874.76049
 -10282383.91748  -8012240.54246         0.00041  22393583.35446  22393583.86648
 97 03 25 04 03 30.0000000  0  6 06 17 21 22 23 26
  -5081632.29849  -3959712.04447         0.00041  20476765.58547  20476766.13549
 -14036474.63449 -10937503.83546         0.00041  20913413.78946  20913413.78249
  -4084728.15648  -3182903.41144         0.00041  24410880.72244  24410879.72248
  -8439143.89748  -6575953.57945         0.00041  23305945.76145  23305946.06348
 -15707641.48349 -12239712.06046         0.00041  21556874.09546  21556874.57049
 -10305063.15748  -8029912.67446         0.00041  22389267.31646  22389267.73548
 97 03 25 04 04 00.0000000  0  6 06 17 21 22 23 26
  -5048415.81249  -3933829.08147         0.00041  20483086.47547  20483087.07549
 -14059995.66549 -10955831.91546         0.00041  20908937.89346  20908937.90349
  -4179244.38848  -3256552.40044         0.00041  24392894.00544  24392893.88248
  -8462831.80848  -6594411.80346         0.00041  23301437.50446  23301437.94948
 -15770342.05249 -12288569.63346         0.00041  21544942.68346  21544943.08849
 -10327212.65248  -8047172.01846         0.00041  22385052.33546  22385052.88148
 97 03 25 04 04 30.0000000  0  6 06 17 21 22 23 26
  -5014727.90449  -3907578.76947         0.00041  20489496.88547  20489497.73049
 -14083340.15949 -10974022.43247         0.00041  20904495.59047  20904496.11349
  -4273668.51348  -3330129.62844         0.00041  24374925.45944  24374925.87448
  -8485979.48548  -6612447.62844         0.00041  23297033.45744  23297032.83648
 -15832677.16649 -12337142.43546         0.00041  21533080.47646  21533080.77649
 -10348842.82848  -8064026.69646         0.00041  22380936.20546  22380936.88548
 97 03 25 04 05 00.0000000  0  6 06 17 21 22 23 26
  -4980575.16149  -3880966.25947         0.00041  20495995.98947  20495996.90349
 -14106491.36449 -10992062.32946         0.00041  20900089.96746  20900090.35249
  -4367985.87248  -3403623.66644         0.00041  24356978.52644  24356977.61648
  -8508577.47348  -6630056.53445         0.00041  23292733.36345  23292732.46248
 -15894630.12049 -12385417.45046         0.00041  21521291.28946  21521291.23749
 -10369962.85448  -8080483.83046         0.00041  22376917.37546  22376918.11948
 97 03 25 04 05 30.0000000  0  6 06 17 21 22 23 26
  -4945944.29549  -3853981.18047         0.00041  20502586.26847  20502586.98949
 -14129437.15549 -11009942.16846         0.00041  20895723.42646  20895724.02349
  -4462161.35848  -3477007.11244         0.00041  24339057.20844  24339056.11148
  -8530621.71848  -6647233.89145         0.00041  23288536.70245  23288537.76648
 -15956186.93849 -12433383.78446         0.00041  21509577.45346  21509577.30149
 -10390554.53048  -8096529.27846         0.00041  22372998.80946  22372999.76748
 97 03 25 04 06 00.0000000  0  6 06 17 21 22 23 26
  -4910758.38249  -3826563.59047         0.00041  20509281.77447  20509282.58949
 -14152091.74049 -11027595.09047         0.00041  20891412.30747  20891413.09549
  -4556084.10348  -3550193.66844         0.00041  24321184.03444  24321183.65448
  -8552039.29748  -6663922.92545         0.00041  23284461.17045  23284461.44648
 -16017260.63649 -12480973.66346         0.00041  21497955.64546  21497955.28749
 -10410528.35448  -8112093.28146         0.00041  22369197.66146  22369198.97648
 97 03 25 04 06 30.0000000  0  6 06 17 21 22 23 26
  -4875167.88249  -3798830.72947         0.00041  20516054.53047  20516055.34449
 -14174612.55049 -11045143.76247         0.00041  20887126.87647  20887127.18549
  -4649883.71948  -3623284.21444         0.00041  24303334.83444  24303333.66448
  -8573007.26448  -6680261.59445         0.00041  23280471.36145  23280472.72148
 -16078009.28549 -12528310.24846         0.00041  21486395.48046  21486395.22949
 -10430051.76548  -8127306.30546         0.00041  22365482.63946  22365483.61148
 97 03 25 04 07 00.0000000  0  6 06 17 21 22 23 26
  -4839176.33749  -3770785.38847         0.00041  20522903.65547  20522904.27649
 -14197013.35949 -11062598.93646         0.00041  20882864.22446  20882864.26849
  -4743556.19648  -3696275.77344         0.00041  24285509.53144  24285508.30248
  -8593562.65048  -6696278.79245         0.00041  23276559.21845  23276560.11948
 -16138455.56349 -12575411.23346         0.00041  21474892.87646  21474892.86149
 -10449118.31548  -8142163.34746         0.00041  22361854.74946  22361855.22848
 97 03 25 04 07 30.0000000  0  6 06 17 21 22 23 26
  -4802736.22749  -3742390.51747         0.00041  20529837.78247  20529838.39249
 -14219267.83549 -11079940.08546         0.00041  20878628.98346  20878629.31949
  -4837071.25748  -3769144.63344         0.00041  24267711.37644  24267712.66648
  -8613667.51648  -6711944.91845         0.00041  23272733.79345  23272734.99448
 -16198564.55749 -12622249.40046         0.00041  21463454.28146  21463454.35349
 -10467666.91148  -8156616.78446         0.00041  22358324.91346  22358325.48348
 97 03 25 04 08 00.0000000  0  6 06 17 21 22 23 26
  -4765710.48949  -3713539.30447         0.00041  20536883.71347  20536884.40049
 -14241244.70149 -11097064.91147         0.00041  20874447.42047  20874447.41949
  -4930308.20448  -3841796.77944         0.00041  24249971.39344  24249971.17048
  -8633186.89148  -6727154.82545         0.00041  23269019.91345  23269020.75148
 -16258197.56649 -12668716.66046         0.00041  21452106.63546  21452106.32549
 -10485563.44148  -8170562.12246         0.00041  22354918.22546  22354919.42648
 97 03 25 04 08 30.0000000  0  6 06 17 21 22 23 26
  -4728171.26149  -3684287.96547         0.00041  20544027.13247  20544027.76849
 -14263034.91349 -11114044.30047         0.00041  20870300.51747  20870300.95549
  -5023373.63248  -3914315.27744         0.00041  24232260.34344  24232260.69448
  -8652180.53348  -6741955.06045         0.00041  23265405.25845  23265405.99248
 -16317429.44349 -12714871.34946         0.00041  21440835.02746  21440835.35749
 -10502879.96148  -8184055.48646         0.00041  22351624.09046  22351624.62748
 97 03 25 04 09 00.0000000  0  6 06 17 21 22 23 26
  -4690154.31349  -3654664.37547         0.00041  20551261.15247  20551262.15849
 -14284662.14549 -11130896.68546         0.00041  20866184.60146  20866185.15549
  -5116319.88448  -3986740.90344         0.00041  24214574.34844  24214574.15248
  -8670659.36448  -6756354.14045         0.00041  23261888.53745  23261888.39448
 -16376272.61149 -12760723.15946         0.00041  21429637.25546  21429637.55349
 -10519631.65348  -8197108.73646         0.00041  22348435.63646  22348436.68448
 97 03 25 04 09 30.0000000  0  6 06 17 21 22 23 26
  -4651658.98749  -3624668.02647         0.00041  20558586.84847  20558587.58749
 -14306120.10349 -11147617.16147         0.00041  20862101.51547  20862102.00149
  -5209147.05748  -4059073.72844         0.00041  24196912.40244  24196909.83548
  -8688609.10148  -6770340.94045         0.00041  23258473.59245  23258472.93448
 -16434703.37749 -12806253.61146         0.00041  21418518.56546  21418518.45149
 -10535828.33748  -8209729.51546         0.00041  22345354.78246  22345354.78148
 97 03 25 04 10 00.0000000  0  6 06 17 21 22 23 26
  -4612680.61049  -3594295.28447         0.00041  20566004.15847  20566004.99249
 -14327396.75849 -11164196.36847         0.00041  20858052.87847  20858053.11149
  -5301845.65948  -4131306.39144         0.00041  24179268.05344  24179270.11948
  -8706016.19548  -6783904.92645         0.00041  23255160.96545  23255161.40548
 -16492719.69449 -12851461.11446         0.00041  21407478.49746  21407478.40349
 -10551476.22048  -8221922.65346         0.00041  22342376.16846  22342377.10648
 97 03 25 04 10 30.0000000  0  6 06 17 21 22 23 26
  -4573223.36849  -3563549.40247         0.00041  20573512.73647  20573513.57349
 -14348482.09549 -11180626.49747         0.00041  20854040.36947  20854040.59949
  -5394411.66248  -4203435.71044         0.00041  24161655.72644  24161654.56848
  -8722876.99048  -6797043.18445         0.00041  23251951.67545  23251951.91948
 -16550328.82149 -12896351.33246         0.00041  21396516.08246  21396515.85449
 -10566575.00148  -8233687.91846         0.00041  22339502.99246  22339503.73148
 97 03 25 04 11 00.0000000  0  6 06 17 21 22 23 26
  -4533278.97249  -3532423.92046         0.00041  20581113.84446  20581114.47149
 -14369355.76549 -11196891.68447         0.00041  20850068.04447  20850068.40849
  -5486818.98748  -4275441.38244         0.00041  24144071.68144  24144070.92748
  -8739200.06648  -6809762.47145         0.00041  23248844.98445  23248846.14648
 -16607537.34449 -12940929.38846         0.00041  21385629.30046  21385629.30349
 -10581117.89548  -8245020.02846         0.00041  22336735.02246  22336736.40748
 97 03 25 04 11 30.0000000  0  6 06 17 21 22 23 26
  -4492831.35549  -3500906.31646         0.00041  20588810.53546  20588811.33049
 -14389993.01549 -11212972.64747         0.00041  20846141.17947  20846141.55749
  -5579037.65348  -4347300.05344         0.00041  24126523.38044  24126521.21148
  -8754979.86648  -6822058.41945         0.00041  23245842.08345  23245844.02348
 -16664343.17149 -12985193.65546         0.00041  21374819.52546  21374819.91049
 -10595086.75648  -8255904.82546         0.00041  22334077.20146  22334078.32348
 97 03 25 04 12 00.0000000  0  6 06 17 21 22 23 26
  -4451906.35649  -3469016.72246         0.00041  20596598.68646  20596599.14649
 -14410406.64049 -11228879.35847         0.00041  20842256.81547  20842257.12349
  -5671091.33748  -4419030.16744         0.00041  24109006.58944  24109004.16348
  -8770244.52648  -6833952.94945         0.00041  23242938.29745  23242938.67248
 -16720779.09049 -13029169.68046         0.00041  21364080.09646  21364080.45949
 -10608500.02048  -8266356.70146         0.00041  22331524.78046  22331526.04148
 97 03 25 04 12 30.0000000  0  6 06 17 21 22 23 26
  -4410504.49449  -3436755.54346         0.00041  20604477.20146  20604477.84149
 -14430591.90049 -11244608.13447         0.00041  20838415.60047  20838415.90249
  -5762976.50648  -4490628.94644         0.00041  24091520.70444  24091519.11148
  -8784997.30848  -6845448.61445         0.00041  23240131.22445  23240131.87348
 -16776833.61749 -13072848.52346         0.00041  21353413.24546  21353413.87249
 -10621341.68148  -8276363.16746         0.00041  22329081.11646  22329082.24348
 97 03 25 04 13 00.0000000  0  6 06 17 21 22 23 26
  -4368632.56249  -3404128.07546         0.00041  20612445.19546  20612445.72249
 -14450553.38249 -11260162.53047         0.00041  20834616.64847  20834617.42149
  -5854677.59648  -4562084.31444         0.00041  24074070.45644  24074069.49348
  -8799238.54748  -6856545.68945         0.00041  23237419.99545  23237421.98848
 -16832484.90049 -13116213.15146         0.00041  21342823.20546  21342823.74249
 -10633600.17648  -8285915.21146         0.00041  22326747.96246  22326749.14848
 97 03 25 04 13 30.0000000  0  6 06 17 21 22 23 26
  -4326317.24649  -3371155.11146         0.00041  20620497.45746  20620497.96849
 -14470313.85949 -11275560.29746         0.00041  20830856.37346  20830856.73749
  -5946207.37948  -4633406.20045         0.00041  24056650.84445  24056651.85948
  -8812986.29248  -6867258.22145         0.00041  23234804.76245  23234805.27448
 -16887738.74249 -13159268.08246         0.00041  21332308.53646  21332309.15149
 -10645283.99348  -8295019.46846         0.00041  22324525.47346  22324526.33248
 97 03 25 04 14 00.0000000  0  6 06 17 21 22 23 26
  -4283563.08649  -3337840.20246         0.00041  20628633.46646  20628633.94049
 -14489889.47449 -11290814.01847         0.00041  20827131.60247  20827131.72049
  -6037558.01848  -4704588.46745         0.00041  24039267.53745  24039268.63148
  -8826221.88648  -6877571.66045         0.00041  23232286.29945  23232286.91648
 -16942590.75749 -13202009.90446         0.00041  21321870.65546  21321871.15949
 -10656391.87748  -8303674.93546         0.00041  22322411.42946  22322412.81748
 97 03 25 04 14 30.0000000  0  6 06 17 21 22 23 26
  -4240358.13049  -3304174.03246         0.00041  20636854.95446  20636855.73249
 -14509283.51249 -11305926.24447         0.00041  20823440.92547  20823441.21149
  -6128713.80948  -4775618.92645         0.00041  24021922.71245  24021922.20248
  -8838932.02848  -6887475.65445         0.00041  23229867.56745  23229868.27648
 -16997026.00449 -13244426.96646         0.00041  21311511.90646  21311512.01549
 -10666915.07848  -8311874.80746         0.00041  22320408.30646  22320409.91148
 97 03 25 04 15 00.0000000  0  6 06 17 21 22 23 26
  -4196694.48949  -3270150.43146         0.00041  20645163.63546  20645164.71049
 -14528509.41749 -11320907.46147         0.00041  20819782.25447  20819782.35349
  -6219671.34548  -4846494.89445         0.00041  24004614.21045  24004613.56548
  -8851118.34448  -6896971.50245         0.00041  23227548.24945  23227549.27948
 -17051052.52049 -13286525.53746         0.00041  21301230.80846  21301231.02849
 -10676873.19248  -8319634.35546         0.00041  22318513.73746  22318514.91648
 97 03 25 04 15 30.0000000  0  6 06 17 21 22 23 26
  -4152558.44149  -3235758.71046         0.00041  20653562.43146  20653563.62249
 -14547569.16649 -11335759.20747         0.00041  20816155.31847  20816155.71649
  -6310446.23148  -4917228.54744         0.00041  23987339.06144  23987339.58948
  -8862769.71148  -6906050.48745         0.00041  23225332.35445  23225332.61348
 -17104692.40449 -13328322.84246         0.00041  21291023.67946  21291023.94849
 -10686290.00048  -8326972.10246         0.00041  22316721.63646  22316722.83348
 97 03 25 04 16 00.0000000  0  6 06 17 21 22 23 26
  -4107947.72349  -3200997.11846         0.00041  20662051.59946  20662052.62149
 -14566473.92649 -11350490.18247         0.00041  20812557.87947  20812558.30949
  -6401048.88648  -4987827.97845         0.00041  23970099.16345  23970098.73648
  -8873891.57548  -6914716.87845         0.00041  23223216.00645  23223216.30848
 -17157953.44449 -13369824.94146         0.00041  21280888.61746  21280888.42649
 -10695197.06248  -8333912.65246         0.00041  22315026.66146  22315027.58548
 97 03 25 04 16 30.0000000  0  6 06 17 21 22 23 26
  -4062841.57949  -3165849.49346         0.00041  20670634.88346  20670636.08149
 -14585201.41449 -11365083.02247         0.00041  20808994.14047  20808994.67049
  -6491469.90948  -5058285.89545         0.00041  23952891.23445  23952891.00348
  -8884494.70948  -6922979.07245         0.00041  23221197.67445  23221198.51748
 -17210815.20549 -13411015.91346         0.00041  21270828.99246  21270829.32049
 -10703588.67648  -8340451.54946         0.00041  22313430.15546  22313430.87148
 97 03 25 04 17 00.0000000  0  6 06 17 21 22 23 26
  -4017257.56549  -3130329.49746         0.00041  20679309.52346  20679310.46449
 -14603758.02149 -11379542.70847         0.00041  20805462.95847  20805463.56349
  -6581725.53248  -5128614.90445         0.00041  23935717.50745  23935716.73048
  -8894587.54948  -6930843.62545         0.00041  23219276.82945  23219277.72348
 -17263291.30149 -13451906.37046         0.00041  21260843.30846  21260843.49949
 -10711475.28748  -8346596.93646         0.00041  22311928.46746  22311929.89848
 97 03 25 04 17 30.0000000  0  6 06 17 21 22 23 26
  -3971191.63149  -3094433.98646         0.00041  20688075.75646  20688076.51249
 -14622113.58549 -11393845.74347         0.00041  20801970.16647  20801970.42649
  -6671798.25948  -5198801.41244         0.00041  23918574.77544  23918575.35848
  -8904153.47348  -6938297.59145         0.00041  23217455.99345  23217457.27448
 -17315360.78349 -13492479.98046         0.00041  21250934.75446  21250935.09349
 -10718819.35348  -8352319.56446         0.00041  22310532.17546  22310532.47248
 97 03 25 04 18 00.0000000  0  6 06 17 21 22 23 26
  -3924649.90149  -3058167.72446         0.00041  20696932.35846  20696932.88449
 -14640265.68049 -11407990.22747         0.00041  20798515.64347  20798516.11949
  -6761676.47348  -5268836.35045         0.00041  23901474.49045  23901471.80648
  -8913198.77948  -6945345.89445         0.00041  23215735.18945  23215734.78048
 -17367005.76049 -13532722.80946         0.00041  21241106.93446  21241107.35649
 -10725587.69648  -8357593.57846         0.00041  22309243.90946  22309244.50648
 97 03 25 04 18 30.0000000  0  6 06 17 21 22 23 26
  -3877635.57149  -3021533.20146         0.00041  20705878.83846  20705879.43449
 -14658208.69249 -11421971.78246         0.00041  20795100.95946  20795101.39449
  -6851365.69848  -5338724.03345         0.00041  23884405.95645  23884405.20348
  -8921725.42848  -6951990.03845         0.00041  23214112.35245  23214112.44548
 -17418234.48249 -13572641.28246         0.00041  21231358.38546  21231358.85349
 -10731757.91748  -8362401.52146         0.00041  22308069.60546  22308070.42248
 97 03 25 04 19 00.0000000  0  6 06 17 21 22 23 26
  -3830145.49049  -2984527.95846         0.00041  20714915.94646  20714916.57149
 -14675936.94049 -11435785.99947         0.00041  20791727.51047  20791727.83949
  -6940854.97548  -5408455.91445         0.00041  23867376.58245  23867375.47248
  -8929713.67648  -6958214.65745         0.00041  23212592.54545  23212592.76248
 -17469055.69349 -13612242.21446         0.00041  21221687.57146  21221687.91049
 -10737310.08448  -8366727.87246         0.00041  22307013.02846  22307013.69448
 97 03 25 04 19 30.0000000  0  6 06 17 21 22 23 26
  -3782192.13449  -2947161.71946         0.00041  20724041.23046  20724041.81649
 -14693458.36149 -11449439.05747         0.00041  20788393.67147  20788394.21849
  -7030162.88348  -5478046.45945         0.00041  23850381.65145  23850380.99148
  -8937190.81848  -6964041.00245         0.00041  23211168.67945  23211169.67448
 -17519479.11849 -13651533.18546         0.00041  21212092.15946  21212092.72849
 -10742252.42348  -8370579.03946         0.00041  22306072.76746  22306073.25448
 97 03 25 04 20 00.0000000  0  6 06 17 21 22 23 26
  -3733778.85149  -2909437.09846         0.00041  20733253.89646  20733254.81249
 -14710783.16049 -11462938.89747         0.00041  20785096.89247  20785097.59549
  -7119307.13748  -5547509.49445         0.00041  23833417.89645  23833417.51948
  -8944167.47248  -6969477.36445         0.00041  23209842.10145  23209842.96548
 -17569515.18549 -13690522.32246         0.00041  21202570.58946  21202570.92649
 -10746599.56848  -8373966.42546         0.00041  22305245.37746  22305246.22848
 97 03 25 04 20 30.0000000  0  6 06 17 21 22 23 26
  -3684903.58049  -2871352.48846         0.00041  20742554.61746  20742555.46749
 -14727901.12749 -11476277.56047         0.00041  20781839.44047  20781839.85349
  -7208296.03348  -5616851.46445         0.00041  23816484.03345  23816484.10948
  -8950645.36648  -6974525.08745         0.00041  23208610.16945  23208609.88148
 -17619159.11049 -13729205.88746         0.00041  21193123.79446  21193123.92649
 -10750362.39048  -8376898.47746         0.00041  22304529.43846  22304530.00948
 97 03 25 04 21 00.0000000  0  6 06 17 21 22 23 26
  -3635579.41149  -2832918.08146         0.00041  20751940.79546  20751941.55249
 -14744820.94649 -11489461.82747         0.00041  20778619.87947  20778619.87049
  -7297141.18548  -5686081.44745         0.00041  23799578.87645  23799577.43548
  -8956623.88548  -6979183.67745         0.00041  23207471.60145  23207471.89148
 -17668403.79149 -13767578.35246         0.00041  21183753.03646  21183752.92649
 -10753551.89148  -8379383.78046         0.00041  22303922.36546  22303922.70148
 97 03 25 04 21 30.0000000  0  6 06 17 21 22 23 26
  -3585797.38749  -2794126.91046         0.00041  20761413.91446  20761414.60249
 -14761532.10249 -11502483.49647         0.00041  20775439.52247  20775439.75349
  -7385833.04948  -5755191.94945         0.00041  23782699.75645  23782699.25848
  -8962089.65648  -6983442.72045         0.00041  23206432.36545  23206432.13348
 -17717228.62649 -13805623.67246         0.00041  21174461.60946  21174461.95949
 -10756169.37548  -8381423.35246         0.00041  22303423.95346  22303424.38048
 97 03 25 04 22 00.0000000  0  6 06 17 21 22 23 26
  -3535539.27749  -2754964.76946         0.00041  20770977.59146  20770978.19449
 -14778029.86649 -11515338.88646         0.00041  20772300.01646  20772300.38249
  -7474330.68448  -5824151.13545         0.00041  23765859.03245  23765858.91548
  -8967021.57348  -6987285.78045         0.00041  23205492.22145  23205493.38748
 -17765630.59649 -13843339.48846         0.00041  21165251.25946  21165251.57849
 -10758217.10548  -8383018.96746         0.00041  22303034.85646  22303034.97848
 97 03 25 04 22 30.0000000  0  6 06 17 21 22 23 26
  -3484787.92849  -2715418.29746         0.00041  20780635.64946  20780636.08149
 -14794309.60349 -11528024.39147         0.00041  20769202.33747  20769202.85649
  -7562602.38948  -5892934.25045         0.00041  23749061.86445  23749061.26148
  -8971408.73048  -6990704.33745         0.00041  23204657.69345  23204658.47948
 -17813599.00749 -13880717.46246         0.00041  21156123.16846  21156123.44049
 -10759692.01948  -8384168.22546         0.00041  22302753.55946  22302754.49548
 97 03 25 04 23 00.0000000  0  6 06 17 21 22 23 26
  -3433548.92649  -2675491.82846         0.00041  20790386.22946  20790386.62649
 -14810390.62949 -11540555.05547         0.00041  20766142.33747  20766142.90249
  -7650632.20748  -5961528.91144         0.00041  23732309.15144  23732308.95248
  -8975256.11948  -6993702.30745         0.00041  23203927.04045  23203926.51248
 -17861150.97449 -13917770.93746         0.00041  21147074.46046  21147074.57649
 -10760599.64048  -8384875.45346         0.00041  22302580.37746  22302581.86248
 97 03 25 04 23 30.0000000  0  6 06 17 21 22 23 26
  -3381804.88249  -2635171.83246         0.00041  20800232.66746  20800233.20749
 -14826271.52349 -11552929.78347         0.00041  20763120.21947  20763120.54649
  -7738391.31148  -6029912.60745         0.00041  23715610.06745  23715609.35048
  -8978571.45148  -6996285.69145         0.00041  23203295.10045  23203295.14448
 -17908284.61449 -13954498.44046         0.00041  21138104.84346  21138105.11449
 -10760941.41248  -8385141.74946         0.00041  22302515.66646  22302516.78648
 97 03 25 04 24 00.0000000  0  6 06 17 21 22 23 26
  -3329573.22149  -2594471.85746         0.00041  20810171.83746  20810172.54649
 -14841987.10249 -11565175.69147         0.00041  20760129.39047  20760129.92449
  -7825912.76448  -6098111.11345         0.00041  23698954.17145  23698954.39348
  -8981392.85348  -6998484.19745         0.00041  23202758.66945  23202758.26948
 -17955013.99749 -13990910.93746         0.00041  21129212.82746  21129212.99949
 -10760717.34448  -8384967.14046         0.00041  22302558.76746  22302559.32048
 97 03 25 04 24 30.0000000  0  6 06 17 21 22 23 26
  -3276863.36449  -2553399.25046         0.00041  20820202.22046  20820202.88749
 -14857538.42549 -11577293.59447         0.00041  20757169.87047  20757170.26649
  -7913222.96648  -6166145.02045         0.00041  23682340.47945  23682339.83048
  -8983724.10848  -7000300.76945         0.00041  23202315.33745  23202315.19048
 -18001324.30949 -14026996.88447         0.00041  21120400.16647  21120400.64449
 -10759910.45748  -8384338.37346         0.00041  22302712.54646  22302712.92448
 97 03 25 04 25 00.0000000  0  6 06 17 21 22 23 26
  -3223683.94249  -2511960.74846         0.00041  20830322.07346  20830322.93449
 -14872919.88349 -11589279.13747         0.00041  20754243.11847  20754243.35849
  -8000335.49948  -6234024.90345         0.00041  23665763.59845  23665763.12748
  -8985560.03248  -7001731.36445         0.00041  23201965.27545  23201965.29548
 -18047213.30049 -14062754.52847         0.00041  21111667.63747  21111668.00449
 -10758512.39448  -8383248.95546         0.00041  22302978.85246  22302978.80448
 97 03 25 04 25 30.0000000  0  6 06 17 21 22 23 26
  -3170039.86049  -2470160.18146         0.00041  20840530.19646  20840531.09549
 -14888123.40149 -11601126.02647         0.00041  20751350.07847  20751350.21649
  -8087276.42848  -6301771.05945         0.00041  23649219.26445  23649218.94148
  -8986894.75448  -7002771.39845         0.00041  23201710.64145  23201711.03748
 -18092691.02449 -14098191.70847         0.00041  21103013.68347  21103014.17249
 -10756521.46248  -8381697.57746         0.00041  22303356.45046  22303357.40448
 97 03 25 04 26 00.0000000  0  6 06 17 21 22 23 26
  -3115938.04649  -2428002.94646         0.00041  20850825.38546  20850825.96249
 -14903129.27949 -11612818.91347         0.00041  20748494.32547  20748494.94849
  -8174060.97448  -6369395.37745         0.00041  23632705.14045  23632704.57648
  -8987715.07348  -7003410.62545         0.00041  23201555.30945  23201555.37348
 -18137768.37649 -14133316.90647         0.00041  21094435.50547  21094435.91449
 -10753927.76548  -8379676.50646         0.00041  22303850.91746  22303850.79048
 97 03 25 04 26 30.0000000  0  6 06 17 21 22 23 26
  -3061370.57249  -2385482.85946         0.00041  20861209.11546  20861209.64149
 -14917903.71149 -11624331.45247         0.00041  20745682.86347  20745683.53949
  -8260658.93548  -6436874.28645         0.00041  23616226.05845  23616226.04248
  -8987991.22448  -7003625.81745         0.00041  23201503.14945  23201503.39948
 -18182451.70249 -14168135.06846         0.00041  21085932.69346  21085932.80149
 -10750741.86948  -8377193.97446         0.00041  22304456.48946  22304457.33348
 97 03 25 04 27 00.0000000  0  6 06 17 21 22 23 26
  -3006346.12149  -2342606.68746         0.00041  20871680.10246  20871680.62549
 -14932451.00349 -11635666.99947         0.00041  20742914.73447  20742915.02649
  -8347067.39248  -6504205.53345         0.00041  23599782.88245  23599783.38648
  -8987731.41748  -7003423.36545         0.00041  23201552.19845  23201552.17048
 -18226768.16949 -14202667.36947         0.00041  21077499.59147  21077499.90749
 -10746969.07748  -8374254.12046         0.00041  22305174.25546  22305175.29148
 97 03 25 04 27 30.0000000  0  6 06 17 21 22 23 26
  -2950854.21249  -2299366.26146         0.00041  20882239.91846  20882240.45549
 -14946763.43049 -11646819.53147         0.00041  20740191.14547  20740191.26249
  -8433264.94548  -6571372.44845         0.00041  23583378.98145  23583379.77948
  -8986932.49648  -7002800.82545         0.00041  23201704.88645  23201704.81248
 -18270709.25749 -14236907.16847         0.00041  21069137.92147  21069138.26849
 -10742599.62848  -8370849.33446         0.00041  22306006.28946  22306006.93748
 97 03 25 04 28 00.0000000  0  6 06 17 21 22 23 26
  -2894914.77049  -2255777.10846         0.00041  20892884.60046  20892885.14549
 -14960863.95449 -11657806.94347         0.00041  20737507.70347  20737507.87249
  -8519252.26948  -6638375.53745         0.00041  23567016.79945  23567017.56448
  -8985627.60348  -7001784.04345         0.00041  23201952.32745  23201952.86348
 -18314275.39249 -14270854.79847         0.00041  21060847.55747  21060847.59849
 -10737649.21148  -8366991.83646         0.00041  22306948.40246  22306949.28848
 97 03 25 04 28 30.0000000  0  6 06 17 21 22 23 26
  -2838535.51649  -2211845.24546         0.00041  20903613.28546  20903613.74649
 -14974761.46549 -11668636.16847         0.00041  20734863.36347  20734863.63849
  -8605028.16748  -6705213.89045         0.00041  23550694.28145  23550694.61048
  -8983820.77148  -7000376.11845         0.00041  23202296.11445  23202296.68648
 -18357446.06749 -14304494.27547         0.00041  21052632.31047  21052632.60949
 -10732127.13848  -8362688.90146         0.00041  22307998.99246  22307999.69948
 97 03 25 04 29 00.0000000  0  6 06 17 21 22 23 26
  -2781727.78549  -2167579.51046         0.00041  20914423.58946  20914424.22449
 -14988470.63349 -11679318.63547         0.00041  20732254.50247  20732254.90349
  -8690598.20048  -6771891.82745         0.00041  23534410.19045  23534410.61948
  -8981524.55348  -6998586.84845         0.00041  23202733.18945  23202733.84148
 -18400210.91549 -14337817.52747         0.00041  21044494.62447  21044494.76849
 -10726029.00048  -8357937.08746         0.00041  22309158.54546  22309159.85748
 97 03 25 04 29 30.0000000  0  6 06 17 21 22 23 26
  -2724504.48149  -2122989.94746         0.00041  20925312.91146  20925313.44049
 -15002000.98049 -11689861.76747         0.00041  20729679.59347  20729680.09549
  -8775979.57248  -6838422.74945         0.00041  23518163.67245  23518163.34648
  -8978751.63648  -6996426.14145         0.00041  23203261.31345  23203261.00648
 -18442556.64949 -14370814.19147         0.00041  21036436.47247  21036436.48449
 -10719381.87848  -8352757.48346         0.00041  22310424.49546  22310424.81948
 97 03 25 04 30 00.0000000  0  6 06 17 21 22 23 26
  -2666860.59049  -2078072.64346         0.00041  20936281.98046  20936282.78649
 -15015356.59049 -11700268.74047         0.00041  20727138.29847  20727138.74049
  -8861177.33248  -6904810.61045         0.00041  23501949.88045  23501950.39348
  -8975500.56948  -6993892.84945         0.00041  23203879.45345  23203879.87948
 -18484480.18349 -14403481.86947         0.00041  21028458.75547  21028458.87849
 -10712198.64248  -8347160.14046         0.00041  22311791.24346  22311791.84448
 97 03 25 04 30 30.0000000  0  6 06 17 21 22 23 26
  -2608757.00949  -2032797.14246         0.00041  20947339.11446  20947339.61249
 -15028514.06449 -11710521.31847         0.00041  20724634.72947  20724635.06049
  -8946152.50248  -6971025.00445         0.00041  23485781.10045  23485780.50948
  -8971727.70148  -6990952.95345         0.00041  23204598.14645  23204598.53448
 -18525948.52949 -14435794.85847         0.00041  21020567.49747  21020567.67949
 -10704459.02548  -8341129.27146         0.00041  22313263.65946  22313264.71048
 97 03 25 04 31 00.0000000  0  6 06 17 21 22 23 26
  -2550177.08649  -1987150.46046         0.00041  20958486.54146  20958487.06549
 -15041486.03149 -11720629.34747         0.00041  20722165.89147  20722166.47649
  -9030898.72048  -7037060.99845         0.00041  23469653.98945  23469653.59248
  -8967442.13248  -6987613.55445         0.00041  23205413.25845  23205413.83748
 -18566972.54849 -14467761.61647         0.00041  21012760.69847  21012760.79949
 -10696153.64948  -8334657.53346         0.00041  22314844.64346  22314845.11848
 97 03 25 04 31 30.0000000  0  6 06 17 21 22 23 26
  -2491089.32149  -1941108.05746         0.00041  20969730.78246  20969731.20349
 -15054258.83849 -11730582.17147         0.00041  20719735.32747  20719736.16349
  -9115414.90348  -7102917.74945         0.00041  23453570.27845  23453570.78748
  -8962629.06948  -6983863.11445         0.00041  23206329.27145  23206329.86648
 -18607540.91849 -14499373.31847         0.00041  21005041.01247  21005041.12649
 -10687262.14948  -8327729.08346         0.00041  22316536.13746  22316537.63248
 97 03 25 04 32 00.0000000  0  6 06 17 21 22 23 26
  -2431457.91149  -1894642.05046         0.00041  20981078.03446  20981078.78149
 -15066805.78349 -11740358.99847         0.00041  20717347.78247  20717348.19149
  -9199663.17948  -7168565.73445         0.00041  23437539.83645  23437539.17648
  -8957261.11148  -6979680.30145         0.00041  23207350.97545  23207351.89548
 -18647647.47149 -14530625.16647         0.00041  20997408.81747  20997409.12849
 -10677746.26248  -8320314.08846         0.00041  22318347.53746  22318348.21948
 97 03 25 04 32 30.0000000  0  6 06 17 21 22 23 26
  -2371333.52349  -1847791.89646         0.00041  20992519.45646  20992520.11049
 -15079152.77249 -11749980.02847         0.00041  20714998.47647  20714998.66849
  -9283674.72548  -7234029.25845         0.00041  23421551.57345  23421552.08048
  -8951375.81148  -6975094.35145         0.00041  23208469.92645  23208471.49348
 -18687343.93649 -14561557.46647         0.00041  20989854.62947  20989854.95249
 -10667613.07748  -8312418.08146         0.00041  22320275.75546  22320276.13648
 97 03 25 04 33 00.0000000  0  6 06 17 21 22 23 26
  -2310733.12949  -1800570.82846         0.00041  21004051.05246  21004051.82049
 -15091298.60249 -11759444.31047         0.00041  20712687.10547  20712687.52249
  -9367472.81948  -7299326.45945         0.00041  23405606.38845  23405606.05848
  -8944991.11048  -6970119.26545         0.00041  23209685.98545  23209685.88548
 -18726654.24149 -14592188.85947         0.00041  20982374.34847  20982374.53049
 -10656849.59248  -8304030.94146         0.00041  22322323.76746  22322324.32048
 97 03 25 04 33 30.0000000  0  6 06 17 21 22 23 26
  -2249680.93849  -1752997.70746         0.00041  21015668.90946  21015669.48949
 -15103241.36349 -11768750.35447         0.00041  20710414.07947  20710414.55649
  -9451067.92548  -7364465.48245         0.00041  23389698.70645  23389698.15948
  -8938103.32048  -6964752.17045         0.00041  23210995.92345  23210996.06348
 -18765584.27149 -14622523.93547         0.00041  20974966.32147  20974966.46449
 -10645468.48848  -8295162.53246         0.00041  22324489.32946  22324489.98948
 97 03 25 04 34 00.0000000  0  6 06 17 21 22 23 26
  -2188205.35649  -1705094.67146         0.00041  21027367.56646  21027368.00349
 -15114983.96149 -11777900.42947         0.00041  20708179.86247  20708180.27649
  -9534446.13948  -7429435.50445         0.00041  23373832.60545  23373831.21948
  -8930722.80948  -6959001.13045         0.00041  23212400.43345  23212400.41248
 -18804137.63549 -14652565.50547         0.00041  20967629.49447  20967629.79149
 -10633482.48348  -8285822.77046         0.00041  22326769.75946  22326771.36248
 97 03 25 04 34 30.0000000  0  7 03 06 17 21 22 23 26
        -0.72258         0.45051         0.00051         0.00051  25174854.69758
  -2126315.75149  -1656869.01546         0.00041  21039144.66946  21039145.12049
 -15126536.62649 -11786902.50247         0.00041  20705981.39347  20705981.69449
  -9617620.50448  -7494246.68045         0.00041  23358003.79945  23358004.13748
  -8922853.88648  -6952869.50545         0.00041  23213898.10945  23213898.46448
 -18842302.68249 -14682304.49047         0.00041  20960367.05847  20960367.44449
 -10620903.92948  -8276021.28546         0.00041  22329163.92546  22329165.39448
 97 03 25 04 35 00.0000000  0  7 03 06 17 21 22 23 26
   -106610.17348         0.00041         0.00041         0.00041  25154566.56548
  -2064025.01649  -1608330.78646         0.00041  21050998.33346  21050998.94049
 -15137921.70849 -11795773.99547         0.00041  20703814.73247  20703815.19549
  -9700612.57948  -7558915.81145         0.00041  23342210.75945  23342211.13148
  -8914517.44248  -6946373.58245         0.00041  23215485.78045  23215484.69148
 -18880080.07249 -14711741.40947         0.00041  20953178.05047  20953178.32049
 -10607789.97448  -8265802.60346         0.00041  22331659.44446  22331660.71848
 97 03 25 04 35 30.0000000  0  7 03 06 17 21 22 23 26
   -213220.16948         0.00041         0.00041         0.00041  25134279.81248
  -2001319.67449  -1559469.49046         0.00041  21062930.62246  21062931.03549
 -15149117.83849 -11804498.25147         0.00041  20701684.35047  20701684.89149
  -9783389.77948  -7623417.51645         0.00041  23326459.67245  23326459.11348
  -8905692.41948  -6939496.94245         0.00041  23217164.69845  23217164.63648
 -18917454.41349 -14740864.26047         0.00041  20946065.84847  20946066.27549
 -10594151.41148  -8255175.12846         0.00041  22334254.09446  22334255.51748
 97 03 25 04 36 00.0000000  0  7 03 06 17 21 22 23 26
   -319800.02448         0.00041         0.00041         0.00041  25113998.33748
  -1938181.15049  -1510270.65746         0.00041  21074945.56646  21074945.64149
 -15160119.29749 -11813070.81447         0.00041  20699590.82847  20699591.24649
  -9865939.40848  -7687741.88745         0.00041  23310751.15045  23310750.52448
  -8896381.43348  -6932241.62646         0.00041  23218937.13146  23218937.03448
 -18954428.99349 -14769675.61147         0.00041  20939030.03747  20939030.40249
 -10579977.88048  -8244130.80046         0.00041  22336951.85246  22336952.48048
 97 03 25 04 36 30.0000000  0  7 03 06 17 21 22 23 26
   -426321.45648         0.00041         0.00041         0.00041  25093728.67348
  -1874592.43449  -1460721.02746         0.00041  21087045.99646  21087046.55949
 -15170925.72149 -11821491.40747         0.00041  20697534.30447  20697534.65549
  -9948271.71048  -7751896.90945         0.00041  23295083.62845  23295083.42548
  -8886579.11848  -6924603.47245         0.00041  23220801.11245  23220801.97348
 -18991000.24649 -14798172.68147         0.00041  20932070.40147  20932070.89349
 -10565258.44648  -8232661.08846         0.00041  22339752.76646  22339753.29648
 97 03 25 04 37 00.0000000  0  7 03 06 17 21 22 23 26
   -532769.12148         0.00041         0.00041         0.00041  25073471.19748
  -1810537.52749  -1410808.13246         0.00041  21099235.25046  21099235.64849
 -15181512.18049 -11829740.59547         0.00041  20695519.89647  20695520.20749
 -10030364.72148  -7815865.47745         0.00041  23279460.35845  23279461.51948
  -8876263.41048  -6916565.26645         0.00041  23222763.72445  23222764.58248
 -19027155.62449 -14826345.69247         0.00041  20925190.45947  20925190.95649
 -10549960.18948  -8220740.35546         0.00041  22342664.62846  22342664.90348
 97 03 25 04 37 30.0000000  0  7 03 06 17 21 22 23 26
   -639154.79547   -498041.50941         0.00041         0.00041  25053225.55847
  -1746015.96649  -1360531.60146         0.00041  21111513.43546  21111513.76549
 -15191881.23949 -11837820.37947         0.00041  20693546.72447  20693547.26649
 -10112225.18348  -7879652.82845         0.00041  23263884.25645  23263884.20648
  -8865440.50148  -6908131.84245         0.00041  23224823.17745  23224823.90748
 -19062885.66249 -14854187.27347         0.00041  20918391.23147  20918391.54249
 -10534054.82048  -8208346.54946         0.00041  22345690.61646  22345691.54448
 97 03 25 04 38 00.0000000  0  7 03 06 17 21 22 23 26
   -745507.13648   -580913.40541         0.00041         0.00041  25032987.22348
  -1681036.32349  -1309898.12446         0.00041  21123878.61246  21123879.03549
 -15202052.19849 -11845745.80547         0.00041  20691611.27747  20691611.78449
 -10193880.86648  -7943280.62345         0.00041  23248344.99345  23248345.66048
  -8854133.06548  -6899320.86245         0.00041  23226975.02345  23226974.65848
 -19098179.85949 -14881689.23347         0.00041  20911675.14447  20911675.38749
 -10517535.84648  -8195474.60746         0.00041  22348834.36546  22348835.00448
 97 03 25 04 38 30.0000000  0  7 03 06 17 21 22 23 26
   -851825.45548         0.00041         0.00041         0.00041  25012756.42048
  -1615601.28249  -1258909.79546         0.00041  21136330.50146  21136330.84449
 -15212009.88449 -11853505.04847         0.00041  20689716.46647  20689716.65649
 -10275311.54248  -8006733.08745         0.00041  23232848.67145  23232849.46348
  -8842324.53648  -6890119.42145         0.00041  23229222.48045  23229222.39948
 -19133016.70749 -14908834.81547         0.00041  20905046.13147  20905046.12949
 -10500394.25648  -8182117.51246         0.00041  22352096.42646  22352097.09948
 97 03 25 04 39 00.0000000  0  7 03 06 17 21 22 23 26
   -958131.26748         0.00041         0.00041         0.00041  24992527.63948
  -1549715.17449  -1207569.98246         0.00041  21148868.16246  21148868.50749
 -15221744.20849 -11861090.23647         0.00041  20687864.10247  20687864.55249
 -10356508.14448  -8070003.14245         0.00041  23217399.09545  23217399.03448
  -8830022.68848  -6880533.58245         0.00041  23231562.85745  23231562.54148
 -19167408.66349 -14935633.73347         0.00041  20898501.22447  20898501.55449
 -10482639.68648  -8168282.77146         0.00041  22355474.16046  22355475.33748
 97 03 25 04 39 30.0000000  0  7 03 06 17 21 22 23 26
  -1064432.59548         0.00041         0.00041         0.00041  24972298.95348
  -1483382.22249  -1155881.98646         0.00041  21161491.00546  21161491.45949
 -15231274.86649 -11868516.71547         0.00041  20686050.31447  20686050.71549
 -10437468.62648  -8133089.21345         0.00041  23201992.17245  23201992.90648
  -8817235.44048  -6870569.50045         0.00041  23233996.57845  23233996.39648
 -19201373.75149 -14962100.02547         0.00041  20892037.75147  20892038.17249
 -10464287.55948  -8153982.39446         0.00041  22358966.22746  22358967.51748
 97 03 25 04 40 00.0000000  0  7 03 06 17 21 22 23 26
  -1170717.36448   -912245.96241         0.00041         0.00041  24952073.75048
  -1416611.58349  -1103852.93246         0.00041  21174196.75646  21174197.29249
 -15240606.04049 -11875787.76547         0.00041  20684274.90147  20684275.11649
 -10518174.67048  -8195977.03045         0.00041  23186634.26545  23186634.50348
  -8803951.02648  -6860218.00145         0.00041  23236524.52345  23236525.41048
 -19234939.94649 -14988255.49247         0.00041  20885650.33547  20885650.81749
 -10445344.35948  -8139221.43246         0.00041  22362571.40746  22362572.20548
 97 03 25 04 40 30.0000000  0  7 03 06 17 21 22 23 26
  -1276982.66248         0.00041         0.00041         0.00041  24931851.12248
  -1349412.95349  -1051490.37146         0.00041  21186984.21546  21186984.62949
 -15249745.16049 -11882909.15847         0.00041  20682535.60247  20682536.11949
 -10598622.43948  -8258663.59245         0.00041  23171325.87845  23171326.24448
  -8790173.70248  -6849482.43345         0.00041  23239146.29845  23239147.14348
 -19268135.15949 -15014121.88647         0.00041  20879333.62247  20879334.04849
 -10425825.23748  -8124011.70046         0.00041  22366286.33546  22366287.30348
 97 03 25 04 41 00.0000000  0  7 03 06 17 21 22 23 26
  -1383223.95848  -1077835.50241         0.00041         0.00041  24911634.06448
  -1281784.86449   -998793.17846         0.00041  21199853.68946  21199854.03249
 -15258700.34649 -11889887.22047         0.00041  20680831.44847  20680832.01949
 -10678826.12948  -8321159.96245         0.00041  23156063.18145  23156063.66648
  -8775904.49748  -6838363.59045         0.00041  23241862.12045  23241862.60648
 -19300960.44649 -15039700.02047         0.00041  20873087.32647  20873087.55649
 -10405740.40648  -8108361.16646         0.00041  22370107.78446  22370109.18948
 97 03 25 04 41 30.0000000  0  7 03 06 17 21 22 23 26
  -1489430.45348  -1160593.76041         0.00041         0.00041  24891425.41048
  -1213752.57249   -945781.01846         0.00041  21212799.68546  21212800.29549
 -15267494.46949 -11896739.77947         0.00041  20679157.93147  20679158.54149
 -10758805.28748  -8383481.36545         0.00041  23140843.72745  23140843.63048
  -8761154.00048  -6826869.69945         0.00041  23244668.95445  23244669.32748
 -19333417.82349 -15064991.47047         0.00041  20866910.68947  20866911.33849
 -10385098.50448  -8092276.56246         0.00041  22374035.55246  22374037.28448
 97 03 25 04 42 00.0000000  0  7 03 06 17 21 22 23 26
  -1595572.98848  -1243302.21844         0.00041  24871229.62944  24871227.91948
  -1145305.39849   -892445.57046         0.00041  21225824.74546  21225825.31449
 -15276099.99749 -11903445.38847         0.00041  20677520.56847  20677521.03249
 -10838547.47548  -8445618.11046         0.00041  23125669.84746  23125669.17148
  -8745918.56348  -6814997.93945         0.00041  23247568.14445  23247568.39948
 -19365480.75349 -15089975.56147         0.00041  20860809.46047  20860809.85349
 -10363886.14348  -8075747.44346         0.00041  22378072.80746  22378073.74048
 97 03 25 04 42 30.0000000  0  7 03 06 17 21 22 23 26
  -1701669.92648         0.00041         0.00041         0.00041  24851037.43948
  -1076451.69949   -838793.35046         0.00041  21238927.33646  21238927.75249
 -15284525.17349 -11910010.46547         0.00041  20675917.39447  20675917.72049
 -10918088.10548  -8507597.80045         0.00041  23110533.33645  23110532.82348
  -8730217.35348  -6802763.23545         0.00041  23250556.53245  23250555.80648
 -19397152.66149 -15114654.95947         0.00041  20854782.37947  20854783.01149
 -10342123.55148  -8058789.57846         0.00041  22382214.11246  22382214.70248
 97 03 25 04 43 00.0000000  0  7 03 06 17 21 22 23 26
  -1807713.52648  -1408606.52841         0.00041         0.00041  24830856.71448
  -1007189.39749   -784822.74146         0.00041  21252107.09846  21252108.05449
 -15292760.73749 -11916427.77847         0.00041  20674350.09847  20674350.64149
 -10997426.85948  -8569420.19745         0.00041  23095434.97445  23095434.91148
  -8714040.63248  -6790158.01745         0.00041  23253634.02645  23253634.42948
 -19428434.83849 -15139030.66547         0.00041  20848829.52347  20848830.08049
 -10319802.01148  -8041396.15146         0.00041  22386461.24246  22386462.56448
 97 03 25 04 43 30.0000000  0  7 03 06 17 21 22 23 26
  -1913696.55448         0.00041         0.00041         0.00041  24810690.03848
   -937502.05249   -730520.92746         0.00041  21265368.54246  21265369.08049
 -15300787.34249 -11922682.26747         0.00041  20672822.82047  20672823.06649
 -11076545.96148  -8631071.42346         0.00041  23080380.27446  23080379.22348
  -8697383.37248  -6777178.33345         0.00041  23256803.59345  23256803.89848
 -19459314.79949 -15163092.95847         0.00041  20842953.13247  20842953.89149
 -10296899.10148  -8023549.71646         0.00041  22390819.29946  22390820.97248
 97 03 25 04 44 00.0000000  0  7 03 06 17 21 22 23 26
  -2019636.95548  -1573741.63141         0.00041         0.00041  24790529.88848
   -867386.40249   -675885.37646         0.00041  21278711.19546  21278711.42949
 -15308612.08149 -11928779.46547         0.00041  20671333.53747  20671333.78749
 -11155446.41048  -8692552.27146         0.00041  23065365.86846  23065364.92348
  -8680253.45548  -6763830.35545         0.00041  23260064.15445  23260063.19348
 -19489797.85549 -15186845.98047         0.00041  20837152.47347  20837153.06149
 -10273433.72948  -8005264.99246         0.00041  22395284.83746  22395286.52648
 97 03 25 04 44 30.0000000  0  7 03 06 17 21 22 23 26
  -2125556.75748  -1656276.52041         0.00041         0.00041  24770372.34248
   -796852.48349   -620923.89746         0.00041  21292133.42146  21292133.66149
 -15316241.25149 -11934724.27447         0.00041  20669881.66447  20669882.06149
 -11234133.71748  -8753867.04446         0.00041  23050391.98546  23050391.38748
  -8662660.60548  -6750121.65345         0.00041  23263411.92145  23263411.44448
 -19519893.21049 -15210296.89647         0.00041  20831425.47247  20831426.14949
 -10249415.24348  -7986549.28346         0.00041  22399854.51446  22399857.03848
 97 03 25 04 45 00.0000000  0  7 03 06 17 21 22 23 26
  -2231441.87748  -1738784.32741         0.00041         0.00041  24750223.88948
   -725893.25449   -565631.01646         0.00041  21305636.77746  21305637.03049
 -15323672.88349 -11940515.15347         0.00041  20668467.53747  20668468.08549
 -11312587.95948  -8815000.20446         0.00041  23035462.69046  23035462.24748
  -8644613.54348  -6736059.02845         0.00041  23266844.63645  23266845.26148
 -19549587.10249 -15233434.98247         0.00041  20825775.02147  20825775.81749
 -10224828.26748  -7967390.58846         0.00041  22404533.89346  22404535.56748
 97 03 25 04 45 30.0000000  0  7 03 06 17 21 22 23 26
  -2337287.36348  -1821261.39944         0.00041  24730086.10844  24730082.95448
   -654497.14449   -509997.70646         0.00041  21319222.79246  21319223.10549
 -15330909.69249 -11946154.22347         0.00041  20667090.43647  20667090.90549
 -11390806.44148  -8875949.65846         0.00041  23020577.74246  23020577.65348
  -8626123.36448  -6721651.10145         0.00041  23270363.10645  23270364.76848
 -19578854.44649 -15256240.69547         0.00041  20820205.68247  20820206.15949
 -10199669.48048  -7947786.33146         0.00041  22409321.57046  22409323.16948
 97 03 25 04 46 00.0000000  0  7 03 06 17 21 22 23 26
  -2443081.45248  -1903698.30744         0.00041  24709950.20844  24709950.62848
   -582669.17149   -454027.87546         0.00041  21332890.87146  21332891.32649
 -15337942.68849 -11951634.48147         0.00041  20665752.19647  20665752.56849
 -11468785.95748  -8936712.90846         0.00041  23005739.76446  23005738.78848
  -8607197.10948  -6706903.38245         0.00041  23273966.09145  23273967.01148
 -19607702.17349 -15278719.42947         0.00041  20814716.10047  20814716.50849
 -10173935.97148  -7927734.23746         0.00041  22414218.61546  22414219.90048
 97 03 25 04 46 30.0000000  0  7 03 06 17 21 22 23 26
  -2548790.07848  -1986068.61144         0.00041  24689832.70344  24689835.13848
   -510380.67349   -397699.19746         0.00041  21346647.62246  21346647.49249
 -15344729.26749 -11956922.73647         0.00041  20664460.89847  20664461.25349
 -11546494.38148  -8997264.90846         0.00041  22990951.58246  22990951.02348
  -8587801.08548  -6691789.60745         0.00041  23277656.39345  23277657.35548
 -19636101.00349 -15300848.37647         0.00041  20809312.00547  20809312.50849
 -10147573.12348  -7907191.74846         0.00041  22419235.39746  22419236.70748
 97 03 25 04 47 00.0000000  0  7 03 06 17 21 22 23 26
  -2654421.09848  -2068378.50444         0.00041  24669731.61344  24669733.92648
   -437645.23649   -341022.24046         0.00041  21360488.40246  21360488.65849
 -15351294.11449 -11962038.20247         0.00041  20663211.53747  20663212.01249
 -11623953.42148  -9057622.60246         0.00041  22976212.33246  22976211.51848
  -8567944.90448  -6676317.27445         0.00041  23281434.92645  23281435.85948
 -19664074.11549 -15322645.59447         0.00041  20803989.06547  20803989.43849
 -10120607.92448  -7886179.89846         0.00041  22424366.10246  22424367.85848
 97 03 25 04 47 30.0000000  0  7 03 06 17 21 22 23 26
  -2759987.37948  -2150637.88344         0.00041  24649644.97144  24649645.65548
   -364486.21049   -284015.21646         0.00041  21374409.97046  21374410.22249
 -15357645.32049 -11966987.18747         0.00041  20662002.90247  20662003.40749
 -11701178.22448  -9117797.74946         0.00041  22961516.95046  22961516.10048
  -8547622.95048  -6660482.00845         0.00041  23285302.12945  23285303.57248
 -19691638.39049 -15344124.23747         0.00041  20798743.77447  20798744.01649
 -10093073.13248  -7864724.21546         0.00041  22429607.06546  22429607.83948
 97 03 25 04 48 00.0000000  0  7 03 06 17 21 22 23 26
  -2865468.57648  -2232831.03544         0.00041  24629573.30244  24629573.38648
   -290906.56649   -226680.44446         0.00041  21388412.31646  21388412.30149
 -15363768.59849 -11971758.56447         0.00041  20660837.50247  20660837.88149
 -11778144.19748  -9177771.22046         0.00041  22946869.75446  22946869.96848
  -8526802.57548  -6644258.35245         0.00041  23289264.03745  23289265.51948
 -19718788.39549 -15365280.07647         0.00041  20793577.06547  20793577.56449
 -10064953.63448  -7842812.90046         0.00041  22434957.28946  22434958.64648
 97 03 25 04 48 30.0000000  0  7 03 06 17 21 22 23 26
  -2970864.26148  -2314957.51744         0.00041  24609517.47144  24609518.30848
   -216903.12049   -169015.44346         0.00041  21402494.44546  21402494.71649
 -15369693.29249 -11976375.20147         0.00041  20659710.17747  20659710.51049
 -11854861.07148  -9237550.59746         0.00041  22932271.68246  22932271.35648
  -8505476.83548  -6627640.90245         0.00041  23293322.34345  23293323.30848
 -19745524.38349 -15386113.30547         0.00041  20788489.53047  20788490.08649
 -10036264.29648  -7820457.56346         0.00041  22440416.38246  22440418.13748
 97 03 25 04 49 00.0000000  0  7 03 06 17 21 22 23 26
  -3076182.22248  -2397023.44144         0.00041  24589477.34144  24589476.56348
   -142490.40149   -111031.52646         0.00041  21416654.16546  21416654.66249
 -15375444.16649 -11980856.40347         0.00041  20658615.70147  20658616.33249
 -11931344.22948  -9297147.85046         0.00041  22917717.13646  22917716.35848
  -8483654.40048  -6610636.42445         0.00041  23297475.72145  23297475.10448
 -19771859.16249 -15406633.89747         0.00041  20783478.32647  20783478.59549
 -10007035.59948  -7797681.94046         0.00041  22445979.09146  22445979.85648
 97 03 25 04 49 30.0000000  0  7 03 06 17 21 22 23 26
  -3181422.15848  -2479028.55944         0.00041  24569446.49544  24569448.70548
    -67669.30449    -52729.39346         0.00041  21430892.50346  21430892.72549
 -15381006.08849 -11985190.36247         0.00041  20657557.39547  20657557.99549
 -12007583.40048  -9356554.97946         0.00041  22903209.42246  22903208.43148
  -8461340.77448  -6593249.19045         0.00041  23301721.64145  23301721.32248
 -19797776.99949 -15426829.60347         0.00041  20778546.43647  20778546.59949
  -9977250.72348  -7774472.93546         0.00041  22451646.78446  22451647.79048
 97 03 25 04 50 00.0000000  0  7 03 06 17 21 22 23 26
  -3286578.20548  -2560968.33244         0.00041  24549439.37844  24549438.33648
      7568.44949      5897.41246         0.00041  21445209.52046  21445210.59249
 -15386368.62949 -11989368.96747         0.00041  20656537.01047  20656537.47449
 -12083569.54048  -9415764.94846         0.00041  22888749.51746  22888749.11348
  -8438550.26048  -6575490.36345         0.00041  23306058.22345  23306058.17748
 -19823275.75549 -15446698.75147         0.00041  20773694.06147  20773694.28149
  -9946885.76748  -7750811.92546         0.00041  22457425.05046  22457425.59948
 97 03 25 04 50 30.0000000  0  7 03 06 17 21 22 23 26
  -3391660.24548  -2642850.40644         0.00041  24529442.11944  24529442.31448
     83229.29549     64853.89346         0.00041  21459607.01746  21459608.19149
 -15391516.67249 -11993380.43447         0.00041  20655557.41547  20655557.80049
 -12159312.11648  -9474785.12546         0.00041  22874335.74546  22874335.87648
  -8415303.44548  -6557375.96845         0.00041  23310483.25145  23310481.75848
 -19848354.61249 -15466240.70947         0.00041  20768921.61747  20768921.97849
  -9915948.10648  -7726704.66046         0.00041  22463311.85246  22463312.82948
 97 03 25 04 51 00.0000000  0  7 03 06 17 21 22 23 26
  -3496670.25348  -2724676.37344         0.00041  24509459.41644  24509460.55948
    159292.38648    124123.81846         0.00041  21474081.78946  21474082.34348
 -15396431.73849 -11997210.35747         0.00041  20654621.93747  20654622.49949
 -12234795.43248  -9533603.27646         0.00041  22859971.79046  22859972.00048
  -8391610.73048  -6538914.12445         0.00041  23314991.07845  23314990.13848
 -19873013.87449 -15485455.71747         0.00041  20764229.30247  20764229.46849
  -9884441.63348  -7702154.15946         0.00041  22469307.38446  22469308.07848
 97 03 25 04 51 30.0000000  0  7 03 06 17 21 22 23 26
  -3601585.56948  -2806428.55144         0.00041  24489496.72944  24489496.05248
    235756.50848    183706.22946         0.00041  21488632.73646  21488633.05248
 -15401096.58149 -12000845.29147         0.00041  20653734.30047  20653734.69349
 -12310009.39248  -9592211.54646         0.00041  22845659.65546  22845659.08448
  -8367468.88848  -6520102.31245         0.00041  23319584.52945  23319584.07448
 -19897254.84849 -15504344.77947         0.00041  20759616.64947  20759616.53849
  -9852354.52848  -7677151.21646         0.00041  22475412.90946  22475414.37348
 97 03 25 04 52 00.0000000  0  7 03 06 17 21 22 23 26
  -3706387.88248  -2888092.68244         0.00041  24469550.70644  24469552.19648
    312626.15248    243604.62546         0.00041  21503260.52846  21503260.83548
 -15405521.92249 -12004293.59847         0.00041  20652892.27547  20652892.64749
 -12384959.54848  -9650614.25146         0.00041  22831396.91846  22831397.02448
  -8342868.82748  -6500933.43845         0.00041  23324265.15045  23324266.25148
 -19921086.97149 -15522915.25247         0.00041  20755081.10047  20755081.37949
  -9819686.41648  -7651695.54646         0.00041  22481629.92946  22481630.80348
 97 03 25 04 52 30.0000000  0  7 03 06 17 21 22 23 26
  -3811074.13248  -2969666.38044         0.00041  24449629.68944  24449630.63548
    389887.70348    303808.41646         0.00041  21517962.73846  21517963.19048
 -15409722.63049 -12007566.87247         0.00041  20652092.86947  20652093.24749
 -12459648.71848  -9708813.58946         0.00041  22817183.92746  22817183.56748
  -8317801.08148  -6481400.14145         0.00041  23329036.25045  23329036.96948
 -19944519.84549 -15541174.62747         0.00041  20750621.80247  20750622.26849
  -9786455.49648  -7625801.31546         0.00041  22487953.98246  22487954.38848
 97 03 25 04 53 00.0000000  0  7 03 06 17 21 22 23 26
  -3915626.69348  -3051135.86244         0.00041  24429733.22944  24429734.82848
    467546.43148    364321.70046         0.00041  21532740.90246  21532740.78948
 -15413707.59449 -12010672.03147         0.00041  20651334.55247  20651335.00349
 -12534070.87848  -9766804.87146         0.00041  22803021.62746  22803021.97748
  -8292255.16248  -6461494.24645         0.00041  23333897.39845  23333898.40148
 -19967554.61449 -15559123.79047         0.00041  20746238.31847  20746238.80949
  -9752651.83548  -7599460.78946         0.00041  22494386.20746  22494387.15748
 97 03 25 04 53 30.0000000  0  7 03 06 17 21 22 23 26
  -4020057.34048  -3132510.39444         0.00041  24409862.17144  24409862.66348
    545608.26448    425149.08146         0.00041  21547595.20946  21547595.42348
 -15417491.88149 -12013620.81747         0.00041  20650614.36047  20650615.15649
 -12608260.25848  -9824614.77346         0.00041  22788904.42446  22788904.23048
  -8266245.75348  -6441227.19145         0.00041  23338846.28145  23338847.73048
 -19990204.05449 -15576772.69747         0.00041  20741928.38547  20741928.78749
  -9718277.99148  -7572675.96346         0.00041  22500927.30546  22500928.17948
 97 03 25 04 54 00.0000000  0  7 03 06 17 21 22 23 26
  -4124383.01148  -3213803.11644         0.00041  24390008.70244  24390011.13748
    624082.96548    486298.18846         0.00041  21562528.46946  21562528.53548
 -15421074.59949 -12016412.53947         0.00041  20649932.70347  20649933.29149
 -12682207.91448  -9882236.30546         0.00041  22774832.55446  22774832.64248
  -8239787.48748  -6420610.38145         0.00041  23343880.93545  23343882.62648
 -20012459.25349 -15594114.39647         0.00041  20737693.42047  20737693.84549
  -9683335.04448  -7545447.68546         0.00041  22507576.55146  22507578.03548
 97 03 25 04 54 30.0000000  0  7 03 06 17 21 22 23 26
  -4228619.15648  -3295026.06844         0.00041  24370175.98344  24370175.44348
    702970.87848    547769.26046         0.00041  21577540.69746  21577540.71448
 -15424442.96449 -12019037.24247         0.00041  20649291.74047  20649292.29749
 -12755898.52648  -9939657.55146         0.00041  22760809.30946  22760809.86148
  -8212896.14548  -6399656.10745         0.00041  23348998.92145  23348999.74548
 -20034319.02349 -15611147.96847         0.00041  20733533.39447  20733533.85949
  -9647824.20348  -7517776.89946         0.00041  22514333.56946  22514335.17848
 97 03 25 04 55 00.0000000  0  7 03 06 17 21 22 23 26
  -4332780.16248  -3376190.49244         0.00041  24350353.61044  24350353.17448
    782277.19548    609566.37546         0.00041  21592631.95946  21592632.48348
 -15427594.23949 -12021492.79047         0.00041  20648692.23747  20648692.68549
 -12829338.09248  -9996883.17246         0.00041  22746834.53946  22746834.28448
  -8185600.50048  -6378386.78045         0.00041  23354192.89645  23354193.83848
 -20055788.04349 -15627877.06547         0.00041  20729448.11547  20729448.55549
  -9611747.04048  -7489664.81646         0.00041  22521199.10346  22521200.64948
 97 03 25 04 55 30.0000000  0  7 03 06 17 21 22 23 26
  -4436866.36048  -3457296.61444         0.00041  24330545.19844  24330546.06748
    861993.13748    671682.68346         0.00041  21607802.12246  21607801.99848
 -15430524.77249 -12023776.31947         0.00041  20648134.37147  20648134.97349
 -12902519.49148 -10053907.63146         0.00041  22732908.50846  22732908.46448
  -8157902.90148  -6356804.25745         0.00041  23359463.41245  23359463.88248
 -20076877.53249 -15644310.42747         0.00041  20725434.95947  20725435.50949
  -9575114.10648  -7461119.65746         0.00041  22528169.92746  22528171.64648
 97 03 25 04 56 00.0000000  0  7 03 06 17 21 22 23 26
  -4540861.21848  -3538331.54344         0.00041  24310756.32344  24310757.13348
    942118.26448    734117.82746         0.00041  21623049.03446  21623049.27548
 -15433224.39049 -12025879.91547         0.00041  20647620.67247  20647621.25749
 -12975405.62648 -10110702.01046         0.00041  22719038.60646  22719038.58148
  -8129788.55448  -6334896.98845         0.00041  23364812.65345  23364813.90948
 -20097573.37649 -15660437.04847         0.00041  20721496.45547  20721497.01849
  -9537913.86748  -7432132.45646         0.00041  22535249.05946  22535250.75248
 97 03 25 04 56 30.0000000  0  7 03 06 17 21 22 23 26
  -4644759.69548  -3619291.39444         0.00041  24290984.56144  24290985.40748
   1022637.57748    796860.13246         0.00041  21638371.42646  21638371.45548
 -15435718.55649 -12027823.41347         0.00041  20647146.06047  20647146.75349
 -13048023.45148 -10167287.31746         0.00041  22705219.41046  22705219.70948
  -8101252.21248  -6312660.87245         0.00041  23370243.68945  23370243.67448
 -20117891.58549 -15676269.40247         0.00041  20717630.06847  20717630.56749
  -9500155.07548  -7402710.01846         0.00041  22542434.41446  22542435.98748
 97 03 25 04 57 00.0000000  0  7 03 06 17 21 22 23 26
  -4748542.95548  -3700161.42944         0.00041  24271237.90044  24271236.13348
   1103537.33248    859898.88446         0.00041  21653765.69446  21653766.08848
 -15438023.43249 -12029619.40947         0.00041  20646707.34447  20646708.00649
 -13120384.63548 -10223672.64446         0.00041  22691449.75046  22691449.79248
  -8072267.79048  -6290075.62545         0.00041  23375759.68645  23375759.22848
 -20137826.13949 -15691802.80747         0.00041  20713836.61147  20713837.15149
  -9461840.43448  -7372854.46946         0.00041  22549726.41546  22549727.34248
 97 03 25 04 57 30.0000000  0  7 03 06 17 21 22 23 26
  -4852198.90748  -3780932.30644         0.00041  24251510.64544  24251511.10348
   1184815.11548    923232.20346         0.00041  21669232.87146  21669233.18148
 -15440149.73649 -12031276.26547         0.00041  20646302.82747  20646303.27849
 -13192495.85948 -10279863.19746         0.00041  22677727.12346  22677727.45748
  -8042815.74648  -6267125.99745         0.00041  23381363.86245  23381364.04048
 -20157368.59649 -15707030.68247         0.00041  20710117.98347  20710118.58649
  -9422964.56248  -7342561.57046         0.00041  22557123.89146  22557125.05548
 97 03 25 04 58 00.0000000  0  7 03 06 17 21 22 23 26
  -4955758.35748  -3861627.96144         0.00041  24231805.43244  24231803.83248
   1266455.34248    986847.93346         0.00041  21684768.17446  21684768.49848
 -15442123.32449 -12032814.11947         0.00041  20645927.32847  20645927.66549
 -13264383.93348 -10335879.86546         0.00041  22664047.38346  22664047.70848
  -8012920.44348  -6243830.97045         0.00041  23387054.24245  23387052.99748
 -20176522.90949 -15721956.11147         0.00041  20706472.73747  20706473.33049
  -9383541.22648  -7311842.08746         0.00041  22564625.25846  22564626.95348
 97 03 25 04 58 30.0000000  0  7 03 06 17 21 22 23 26
  -5059227.85448  -3942253.52044         0.00041  24212116.60144  24212114.78748
   1348455.24148   1050743.94746         0.00041  21700371.98546  21700372.58748
 -15443942.71149 -12034231.81547         0.00041  20645580.94447  20645581.47349
 -13336066.95348 -10391736.75246         0.00041  22650406.44846  22650406.59048
  -7982582.62548  -6220191.11845         0.00041  23392826.65345  23392826.11448
 -20195295.73949 -15736584.28247         0.00041  20702900.45747  20702901.00449
  -9343598.25848  -7280717.69946         0.00041  22572226.79946  22572227.80748
 97 03 25 04 59 00.0000000  0  7 03 06 17 21 22 23 26
  -5162588.25248  -4022794.09644         0.00041  24192448.29744  24192445.90648
   1430828.57048   1114930.95046         0.00041  21716047.27946  21716047.91148
 -15445561.31049 -12035493.05747         0.00041  20645272.80847  20645273.22049
 -13407516.92348 -10447412.04446         0.00041  22636810.58646  22636810.21048
  -7951810.58248  -6196212.92145         0.00041  23398682.56345  23398682.09148
 -20213665.21749 -15750898.15347         0.00041  20699405.04747  20699405.57149
  -9303129.11148  -7249183.29646         0.00041  22579927.92546  22579928.36948
 97 03 25 04 59 30.0000000  0  7 03 06 17 21 22 23 26
  -5265845.99048  -4103254.66144         0.00041  24172796.39044  24172796.79648
   1513593.30048   1179422.94346         0.00041  21731797.31046  21731797.40948
 -15446954.33949 -12036578.53747         0.00041  20645007.80447  20645008.16249
 -13478728.98148 -10502901.94546         0.00041  22623259.00346  22623259.14548
  -7920629.70548  -6171916.14645         0.00041  23404615.63345  23404615.77548
 -20231635.06349 -15764900.62147         0.00041  20695985.49247  20695985.90249
  -9262141.99148  -7217245.27446         0.00041  22587727.31046  22587728.40048
 97 03 25 05 00 00.0000000  0  7 03 06 17 21 22 23 26
  -5368985.20748  -4183622.89244         0.00041  24153165.37044  24153169.85048
   1596743.35648   1244215.17946         0.00041  21747620.13946  21747620.15848
 -15448106.65649 -12037476.45047         0.00041  20644788.28547  20644789.00549
 -13549691.31448 -10558197.25946         0.00041  22609755.61146  22609755.26948
  -7889034.32348  -6147296.37145         0.00041  23410628.42845  23410628.86348
 -20249198.23549 -15778586.20247         0.00041  20692643.13547  20692643.55249
  -9220646.95548  -7184911.46946         0.00041  22595623.82446  22595624.71448
 97 03 25 05 00 30.0000000  0  7 03 06 17 21 22 23 26
  -5471967.82148  -4263869.07144         0.00041  24133570.61244  24133573.77048
   1680271.98148   1309302.41346         0.00041  21763514.96246  21763515.30648
 -15448993.83049 -12038167.75847         0.00041  20644619.16547  20644620.16349
 -13620392.60148 -10613289.16746         0.00041  22596301.55146  22596301.40448
  -7857023.45248  -6122352.86145         0.00041  23416720.82645  23416720.46948
 -20266347.30349 -15791949.10847         0.00041  20689379.77447  20689380.22649
  -9178623.88948  -7152166.21846         0.00041  22603620.71046  22603621.64048
 97 03 25 05 01 00.0000000  0  7 03 06 17 21 22 23 26
  -5574793.24448  -4343992.76244         0.00041  24114006.48044  24114006.26048
   1764177.94448   1374683.66946         0.00041  21779481.50446  21779481.88948
 -15449631.43349 -12038664.59647         0.00041  20644498.42947  20644499.01749
 -13690828.60048 -10668174.34646         0.00041  22582897.79746  22582897.87348
  -7824604.59448  -6097091.42045         0.00041  23422888.32945  23422889.93348
 -20283085.16549 -15804991.59047         0.00041  20686194.89547  20686195.28849
  -9136040.27548  -7118984.17146         0.00041  22611723.62946  22611724.53448
 97 03 25 05 01 30.0000000  0  7 03 06 17 21 22 23 26
  -5677459.44248  -4423992.36744         0.00041  24094468.71544  24094469.24448
   1848468.72948   1440364.78446         0.00041  21795521.83846  21795522.27048
 -15450044.13949 -12038986.19247         0.00041  20644420.06047  20644420.45449
 -13760991.26348 -10722846.53746         0.00041  22569546.44846  22569546.73548
  -7791749.70248  -6071490.21745         0.00041  23429140.90245  23429141.74148
 -20299413.31449 -15817714.81547         0.00041  20683087.97947  20683088.11649
  -9092877.63248  -7085350.94546         0.00041  22619937.24946  22619938.07048
 97 03 25 05 02 00.0000000  0  7 03 06 17 21 22 23 26
  -5779971.27548  -4503871.74344         0.00041  24074959.29044  24074960.53248
   1933124.38448   1506330.21746         0.00041  21811631.56546  21811631.45348
 -15450255.75249 -12039151.08947         0.00041  20644379.88247  20644380.20049
 -13830883.10448 -10777307.70146         0.00041  22556246.08446  22556246.47748
  -7758456.38048  -6045547.38045         0.00041  23435476.00245  23435477.10948
 -20315344.69949 -15830128.87347         0.00041  20680056.10147  20680056.50149
  -9049126.19048  -7051258.90946         0.00041  22628262.45846  22628263.94948
 97 03 25 05 02 30.0000000  0  7 03 06 17 21 22 23 26
  -5882321.67948  -4583625.26744         0.00041  24055485.83444  24055484.08948
   2018181.05648   1572608.13946         0.00041  21827816.78546  21827817.12148
 -15450248.43649 -12039145.39247         0.00041  20644381.12147  20644381.69649
 -13900470.15748 -10831531.36446         0.00041  22543004.01846  22543004.41048
  -7724717.16848  -6019257.10445         0.00041  23441897.11345  23441897.66748
 -20330873.05649 -15842228.87947         0.00041  20677101.06647  20677101.53949
  -9004745.07648  -7016676.21946         0.00041  22636707.89546  22636709.65348
 97 03 25 05 03 00.0000000  0  7 03 06 17 21 22 23 26
  -5984548.64048  -4663282.62844         0.00041  24036029.69844  24036032.44348
   2103631.28348   1639192.72546         0.00041  21844077.34846  21844077.88748
 -15450057.70249 -12038996.76647         0.00041  20644417.40947  20644417.92649
 -13969775.37548 -10885535.41646         0.00041  22529816.03846  22529815.84148
  -7690552.30048  -5992635.15345         0.00041  23448397.52645  23448398.76348
 -20346038.34349 -15854045.97447         0.00041  20674215.28447  20674215.91749
  -8959782.85348  -6981640.71546         0.00041  22645264.29646  22645265.63348
 97 03 25 05 03 30.0000000  0  7 03 06 17 21 22 23 26
  -6086653.66948  -4742844.97444         0.00041  24016600.47044  24016602.74148
   2189462.64148   1706074.30046         0.00041  21860410.60846  21860410.97248
 -15449667.71149 -12038692.87947         0.00041  20644491.56947  20644492.09849
 -14038811.92648 -10939330.12046         0.00041  22516678.61446  22516678.91548
  -7655970.60648  -5965688.39145         0.00041  23454978.31645  23454979.76248
 -20360843.10249 -15865582.13147         0.00041  20671397.79347  20671398.54649
  -8914274.07148  -6946179.34446         0.00041  22653924.07646  22653925.52048
 97 03 25 05 04 00.0000000  0  7 03 06 17 21 22 23 26
  -6188650.02848  -4822322.63144         0.00041  23997192.49444  23997192.80248
   2275651.35848   1773234.32146         0.00041  21876811.95946  21876812.09548
 -15449068.88149 -12038226.26047         0.00041  20644605.63447  20644606.22249
 -14107595.91248 -10992928.01846         0.00041  22503589.36046  22503589.78848
  -7621006.58248  -5938443.70945         0.00041  23461631.54745  23461633.24148
 -20375293.50549 -15876842.16947         0.00041  20668648.14847  20668648.78449
  -8868242.87548  -6910310.87646         0.00041  22662683.63746  22662685.03948
 97 03 25 05 04 30.0000000  0  7 03 06 17 21 22 23 26
  -6290538.21548  -4901716.02444         0.00041  23977804.69844  23977803.50848
   2362178.89448   1840658.36346         0.00041  21893277.47346  21893277.75148
 -15448259.85149 -12037595.84947         0.00041  20644759.48747  20644760.27849
 -14176151.69748 -11046348.10246         0.00041  22490543.48046  22490543.73048
  -7585689.58648  -5910923.99645         0.00041  23468353.14445  23468353.59748
 -20389395.86549 -15887831.01047         0.00041  20665964.34847  20665965.06949
  -8821732.08048  -6874068.68846         0.00041  22671534.10546  22671535.76448
 97 03 25 05 05 00.0000000  0  7 03 06 17 21 22 23 26
  -6392288.63148  -4981002.02044         0.00041  23958441.00644  23958440.52348
   2449043.97648   1908345.42646         0.00041  21909807.86546  21909807.79548
 -15447216.50149 -12036782.85747         0.00041  20644957.97747  20644958.50849
 -14244488.82948 -11099597.79846         0.00041  22477539.97846  22477539.79048
  -7550000.91348  -5883114.65345         0.00041  23475144.78245  23475145.16848
 -20403120.58149 -15898525.58347         0.00041  20663352.49647  20663353.26049
  -8774753.87948  -6837462.29246         0.00041  22680474.52146  22680475.60248
 97 03 25 05 05 30.0000000  0  7 03 06 17 21 22 23 26
  -6493864.07048  -5060151.70744         0.00041  23939113.77244  23939112.13348
   2536257.93348   1976304.33446         0.00041  21926404.04546  21926404.25148
 -15445912.94949 -12035767.10447         0.00041  20645206.07247  20645206.48949
 -14312582.75248 -11152657.98846         0.00041  22464582.16446  22464581.95948
  -7513916.71048  -5854997.10745         0.00041  23482010.25445  23482011.28348
 -20416423.33649 -15908891.36047         0.00041  20660821.25547  20660821.99949
  -8727271.44648  -6800462.99446         0.00041  22689510.02346  22689510.54048
 97 03 25 05 06 00.0000000  0  7 03 06 17 21 22 23 26
  -6595245.16948  -5139149.94644         0.00041  23919819.21844  23919820.46848
   2623825.69348   2044538.94046         0.00041  21943067.62346  21943067.56248
 -15444372.05549 -12034566.41247         0.00041  20645499.37747  20645499.78449
 -14380421.49248 -11205519.33046         0.00041  22451672.13746  22451672.64948
  -7477438.74148  -5826572.74445         0.00041  23488951.67145  23488952.56948
 -20429310.99649 -15918933.68347         0.00041  20658368.93847  20658369.47649
  -8679279.62948  -6763066.76146         0.00041  22698642.42246  22698643.20148
 97 03 25 05 06 30.0000000  0  7 03 06 17 21 22 23 26
  -6696410.67348  -5217980.18744         0.00041  23900567.58444  23900568.80548
   2711764.43448   2113062.63546         0.00041  21959801.38146  21959801.72448
 -15442607.98549 -12033191.81847         0.00041  20645835.05647  20645835.38749
 -14448002.23348 -11258179.63746         0.00041  22438812.20146  22438812.35748
  -7440543.72348  -5797823.39145         0.00041  23495973.01645  23495972.90548
 -20441784.02749 -15928652.91347         0.00041  20655995.39747  20655995.87849
  -8630764.60748  -6725262.84546         0.00041  22707873.36446  22707875.12248
 97 03 25 05 07 00.0000000  0  7 03 06 17 21 22 23 26
  -6797374.22048  -5296653.06944         0.00041  23881354.89044  23881356.22448
   2800066.70748   2181869.60146         0.00041  21976604.78546  21976605.36848
 -15440638.88849 -12031657.45547         0.00041  20646209.81747  20646210.20849
 -14515312.35748 -11310629.06646         0.00041  22426003.49046  22426004.07348
  -7403221.79148  -5768741.38545         0.00041  23503075.21445  23503074.97848
 -20453853.31149 -15938057.53547         0.00041  20653698.67747  20653699.23549
  -8581706.67348  -6687035.88446         0.00041  22717209.29346  22717210.80748
 97 03 25 05 07 30.0000000  0  7 03 06 17 21 22 23 26
  -6898140.10948  -5375171.93644         0.00041  23862179.88744  23862180.86248
   2888740.39548   2250965.96246         0.00041  21993479.05546  21993479.61548
 -15438464.83349 -12029963.38947         0.00041  20646623.50847  20646623.92949
 -14582324.16548 -11362846.05246         0.00041  22413250.99746  22413251.62348
  -7365472.57548  -5739326.41245         0.00041  23510258.87445  23510258.52148
 -20465537.72849 -15947162.26647         0.00041  20651475.29347  20651475.54949
  -8532085.39048  -6648369.94746         0.00041  22726651.83046  22726653.71648
 97 03 25 05 08 00.0000000  0  7 03 06 17 21 22 23 26
  -6998732.26648  -5453555.39844         0.00041  23843038.44444  23843038.36848
   2977790.34748   2320355.52046         0.00041  22010424.75946  22010425.37948
 -15436088.68249 -12028111.85447         0.00041  20647075.57347  20647076.10649
 -14649038.43448 -11414831.18846         0.00041  22400556.60546  22400556.19348
  -7327298.88848  -5709580.70645         0.00041  23517522.86245  23517522.37248
 -20476864.98949 -15955988.69347         0.00041  20649319.78547  20649320.30949
  -8481914.35448  -6609275.63246         0.00041  22736199.75846  22736200.81648
 97 03 25 05 08 30.0000000  0  7 03 06 17 21 22 23 26
  -7099192.85948  -5531836.36944         0.00041  23823920.65744  23823920.85448
   3067189.45348   2390017.15046         0.00041  22027436.65646  22027437.17248
 -15433504.99449 -12026098.59447         0.00041  20647567.24747  20647567.76049
 -14715478.38048 -11466602.56946         0.00041  22387913.36046  22387913.20048
  -7288725.38848  -5679523.44245         0.00041  23524863.03845  23524862.66848
 -20487858.08849 -15964554.73747         0.00041  20647227.72447  20647228.37149
  -8431206.09548  -6569762.70346         0.00041  22745849.10046  22745850.09148
 97 03 25 05 09 00.0000000  0  7 03 06 17 21 22 23 26
  -7199528.90348  -5610020.29844         0.00041  23804827.01044  23804827.51848
   3156934.17148   2459948.09346         0.00041  22044515.13546  22044514.50648
 -15430697.90149 -12023911.25647         0.00041  20648101.46047  20648101.96249
 -14781632.81348 -11518151.46046         0.00041  22375324.42346  22375324.21648
  -7249768.22348  -5649167.23945         0.00041  23532276.34345  23532276.36648
 -20498516.26049 -15972859.80347         0.00041  20645199.48647  20645199.95649
  -8379972.76548  -6529840.62446         0.00041  22755598.67346  22755599.75448
 97 03 25 05 09 30.0000000  0  7 03 06 17 21 22 23 26
  -7299751.75448  -5688115.99844         0.00041  23785755.27744  23785755.82848
   3247008.90048   2530136.18046         0.00041  22061655.49046  22061655.42048
 -15427668.68949 -12021550.83747         0.00041  20648677.85447  20648678.19749
 -14847531.73148 -11569501.25646         0.00041  22362784.08946  22362784.19248
  -7210463.35048  -5618540.06245         0.00041  23539755.67145  23539755.97148
 -20508854.33349 -15980915.44047         0.00041  20643232.23847  20643232.75649
  -8328248.49948  -6489536.00346         0.00041  22765441.29946  22765442.30948
 97 03 25 05 10 00.0000000  0  7 03 06 17 21 22 23 26
  -7399842.20848  -5766108.55344         0.00041  23766709.65144  23766710.54148
   3337412.99248   2600580.92046         0.00041  22078858.91346  22078859.08348
 -15424404.61549 -12019007.40447         0.00041  20649299.05647  20649299.43849
 -14913179.15548 -11620655.08346         0.00041  22350291.84646  22350292.23748
  -7170808.41048  -5587640.12145         0.00041  23547302.73845  23547302.30948
 -20518845.94549 -15988701.10747         0.00041  20641330.68847  20641331.52749
  -8276037.10548  -6448851.80646         0.00041  22775376.34846  22775377.89948
 97 03 25 05 10 30.0000000  0  7 03 06 17 21 22 23 26
  -7499768.12048  -5843972.86644         0.00041  23747694.84844  23747695.25848
   3428134.39048   2671272.91246         0.00041  22096122.85046  22096123.00248
 -15420889.50849 -12016268.36247         0.00041  20649968.00447  20649968.36449
 -14978565.63048 -11671605.57246         0.00041  22337849.22246  22337849.22748
  -7130797.41248  -5556462.73145         0.00041  23554915.64645  23554916.25148
 -20528462.92249 -15996194.84547         0.00041  20639500.69147  20639501.60349
  -8223327.44648  -6407779.33746         0.00041  22785406.36146  22785408.35648
 97 03 25 05 11 00.0000000  0  7 03 06 17 21 22 23 26
  -7599502.85348  -5921688.24444         0.00041  23728715.91544  23728715.75548
   3519180.60848   2742217.99146         0.00041  22113447.79546  22113448.31548
 -15417121.72949 -12013332.43447         0.00041  20650685.05547  20650685.65649
 -15043688.23348 -11722350.44646         0.00041  22325456.97246  22325457.35948
  -7090414.03748  -5524995.17745         0.00041  23562600.91245  23562600.72048
 -20537687.67749 -16003382.95447         0.00041  20637745.18947  20637745.62249
  -8170122.99448  -6366321.31646         0.00041  22795531.69746  22795532.76948
 97 03 25 05 11 30.0000000  0  7 03 06 17 21 22 23 26
  -7699033.41448  -5999244.51845         0.00041  23709776.07245  23709775.52048
   3610556.53348   2813419.99446         0.00041  22130835.76746  22130836.07248
 -15413098.40149 -12010197.38147         0.00041  20651450.58647  20651450.99349
 -15108550.63848 -11772892.56546         0.00041  22313113.76446  22313114.42448
  -7049646.04148  -5493227.92645         0.00041  23570359.40945  23570358.83048
 -20546508.70349 -16010256.47547         0.00041  20636066.63047  20636067.14049
  -8116415.74748  -6324471.49445         0.00041  22805751.59345  22805752.68148
 97 03 25 05 12 00.0000000  0  7 03 06 17 21 22 23 26
  -7798344.33848  -6076629.64345         0.00041  23690877.73445  23690877.40548
   3702277.69948   2884890.99846         0.00041  22148289.49546  22148290.38448
 -15408832.10649 -12006873.00147         0.00041  20652262.44547  20652262.87649
 -15173136.75848 -11823219.40646         0.00041  22300823.40846  22300824.24748
  -7008470.69948  -5461143.26445         0.00041  23578193.14645  23578194.11548
 -20554914.15749 -16016806.16847         0.00041  20634467.32047  20634467.89449
  -8062182.74548  -6282212.00845         0.00041  22816071.64245  22816072.78748
 97 03 25 05 12 30.0000000  0  7 03 06 17 21 22 23 26
  -7897437.96548  -6153845.44345         0.00041  23672018.88745  23672020.41948
   3794351.19648   2956636.57546         0.00041  22165810.35546  22165811.27348
 -15404335.81949 -12003369.40047         0.00041  20653118.00947  20653118.64249
 -15237452.93948 -11873335.89646         0.00041  22288584.28746  22288585.22348
  -6966890.91748  -5428743.44445         0.00041  23586106.48945  23586106.89048
 -20562916.52349 -16023041.77547         0.00041  20632944.54447  20632944.97749
  -8007425.29948  -6239543.86545         0.00041  22826491.68045  22826493.18548
 97 03 25 05 13 00.0000000  0  7 03 06 17 21 22 23 26
  -7996331.45448  -6230905.31745         0.00041  23653200.97845  23653202.13248
   3886786.37248   3028663.96546         0.00041  22183400.78246  22183401.43748
 -15399621.80849 -11999696.14547         0.00041  20654015.08747  20654015.53349
 -15301509.72748 -11923250.27246         0.00041  22276395.05246  22276395.51148
  -6924919.04148  -5396038.10545         0.00041  23594093.00945  23594093.54548
 -20570532.29749 -16028976.13847         0.00041  20631495.36347  20631495.85749
  -7952143.46048  -6196467.09445         0.00041  22837011.50745  22837013.03648
 97 03 25 05 13 30.0000000  0  7 03 06 17 21 22 23 26
  -8095048.65148  -6307827.79645         0.00041  23634416.94045  23634417.43848
   3979559.13348   3100954.41446         0.00041  22201055.81746  22201055.78848
 -15394712.99249 -11995871.09747         0.00041  20654949.37047  20654949.83349
 -15365319.84148 -11972972.42546         0.00041  22264252.32646  22264252.82348
  -6882594.33148  -5363057.81445         0.00041  23602147.70145  23602147.33848
 -20577792.38249 -16034633.34247         0.00041  20630113.49447  20630114.22949
  -7896349.86148  -6152991.55345         0.00041  22847629.59045  22847630.11248
 97 03 25 05 14 00.0000000  0  7 03 06 17 21 22 23 26
  -8193583.23648  -6384607.98245         0.00041  23615666.91545  23615666.45048
   4072672.77348   3173510.47546         0.00041  22218773.97346  22218774.44048
 -15389590.17249 -11991879.29347         0.00041  20655924.02447  20655924.59349
 -15428860.60848 -12022484.70146         0.00041  22252161.06746  22252161.25248
  -6839908.87348  -5329796.44345         0.00041  23610269.79145  23610269.84448
 -20584685.85649 -16040004.88147         0.00041  20628801.95847  20628802.54049
  -7840028.81048  -6109105.02745         0.00041  22858346.24445  22858347.44648
 97 03 25 05 14 30.0000000  0  7 03 06 17 21 22 23 26
  -8291924.00348  -6461237.14845         0.00041  23596952.39545  23596952.95448
   4166126.44548   3246331.51146         0.00041  22236556.97346  22236558.10248
 -15384231.51149 -11987703.72247         0.00041  20656943.65947  20656944.21149
 -15492124.38848 -12071781.14046         0.00041  22240122.20646  22240122.16548
  -6796862.08148  -5296253.49945         0.00041  23618462.99245  23618461.75848
 -20591199.36949 -16045080.33547         0.00041  20627562.48447  20627562.97049
  -7783174.57748  -6064803.03745         0.00041  22869164.58745  22869166.09948
 97 03 25 05 15 00.0000000  0  7 03 06 17 21 22 23 26
  -8390079.70448  -6537722.11745         0.00041  23578274.13045  23578274.72148
   4259901.13548   3319402.69046         0.00041  22254402.41746  22254402.74148
 -15378646.17649 -11983351.52047         0.00041  20658006.34747  20658007.01649
 -15555111.57048 -12120862.05146         0.00041  22228136.03946  22228136.12148
  -6753479.59348  -5262448.97245         0.00041  23626717.19145  23626717.00148
 -20597333.37149 -16049860.06847         0.00041  20626395.07247  20626395.55749
  -7725799.08548  -6020094.86845         0.00041  22880082.70945  22880084.32048
 97 03 25 05 15 30.0000000  0  7 03 06 17 21 22 23 26
  -8488032.30248  -6614048.81245         0.00041  23559633.50645  23559634.81448
   4353988.52248   3392717.52646         0.00041  22272306.68646  22272307.09648
 -15372827.40249 -11978817.41747         0.00041  20659113.89447  20659114.63749
 -15617810.50848 -12169718.35346         0.00041  22216204.90146  22216205.20848
  -6709757.77548  -5228380.03245         0.00041  23635037.01745  23635037.43348
 -20603073.07349 -16054332.55747         0.00041  20625302.91947  20625303.34649
  -7667911.30348  -5974987.49445         0.00041  22891098.88145  22891100.21248
 97 03 25 05 16 00.0000000  0  7 03 06 17 21 22 23 26
  -8585786.30048  -6690220.75045         0.00041  23541031.73045  23541032.31948
   4448374.17448   3466264.78146         0.00041  22290267.74346  22290268.08048
 -15366797.10249 -11974118.48647         0.00041  20660261.21547  20660261.94649
 -15680234.56848 -12218360.46746         0.00041  22204326.17346  22204326.54148
  -6665690.73048  -5194042.08545         0.00041  23643423.30645  23643423.55148
 -20608423.24649 -16058501.51847         0.00041  20624284.85747  20624285.23349
  -7609523.97348  -5929490.86945         0.00041  22902210.40545  22902210.91448
 97 03 25 05 16 30.0000000  0  7 03 06 17 21 22 23 26
  -8683311.81748  -6766214.66245         0.00041  23522474.81045  23522473.72648
   4543064.28848   3540049.29046         0.00041  22308287.13846  22308286.97448
 -15360549.80749 -11969250.47247         0.00041  20661450.04447  20661450.77349
 -15742381.82548 -12266786.89146         0.00041  22192499.84746  22192500.14448
  -6621273.81248  -5159431.51245         0.00041  23651875.78345  23651875.25948
 -20613392.24849 -16062373.46247         0.00041  20623339.13347  20623339.57849
  -7550645.58148  -5883611.60045         0.00041  22913413.96945  22913415.07248
 97 03 25 05 17 00.0000000  0  7 03 06 17 21 22 23 26
  -8780600.77248  -6842024.24045         0.00041  23503959.48945  23503960.41848
   4638058.57548   3614070.79746         0.00041  22326363.66546  22326364.12548
 -15354066.02249 -11964198.17747         0.00041  20662684.15047  20662684.61749
 -15804239.52148 -12314987.68346         0.00041  22180728.50246  22180728.93648
  -6576503.58548  -5124545.63245         0.00041  23660394.60645  23660394.96348
 -20617987.33249 -16065954.03747         0.00041  20622464.50447  20622465.05649
  -7491286.07748  -5837357.42545         0.00041  22924710.25445  22924710.87748
 97 03 25 05 17 30.0000000  0  7 03 06 17 21 22 23 26
  -8877639.62448  -6917638.93145         0.00041  23485494.74245  23485494.45748
   4733355.32948   3688327.99046         0.00041  22344497.60346  22344498.38648
 -15347337.39949 -11958955.10247         0.00041  20663964.37047  20663964.82149
 -15865804.98948 -12362960.76146         0.00041  22169013.25346  22169013.60348
  -6531349.36848  -5089360.54545         0.00041  23668987.82645  23668988.11748
 -20622222.78149 -16069254.37647         0.00041  20621658.79747  20621659.50249
  -7431441.05248  -5790724.94545         0.00041  22936097.94145  22936099.03348
 97 03 25 05 18 00.0000000  0  7 03 06 17 21 22 23 26
  -8974427.61348  -6993058.14345         0.00041  23467075.58645  23467076.40048
   4828952.09148   3762818.94846         0.00041  22362689.74846  22362690.02248
 -15340372.88749 -11953528.21247         0.00041  20665289.65047  20665290.28749
 -15927084.20649 -12410710.78946         0.00041  22157352.07046  22157352.56249
  -6485822.57548  -5053885.13945         0.00041  23677650.23245  23677651.58148
 -20626118.81049 -16072290.23647         0.00041  20620917.32547  20620917.91749
  -7371120.63348  -5743722.02045         0.00041  22947576.33245  22947577.57948
 97 03 25 05 18 30.0000000  0  7 03 06 17 21 22 23 26
  -9070953.63548  -7068273.21345         0.00041  23448707.93645  23448708.35648
   4924856.89348   3837549.94546         0.00041  22380939.94846  22380940.07948
 -15333150.53649 -11947900.40747         0.00041  20666664.22747  20666664.72449
 -15988073.15448 -12458234.63746         0.00041  22145746.16146  22145746.52848
  -6439927.34848  -5018122.64745         0.00041  23686383.17245  23686385.10148
 -20629667.75549 -16075055.63847         0.00041  20620242.12147  20620242.74949
  -7310322.02748  -5696346.47646         0.00041  22959145.39346  22959147.53848
 97 03 25 05 19 00.0000000  0  7 03 06 17 21 22 23 26
  -9167236.64348  -7143298.94045         0.00041  23430386.14045  23430387.02148
   5021067.28548   3912519.06146         0.00041  22399247.85246  22399248.37948
 -15325682.01049 -11942080.78047         0.00041  20668085.43147  20668085.87849
 -16048775.14149 -12505534.87946         0.00041  22134195.05946  22134195.62049
  -6393672.13848  -4982079.63445         0.00041  23695187.53945  23695187.42848
 -20632864.54249 -16077546.63147         0.00041  20619633.71047  20619634.35149
  -7249032.75248  -5648588.59346         0.00041  22970809.10946  22970810.71848
 97 03 25 05 19 30.0000000  0  7 03 06 17 21 22 23 26
  -9263283.81648  -7218140.89545         0.00041  23412109.28445  23412109.83448
   5117578.48348   3987722.56546         0.00041  22417612.88346  22417613.31448
 -15317993.88749 -11936090.04247         0.00041  20669548.54247  20669548.98249
 -16109210.94249 -12552627.70346         0.00041  22122694.47346  22122695.05549
  -6347069.18148  -4945765.65745         0.00041  23704055.17545  23704055.43448
 -20635717.44549 -16079769.66147         0.00041  20619090.74047  20619091.15249
  -7187253.49948  -5600448.91246         0.00041  22982564.48046  22982566.63248
 97 03 25 05 20 00.0000000  0  7 03 06 17 21 22 23 26
  -9359117.03748  -7292816.12045         0.00041  23393871.61045  23393872.51648
   5214390.67548   4063160.61446         0.00041  22436035.47046  22436036.00148
 -15310092.30449 -11929932.97747         0.00041  20671052.08147  20671052.46349
 -16169400.58649 -12599528.71746         0.00041  22111240.92746  22111241.09749
  -6300151.77748  -4909206.65745         0.00041  23712983.49245  23712983.17248
 -20638224.52949 -16081723.22747         0.00041  20618613.66747  20618614.11449
  -7125002.84148  -5551941.91546         0.00041  22994411.48646  22994412.60948
 97 03 25 05 20 30.0000000  0  7 03 06 17 21 22 23 26
  -9454747.83348  -7367333.62745         0.00041  23375674.10145  23375674.44748
   5311516.75348   4138843.25146         0.00041  22454518.47446  22454518.99248
 -15301960.01549 -11923596.13747         0.00041  20672599.77347  20672599.99849
 -16229336.74349 -12646232.20046         0.00041  22099835.56946  22099835.68149
  -6252915.09948  -4872398.87045         0.00041  23721970.57145  23721971.68948
 -20640381.92449 -16083404.31047         0.00041  20618203.33647  20618203.68949
  -7062270.81748  -5503059.82545         0.00041  23006348.94645  23006350.03948
 97 03 25 05 21 00.0000000  0  7 03 06 17 21 22 23 26
  -9550187.73148  -7441702.36145         0.00041  23357512.46445  23357512.84148
   5408961.39648   4214774.12746         0.00041  22473061.29546  22473062.23648
 -15293598.67449 -11917080.81247         0.00041  20674190.51347  20674191.00549
 -16289015.23749 -12692734.91446         0.00041  22088479.17246  22088479.16149
  -6205366.70148  -4835348.19345         0.00041  23731019.96645  23731020.56648
 -20642201.69049 -16084822.31247         0.00041  20617856.78247  20617857.36249
  -6999073.80548  -5453815.40445         0.00041  23018374.90245  23018375.47748
 97 03 25 05 21 30.0000000  0  7 03 06 17 21 22 23 26
  -9645422.18048  -7515911.02745         0.00041  23339390.14045  23339390.18048
   5506733.42948   4290960.10946         0.00041  22491666.85346  22491667.76748
 -15284982.81649 -11910367.16247         0.00041  20675830.04947  20675830.53249
 -16348426.30549 -12739029.24646         0.00041  22077173.54046  22077173.48949
  -6157487.81048  -4798039.98645         0.00041  23740132.75345  23740131.50048
 -20643661.69149 -16085959.97247         0.00041  20617579.00347  20617579.62549
  -6935417.38248  -5404213.00045         0.00041  23030487.56145  23030488.89548
 97 03 25 05 22 00.0000000  0  7 03 06 17 21 22 23 26
  -9740448.22548  -7589957.29645         0.00041  23321306.32145  23321307.58248
   5604830.39648   4367399.27346         0.00041  22510333.69346  22510334.78048
 -15276104.31649 -11903448.84947         0.00041  20677519.60847  20677519.98649
 -16407560.27049 -12785107.65646         0.00041  22065920.93746  22065920.65649
  -6109281.12048  -4760476.34645         0.00041  23749304.84445  23749305.57948
 -20644759.70349 -16086815.55947         0.00041  20617370.39247  20617370.99649
  -6871300.51848  -5354251.81645         0.00041  23042688.78845  23042690.41648
 97 03 25 05 22 30.0000000  0  7 03 06 17 21 22 23 26
  -9835253.52648  -7663831.54245         0.00041  23303265.30145  23303266.45448
   5703230.39748   4444074.57046         0.00041  22529059.11846  22529059.89648
 -15266972.90449 -11896333.47247         0.00041  20679257.25647  20679257.73949
 -16466411.44649 -12830965.70446         0.00041  22054721.77746  22054721.41349
  -6060748.86348  -4722659.02345         0.00041  23758539.48845  23758539.87648
 -20645508.73849 -16087399.21547         0.00041  20617227.69947  20617228.34349
  -6806728.93248  -5303936.28145         0.00041  23054976.52945  23054977.75248
 97 03 25 05 23 00.0000000  0  7 03 06 17 21 22 23 26
  -9929813.68448  -7737514.78045         0.00041  23285271.25545  23285272.48248
   5801905.88748   4520964.55646         0.00041  22547835.13846  22547837.14848
 -15257602.47449 -11889031.84747         0.00041  20681040.70247  20681041.01549
 -16524996.21649 -12876616.16746         0.00041  22043572.86546  22043573.14049
  -6011903.63948  -4684597.83545         0.00041  23767835.42145  23767834.42248
 -20645905.79749 -16087708.59947         0.00041  20617151.87247  20617152.45849
  -6741708.00448  -5253270.62045         0.00041  23067349.95745  23067351.17148
 97 03 25 05 23 30.0000000  0  7 03 06 17 21 22 23 26
 -10024097.50148  -7810982.69645         0.00041  23267329.86345  23267331.02248
   5900858.73448   4598070.65846         0.00041  22566667.39446  22566667.29348
 -15247992.82549 -11881543.81247         0.00041  20682869.14547  20682869.46149
 -16583300.98949 -12922048.44946         0.00041  22032478.74646  22032478.40949
  -5962734.43548  -4646284.18645         0.00041  23777191.59545  23777191.26748
 -20645946.71949 -16087740.47647         0.00041  20617144.09347  20617144.70649
  -6676210.86948  -5202233.89145         0.00041  23079813.25645  23079814.49648
 97 03 25 05 24 00.0000000  0  7 03 06 17 21 22 23 26
 -10118095.28148  -7884227.70745         0.00041  23249441.90445  23249443.71048
   6000084.84248   4675389.68046         0.00041  22585549.33946  22585549.51448
 -15238155.39849 -11873878.28947         0.00041  20684741.15347  20684741.47049
 -16641319.19449 -12967257.43446         0.00041  22021437.52546  22021437.71949
  -5913257.01548  -4607730.36244         0.00041  23786607.32044  23786606.48048
 -20645654.53749 -16087512.79347         0.00041  20617199.84047  20617200.41649
  -6610230.02848  -5150820.25245         0.00041  23092369.30645  23092369.71548
 97 03 25 05 24 30.0000000  0  7 03 06 17 21 22 23 26
 -10211813.98048  -7957255.26245         0.00041  23231609.28745  23231610.08448
   6099578.94748   4752917.53746         0.00041  22604482.16146  22604482.59048
 -15228088.01149 -11866033.57846         0.00041  20686656.85946  20686657.25649
 -16699061.30049 -13012251.27846         0.00041  22010450.02946  22010449.73349
  -5863471.99848  -4568936.84845         0.00041  23796080.40545  23796080.30148
 -20645031.87249 -16087027.59447         0.00041  20617318.50047  20617318.89449
  -6543773.80848  -5099036.18245         0.00041  23105015.56345  23105016.12348
 97 03 25 05 25 00.0000000  0  7 03 06 17 21 22 23 26
 -10305263.72548  -8030073.24345         0.00041  23213826.32845  23213826.81348
   6199349.24748   4830660.61146         0.00041  22623467.88946  22623467.99848
 -15217782.05049 -11858002.96647         0.00041  20688617.92247  20688618.47849
 -16756530.10249 -13057032.15446         0.00041  21999513.93446  21999513.68649
  -5813367.77548  -4529894.62545         0.00041  23805615.52845  23805615.06348
 -20644070.64249 -16086278.57947         0.00041  20617501.33447  20617501.87149
  -6476834.25548  -5046875.50445         0.00041  23117753.51745  23117754.74648
 97 03 25 05 25 30.0000000  0  7 03 06 17 21 22 23 26
 -10398480.33148  -8102709.55345         0.00041  23196087.75545  23196088.69648
   6299394.79548   4908618.17146         0.00041  22642505.95146  22642505.94548
 -15207248.72649 -11849795.18947         0.00041  20690622.54647  20690622.92949
 -16813722.94549 -13101597.99846         0.00041  21988630.44846  21988630.21749
  -5762943.80448  -4490603.23545         0.00041  23815210.53045  23815209.38848
 -20642773.72749 -16085268.00047         0.00041  20617747.73847  20617748.40749
  -6409421.40348  -4994345.99745         0.00041  23130581.36845  23130582.85748
 97 03 25 05 26 00.0000000  0  7 03 06 17 21 22 23 26
 -10491475.59848  -8175173.38245         0.00041  23178391.15245  23178391.71748
   6399704.40448   4986781.48945         0.00041  22661594.06545  22661594.35248
 -15196469.50749 -11841395.80747         0.00041  20692673.80347  20692674.20949
 -16870645.92949 -13145953.56046         0.00041  21977798.26046  21977798.31249
  -5712199.78848  -4451062.47545         0.00041  23824865.83345  23824865.72048
 -20641115.29649 -16083975.71747         0.00041  20618063.44847  20618064.13049
  -6341546.11548  -4941456.18245         0.00041  23143497.18545  23143499.38548
 97 03 25 05 26 30.0000000  0  7 03 06 17 21 22 23 26
 -10584247.70248  -8247463.33645         0.00041  23160737.48845  23160737.10648
   6500275.44748   5065148.52345         0.00041  22680733.27845  22680732.45948
 -15185442.99749 -11832803.72947         0.00041  20694772.08547  20694772.44849
 -16927306.18749 -13190104.39646         0.00041  21967016.00146  21967016.23749
  -5661129.00248  -4411267.10445         0.00041  23834585.53445  23834584.71748
 -20639083.74949 -16082392.69147         0.00041  20618450.33047  20618450.84149
  -6273218.82248  -4888214.12945         0.00041  23156500.18545  23156501.50748
 97 03 25 05 27 00.0000000  0  7 03 06 17 21 22 23 26
 -10676790.67648  -8319574.72745         0.00041  23143126.30545  23143127.12848
   6601097.73348   5143711.32945         0.00041  22699917.99545  22699918.23948
 -15174175.32049 -11824023.72847         0.00041  20696916.11747  20696916.66349
 -16983698.23849 -13234046.24646         0.00041  21956284.92246  21956285.24349
  -5609749.34148  -4371231.00345         0.00041  23844362.02045  23844361.99448
 -20636687.94849 -16080525.83447         0.00041  20618906.05347  20618906.86949
  -6204450.89748  -4834628.72445         0.00041  23169586.67145  23169587.37248
 97 03 25 05 27 30.0000000  0  7 03 06 17 21 22 23 26
 -10769072.61548  -8391482.73245         0.00041  23125564.47045  23125566.78048
   6702187.92848   5222482.90745         0.00041  22719154.60345  22719154.79948
 -15162663.18449 -11815053.23947         0.00041  20699106.91747  20699107.37649
 -17039805.98749 -13277766.56246         0.00041  21945607.81946  21945608.43649
  -5558074.46648  -4330964.89645         0.00041  23854194.36845  23854195.17248
 -20633919.98549 -16078368.97947         0.00041  20619432.65647  20619433.39049
  -6135243.20248  -4780700.65745         0.00041  23182756.71645  23182757.20648
 97 03 25 05 28 00.0000000  0  7 03 06 17 21 22 23 26
 -10861054.33748  -8463156.77245         0.00041  23108062.65245  23108063.43148
   6803559.12848   5301473.42445         0.00041  22738445.28045  22738444.99948
 -15150893.54249 -11805882.09247         0.00041  20701346.55147  20701347.19449
 -17095631.06549 -13321266.60746         0.00041  21934984.58946  21934985.12449
  -5506106.12048  -4290470.09244         0.00041  23864084.17544  23864084.76648
 -20630793.35849 -16075932.64447         0.00041  20620027.78847  20620028.38849
  -6065596.32148  -4726430.35845         0.00041  23196009.34645  23196011.02748
 97 03 25 05 28 30.0000000  0  7 03 06 17 21 22 23 26
 -10952721.86948  -8534586.02645         0.00041  23090619.94445  23090620.02548
   6905219.65848   5380689.38945         0.00041  22757791.18945  22757789.85048
 -15138878.50149 -11796519.72947         0.00041  20703632.78847  20703633.57249
 -17151181.66049 -13364552.77746         0.00041  21924414.46646  21924414.80149
  -5453854.63448  -4249754.66744         0.00041  23874025.75044  23874027.28148
 -20627341.72049 -16073243.05347         0.00041  20620684.56147  20620685.18149
  -5995512.79248  -4671819.80745         0.00041  23209345.92245  23209347.14648
 97 03 25 05 29 00.0000000  0  7 03 06 17 21 22 23 26
 -11044073.78948  -8605769.32645         0.00041  23073235.78045  23073236.06748
   7007171.39548   5460132.28145         0.00041  22777191.91845  22777191.36548
 -15126619.64549 -11786967.37847         0.00041  20705965.63547  20705966.20349
 -17206461.20649 -13407627.73846         0.00041  21913894.67646  21913894.95649
  -5401324.21848  -4208821.89445         0.00041  23884024.47745  23884023.90248
 -20623564.90849 -16070300.07847         0.00041  20621403.32947  20621403.89149
  -5924980.63148  -4616859.68345         0.00041  23222768.29145  23222768.98348
 97 03 25 05 29 30.0000000  0  7 03 06 17 21 22 23 26
 -11135100.99048  -8676699.60145         0.00041  23055913.50745  23055914.04748
   7109426.69648   5539811.72845         0.00041  22796649.17245  22796649.94348
 -15114112.65349 -11777221.67347         0.00041  20708346.00747  20708346.41349
 -17261464.64949 -13450487.55146         0.00041  21903427.66346  21903427.72249
  -5348494.20948  -4167655.67645         0.00041  23894077.19845  23894076.81348
 -20619458.23249 -16067100.06647         0.00041  20622184.79247  20622185.24249
  -5853980.36548  -4561534.79445         0.00041  23236277.80545  23236279.81948
 97 03 25 05 30 00.0000000  0  7 03 06 17 21 22 23 26
 -11225825.47648  -8747393.99145         0.00041  23038648.27145  23038649.56248
   7211954.13548   5619703.22845         0.00041  22816160.55645  22816160.19448
 -15101354.86949 -11767280.55546         0.00041  20710773.43246  20710773.88949
 -17316210.38249 -13493146.55646         0.00041  21893010.39946  21893010.39649
  -5295357.98248  -4126250.82645         0.00041  23904188.64645  23904188.83548
 -20615037.46249 -16063655.30747         0.00041  20623025.99947  20623026.54649
  -5782511.38148  -4505844.67645         0.00041  23249878.26345  23249879.99648
 97 03 25 05 30 30.0000000  0  7 03 06 17 21 22 23 26
 -11316285.40848  -8817882.23345         0.00041  23021434.87545  23021435.83748
   7314704.96148   5699768.78145         0.00041  22835713.00945  22835713.07448
 -15088362.77549 -11757156.85046         0.00041  20713245.90746  20713246.32149
 -17370716.31949 -13535618.70846         0.00041  21882637.88146  21882637.97849
  -5241940.26348  -4084626.66045         0.00041  23914353.02945  23914353.94248
 -20610315.33049 -16059975.71847         0.00041  20623924.61547  20623925.27449
  -5710598.23648  -4449808.47945         0.00041  23263563.10145  23263564.72048
 97 03 25 05 31 00.0000000  0  7 03 06 17 21 22 23 26
 -11406487.17748  -8888169.32645         0.00041  23004269.60645  23004270.60248
   7417667.09348   5779998.98645         0.00041  22855305.99745  22855306.32348
 -15075137.22949 -11746851.23646         0.00041  20715762.77746  20715763.06149
 -17424971.52949 -13577895.48846         0.00041  21872313.38746  21872313.22149
  -5188248.41648  -4042788.88644         0.00041  23924570.43644  23924571.19048
 -20605269.40849 -16056043.82647         0.00041  20624884.68347  20624885.23949
  -5638251.79948  -4393434.64045         0.00041  23277330.07345  23277331.90648
 97 03 25 05 31 30.0000000  0  7 03 06 17 21 22 23 26
 -11496435.29348  -8958258.74945         0.00041  22987153.37445  22987154.50748
   7520829.39948   5860385.16145         0.00041  22874937.06945  22874937.22048
 -15061672.95049 -11736359.59947         0.00041  20718324.82147  20718325.24149
 -17478963.31649 -13619967.00246         0.00041  21862039.65346  21862039.39949
  -5134295.19348  -4000747.44144         0.00041  23934836.61544  23934838.31548
 -20599907.74649 -16051865.90347         0.00041  20625904.95247  20625905.63649
  -5565499.31948  -4336744.39645         0.00041  23291175.55345  23291176.02348
 97 03 25 05 32 00.0000000  0  7 03 06 17 21 22 23 26
 -11586124.14948  -9028146.16645         0.00041  22970085.76645  22970087.24648
   7624178.05248   5940916.57245         0.00041  22894603.22945  22894604.06748
 -15047969.78149 -11725681.81246         0.00041  20720932.59546  20720932.86749
 -17532680.43449 -13661824.48846         0.00041  21851817.37546  21851817.23449
  -5080095.05448  -3958513.58944         0.00041  23945151.03744  23945151.57048
 -20594223.92149 -16047436.94247         0.00041  20626986.62547  20626987.24749
  -5492367.69048  -4279758.69945         0.00041  23305092.51745  23305092.76748
 97 03 25 05 32 30.0000000  0  7 03 06 17 21 22 23 26
 -11675513.15948  -9097799.94245         0.00041  22953076.96645  22953077.30048
   7727756.52348   6021627.05145         0.00041  22914313.67045  22914314.51948
 -15034010.58949 -11714804.51646         0.00041  20723588.58546  20723588.94849
 -17586086.20149 -13703439.36046         0.00041  21841654.13746  21841653.91349
  -5025636.18248  -3916078.12445         0.00041  23955516.84245  23955515.44948
 -20588194.95349 -16042739.04347         0.00041  20628133.88147  20628134.39449
  -5418847.80948  -4222470.48145         0.00041  23319081.20045  23319083.01448
 97 03 25 05 33 00.0000000  0  7 03 06 17 21 22 23 26
 -11764591.18148  -9167211.35945         0.00041  22936125.18445  22936126.52448
   7831603.11948   6102546.45745         0.00041  22934075.37745  22934075.92348
 -15019795.20849 -11703727.59246         0.00041  20726293.82046  20726294.10049
 -17639170.08749 -13744803.42146         0.00041  21831552.77146  21831552.59149
  -4970907.69448  -3873432.57845         0.00041  23965928.91645  23965929.94948
 -20581819.31949 -16037771.02147         0.00041  20629347.19047  20629347.56349
  -5344921.66348  -4164865.68545         0.00041  23333150.25345  23333151.34148
 97 03 25 05 33 30.0000000  0  7 03 06 17 21 22 23 26
 -11853354.84248  -9236377.85045         0.00041  22919233.96845  22919235.14648
   7935718.29248   6183675.16145         0.00041  22953888.54045  22953888.63148
 -15005318.53549 -11692447.07446         0.00041  20729048.83946  20729048.92449
 -17691936.17849 -13785919.84946         0.00041  21821511.33346  21821511.66949
  -4915904.17548  -3830572.71245         0.00041  23976395.60645  23976396.69548
 -20575114.20949 -16032546.26047         0.00041  20630623.03847  20630623.64149
  -5270577.90348  -4106935.49045         0.00041  23347296.19445  23347298.03648
 97 03 25 05 34 00.0000000  0  7 03 06 17 21 22 23 26
 -11941793.82648  -9305291.33045         0.00041  22902404.55245  22902405.82948
   8040110.93948   6265020.06345         0.00041  22973751.72345  22973753.26548
 -14990581.31249 -11680963.53346         0.00041  20731852.88946  20731853.27149
 -17744406.26949 -13826805.62146         0.00041  21811526.52646  21811526.82149
  -4860619.80048  -3787493.98044         0.00041  23986915.06644  23986917.31948
 -20568079.90749 -16027064.98247         0.00041  20631961.69547  20631962.28349
  -5195796.16548  -4048664.00645         0.00041  23361526.32645  23361527.83648
 97 03 25 05 34 30.0000000  0  7 03 06 17 21 22 23 26
 -12029902.07248  -9373947.09845         0.00041  22885638.45245  22885639.37548
   8144800.46648   6346596.29545         0.00041  22993674.21145  22993675.07248
 -14975566.58149 -11669263.74246         0.00041  20734710.29546  20734710.71149
 -17796602.19949 -13867477.75646         0.00041  21801594.07246  21801594.31249
  -4805043.49248  -3744187.78844         0.00041  23997492.28344  23997492.80848
 -20560713.97349 -16021325.29547         0.00041  20633363.32347  20633364.05149
  -5120546.48948  -3990027.90545         0.00041  23375846.64645  23375847.49048
 97 03 25 05 35 00.0000000  0  7 03 06 17 21 22 23 26
 -12117712.75048  -9442370.98545         0.00041  22868929.23745  22868929.53048
   8249750.92748   6428375.86345         0.00041  23013646.59845  23013646.15848
 -14960291.63349 -11657361.18546         0.00041  20737616.93046  20737617.44249
 -17848548.69249 -13907955.52846         0.00041  21791709.41646  21791709.64449
  -4749201.09648  -3700674.23044         0.00041  24008118.97244  24008119.61548
 -20553026.21149 -16015334.82847         0.00041  20634826.27347  20634826.85649
  -5044852.29748  -3931045.40945         0.00041  23390250.27545  23390251.82148
 97 03 25 05 35 30.0000000  0  7 03 06 17 21 22 23 26
 -12205225.75148  -9510562.93346         0.00041  22852275.60646  22852275.88648
   8354942.93848   6510343.63945         0.00041  23033664.26345  23033663.72348
 -14944759.53749 -11645258.25446         0.00041  20740572.66346  20740573.10649
 -17900248.33449 -13948240.95546         0.00041  21781871.03946  21781871.64049
  -4693104.17948  -3656962.37744         0.00041  24018792.87444  24018794.61748
 -20545011.33449 -16009089.46547         0.00041  20636351.38747  20636352.16649
  -4968732.91448  -3871731.60545         0.00041  23404735.77545  23404737.26648
 97 03 25 05 36 00.0000000  0  7 03 06 17 21 22 23 26
 -12292447.18948  -9578527.68246         0.00041  22835677.65246  22835678.48648
   8460370.12348   6592494.67845         0.00041  23053725.08345  23053725.56048
 -14928975.69049 -11632959.15446         0.00041  20743576.15246  20743576.63849
 -17951712.00949 -13988342.51846         0.00041  21772077.60446  21772078.10949
  -4636761.09448  -3613058.69845         0.00041  24029516.11245  24029516.31248
 -20536677.10649 -16002595.26247         0.00041  20637937.49247  20637938.00849
  -4892209.99648  -3812103.34145         0.00041  23419297.54645  23419299.01048
 97 03 25 05 36 30.0000000  0  7 03 06 17 21 22 23 26
 -12379377.33148  -9646265.45846         0.00041  22819135.51046  22819136.18848
   8566016.57448   6674816.56845         0.00041  23073829.35545  23073829.83448
 -14912942.71849 -11620465.93146         0.00041  20746627.30746  20746627.80849
 -18002921.02749 -14028245.63246         0.00041  21762333.06646  21762333.40849
  -4580183.53248  -3568972.31444         0.00041  24040282.04144  24040282.32348
 -20528024.62649 -15995853.07647         0.00041  20639583.99547  20639584.43949
  -4815301.89048  -3752174.95145         0.00041  23433933.03845  23433934.33948
 97 03 25 05 37 00.0000000  0  7 03 06 17 21 22 23 26
 -12466021.45548  -9713780.35846         0.00041  22802647.47046  22802648.47248
   8671862.00048   6757293.51345         0.00041  23093971.40045  23093971.28348
 -14896685.31549 -11607797.83346         0.00041  20749720.84746  20749721.23749
 -18053852.31449 -14067932.34046         0.00041  21752641.10346  21752641.50349
  -4523388.44148  -3524716.39144         0.00041  24051090.75744  24051090.14948
 -20519064.33749 -15988871.03847         0.00041  20641288.99847  20641289.69149
  -4738028.89848  -3691962.20845         0.00041  23448637.26645  23448638.56148
 97 03 25 05 37 30.0000000  0  7 03 06 17 21 22 23 26
 -12552342.01548  -9781043.13245         0.00041  22786221.25645  22786221.83848
   8777909.70748   6839928.09845         0.00041  23114153.32145  23114152.07848
 -14880192.30249 -11594946.14546         0.00041  20752859.49646  20752859.89149
 -18104490.04549 -14107390.30246         0.00041  21743004.89146  21743005.17849
  -4466359.01948  -3480277.91044         0.00041  24061941.63944  24061942.66348
 -20509797.71249 -15981650.29047         0.00041  20643052.46647  20643053.05849
  -4660371.52348  -3631449.98745         0.00041  23463414.32645  23463415.64948
 97 03 25 05 38 00.0000000  0  7 03 06 17 21 22 23 26
 -12638303.21648  -9848025.88346         0.00041  22769863.35146  22769864.05748
   8884164.84048   6922724.28045         0.00041  23134370.62845  23134372.09648
 -14863443.33349 -11581895.00446         0.00041  20756046.76246  20756047.10849
 -18154820.73949 -14146609.01946         0.00041  21733427.53846  21733427.67249
  -4409082.95848  -3435647.21244         0.00041  24072842.08544  24072842.17448
 -20500223.82649 -15974190.11147         0.00041  20644874.17647  20644874.80349
  -4582316.01348  -3570627.48145         0.00041  23478268.48245  23478269.36148
 97 03 25 05 38 30.0000000  0  7 03 06 17 21 22 23 26
 -12723878.85948  -9914708.19946         0.00041  22753579.07246  22753580.01548
   8990635.83448   7005688.69245         0.00041  23154632.55145  23154632.96748
 -14846425.36049 -11568634.25046         0.00041  20759285.13246  20759285.68549
 -18204824.15749 -14185572.70946         0.00041  21723912.29746  21723912.64149
  -4351550.37548  -3390816.63344         0.00041  24083791.44444  24083790.72048
 -20490319.92449 -15966472.77747         0.00041  20646758.85047  20646759.41449
  -4503840.89748  -3509478.04445         0.00041  23493200.88945  23493203.00748
 97 03 25 05 39 00.0000000  0  8 01 03 06 17 21 22 23 26
        -0.71458        -0.14954         0.00051  24179130.51554  24179129.64758
 -12809071.31348  -9981091.91846         0.00041  22737367.21646  22737368.31148
   9097314.73948   7088815.09345         0.00041  23174932.85145  23174933.46848
 -14829138.83749 -11555164.24046         0.00041  20762574.64446  20762575.19849
 -18254522.85949 -14224298.95546         0.00041  21714454.66346  21714454.98749
  -4293756.69748  -3345782.60544         0.00041  24094788.54244  24094787.94248
 -20480091.22649 -15958502.35847         0.00041  20648705.41147  20648705.88249
  -4424946.93148  -3448002.21745         0.00041  23508214.50645  23508216.15748
 97 03 25 05 39 30.0000000  0  8 01 03 06 17 21 22 23 26
   -110087.68048    -85782.18044         0.00041  24158180.90244  24158180.65448
 -12893901.90248 -10047193.67746         0.00041  22721223.90446  22721225.24048
   9204182.24948   7172088.47845         0.00041  23195268.77545  23195269.37148
 -14811582.60549 -11541484.07346         0.00041  20765915.63446  20765916.19049
 -18303966.82749 -14262826.70846         0.00041  21705045.84146  21705046.15249
  -4235715.02248  -3300555.38244         0.00041  24105831.58844  24105832.62548
 -20469557.14849 -15950293.98447         0.00041  20650710.10147  20650710.56249
  -4345664.04348  -3386223.32345         0.00041  23523302.66945  23523303.09448
 97 03 25 05 40 00.0000000  0  8 01 03 06 17 21 22 23 26
   -220135.12648   -171533.42444         0.00041  24137237.33744  24137239.34248
 -12978368.25848 -10113011.61346         0.00041  22705151.06846  22705151.58448
   9311268.64848   7255532.38545         0.00041  23215647.04845  23215646.83448
 -14793729.94449 -11527572.91846         0.00041  20769312.78346  20769313.29049
 -18353141.18249 -14301144.37446         0.00041  21695688.43246  21695689.01849
  -4177409.14848  -3255122.23044         0.00041  24116928.11044  24116928.64848
 -20458690.58749 -15941826.52847         0.00041  20652777.70747  20652778.28549
  -4265976.55948  -3324129.18045         0.00041  23538466.58345  23538466.68548
 97 03 25 05 40 30.0000000  0  8 01 03 06 17 21 22 23 26
   -330166.35648   -257272.09044         0.00041  24116302.41644  24116300.72748
 -13062513.87848 -10178579.62846         0.00041  22689138.28146  22689139.71248
   9418544.98448   7339124.30445         0.00041  23236061.05145  23236060.72948
 -14775613.35049 -11513456.09546         0.00041  20772759.97146  20772760.43549
 -18402078.63849 -14339277.44746         0.00041  21686375.67846  21686376.09049
  -4118873.72848  -3209510.21844         0.00041  24128065.76344  24128067.80548
 -20447510.37349 -15933114.66847         0.00041  20654905.18647  20654905.89249
  -4185914.56848  -3261743.21345         0.00041  23553701.21345  23553702.11248
 97 03 25 05 41 00.0000000  0  8 01 03 06 17 21 22 23 26
   -440179.54148   -342996.62244         0.00041  24095365.43644  24095366.06948
 -13146351.41348 -10243907.57346         0.00041  22673185.46646  22673185.81348
   9526006.63648   7422860.64545         0.00041  23256509.10845  23256510.08648
 -14757239.99349 -11499139.19746         0.00041  20776256.36146  20776256.66849
 -18450787.66649 -14377232.52346         0.00041  21677106.58946  21677106.97549
  -4060123.53948  -3163730.87144         0.00041  24139246.80344  24139248.44848
 -20436035.91549 -15924173.53347         0.00041  20657088.66847  20657089.39549
  -4105498.25448  -3199081.14745         0.00041  23569004.90045  23569004.87748
 97 03 25 05 41 30.0000000  0  8 01 03 06 17 21 22 23 26
   -550142.13348   -428681.75244         0.00041  24074439.92444  24074440.78948
 -13229865.72448 -10308983.65546         0.00041  22657293.47646  22657293.71448
   9633681.87948   7506763.39645         0.00041  23276999.47845  23276999.87148
 -14738595.34849 -11484610.90546         0.00041  20779804.53646  20779804.71049
 -18499233.46449 -14414982.48146         0.00041  21667887.44946  21667887.75349
  -4001158.49048  -3117784.10744         0.00041  24150468.26344  24150467.83848
 -20424256.78349 -15914994.98647         0.00041  20659330.23347  20659330.97349
  -4024707.29048  -3136127.15645         0.00041  23584378.82245  23584378.83948
 97 03 25 05 42 00.0000000  0  8 01 03 06 17 21 22 23 26
   -660042.59848   -514318.47844         0.00041  24053527.19044  24053527.63948
 -13313041.55648 -10373795.99846         0.00041  22641465.37046  22641465.59548
   9741581.49248   7590840.98945         0.00041  23297532.87145  23297532.64448
 -14719689.33949 -11469878.95646         0.00041  20783402.14346  20783402.60849
 -18547389.07349 -14452506.31746         0.00041  21658724.14546  21658724.26649
  -3941984.30948  -3071674.35144         0.00041  24161729.07644  24161728.66148
 -20412166.07149 -15905573.65247         0.00041  20661631.05547  20661631.80649
  -3943533.11748  -3072874.51945         0.00041  23599824.05045  23599825.72148
 97 03 25 05 42 30.0000000  0  8 01 03 06 17 21 22 23 26
   -769868.62448   -599897.20344         0.00041  24032628.37044  24032628.52048
 -13395875.80648 -10438342.15746         0.00041  22625702.26446  22625702.89148
   9849697.85648   7675087.50245         0.00041  23318105.76345  23318106.61448
 -14700521.41849 -11454942.92846         0.00041  20787049.72446  20787050.27249
 -18595251.82949 -14489801.96246         0.00041  21649616.31246  21649616.15649
  -3882603.69748  -3025403.76144         0.00041  24173028.01044  24173028.58548
 -20399763.31749 -15895909.16547         0.00041  20663991.12847  20663991.96849
  -3861981.19448  -3009327.56245         0.00041  23615343.83645  23615344.53948
 97 03 25 05 43 00.0000000  0  8 01 03 06 17 21 22 23 26
   -879611.09048   -685410.81544         0.00041  24011744.97844  24011745.41848
 -13478367.87248 -10502621.69746         0.00041  22610004.67546  22610004.87448
   9958029.00448   7759501.35845         0.00041  23338721.54745  23338721.14248
 -14681088.60249 -11439800.48246         0.00041  20790747.82046  20790748.23949
 -18642813.74449 -14526863.18746         0.00041  21640565.26246  21640565.54749
  -3823006.64248  -2978964.51544         0.00041  24184368.69244  24184369.63748
 -20387056.17749 -15886007.49447         0.00041  20666409.30947  20666409.98349
  -3780046.74448  -2945482.53644         0.00041  23630934.34844  23630935.77148
 97 03 25 05 43 30.0000000  0  8 01 03 06 17 21 22 23 26
   -989273.71648   -770862.18044         0.00041  23990876.95344  23990877.69348
 -13560520.00848 -10566636.34746         0.00041  22594371.09446  22594371.49648
  10066564.40948   7844074.39345         0.00041  23359375.23745  23359374.84848
 -14661396.95949 -11424456.34146         0.00041  20794494.96746  20794495.18849
 -18690078.86049 -14563693.13646         0.00041  21631571.46446  21631571.20549
  -3763193.26948  -2932356.69144         0.00041  24195751.50044  24195752.06948
 -20374041.39649 -15875866.10347         0.00041  20668886.01747  20668886.47649
  -3697727.37748  -2881337.56944         0.00041  23646599.33144  23646600.81048
 97 03 25 05 44 00.0000000  0  8 01 03 06 17 21 22 23 26
  -1098857.31348   -856251.98344         0.00041  23970024.96544  23970024.93548
 -13642322.28348 -10630378.37246         0.00041  22578805.76746  22578805.68548
  10175288.41648   7928794.39745         0.00041  23380064.61145  23380064.98848
 -14641446.14749 -11408910.25546         0.00041  20798291.69646  20798291.67949
 -18737055.81849 -14600298.54646         0.00041  21622632.02146  21622631.98249
  -3703143.79748  -2885564.93044         0.00041  24207178.30344  24207178.54948
 -20360721.16749 -15865486.69847         0.00041  20671420.66247  20671421.15149
  -3615025.85148  -2816894.81944         0.00041  23662336.00444  23662338.71448
 97 03 25 05 44 30.0000000  0  8 01 03 06 17 21 22 23 26
  -1208375.80148   -941591.04845         0.00041  23949184.91945  23949184.24048
 -13723783.98948 -10693855.02846         0.00041  22563304.27846  22563303.99648
  10284180.75248   8013645.55745         0.00041  23400786.99745  23400786.53248
 -14621241.57549 -11393166.44546         0.00041  20802136.15246  20802136.44249
 -18783760.98649 -14636692.17146         0.00041  21613744.02846  21613744.21049
  -3642863.21148  -2838593.06844         0.00041  24218648.87744  24218649.24748
 -20347122.18349 -15854890.08347         0.00041  20674008.55047  20674009.01449
  -3531942.35648  -2752154.43545         0.00041  23678147.50645  23678149.56248
 97 03 25 05 45 00.0000000  0  8 01 03 06 17 21 22 23 26
  -1317839.31448  -1026887.29745         0.00041  23928352.72345  23928353.66448
 -13804884.77648 -10757050.44046         0.00041  22547870.51346  22547870.95848
  10393256.51048   8098639.67745         0.00041  23421543.76245  23421542.76648
 -14600787.37849 -11377228.11446         0.00041  20806028.58746  20806028.79249
 -18830196.35349 -14672875.56746         0.00041  21604907.81046  21604907.89249
  -3582350.68348  -2791440.45744         0.00041  24230164.23544  24230164.84648
 -20333247.18149 -15844078.39347         0.00041  20676648.97447  20676649.46849
  -3448471.15448  -2687111.94344         0.00041  23694031.35044  23694033.41648
 97 03 25 05 45 30.0000000  0  8 01 03 06 17 21 22 23 26
  -1427249.42748  -1112141.91945         0.00041  23907533.36045  23907533.17048
 -13885625.32548 -10819965.15446         0.00041  22532505.98946  22532506.47748
  10502512.39648   8183774.14845         0.00041  23442333.09645  23442333.17948
 -14580090.87149 -11361100.96446         0.00041  20809967.01946  20809967.07949
 -18876383.67949 -14708865.68846         0.00041  21596118.69146  21596118.84549
  -3521625.15348  -2744121.89044         0.00041  24241720.64944  24241720.50848
 -20319103.17449 -15833057.08147         0.00041  20679340.35947  20679341.01249
  -3364635.60948  -2621785.54144         0.00041  23709983.90744  23709986.59348
 97 03 25 05 46 00.0000000  0  8 01 03 06 17 21 22 23 26
  -1536592.87248  -1197344.59345         0.00041  23886726.34545  23886725.56248
 -13966004.33748 -10882598.15546         0.00041  22517210.33646  22517210.86848
  10611954.33448   8269053.57844         0.00041  23463160.36044  23463159.13048
 -14559142.98449 -11344777.93846         0.00041  20813953.44046  20813953.39649
 -18922327.39249 -14744665.97246         0.00041  21587375.80046  21587375.93949
  -3460695.94848  -2696644.59044         0.00041  24253314.35044  24253315.21748
 -20304689.90149 -15821825.95247         0.00041  20682083.06947  20682083.69249
  -3280445.54348  -2556182.87544         0.00041  23726004.91844  23726006.94248
 97 03 25 05 46 30.0000000  0  8 01 03 06 17 21 22 23 26
  -1645860.49648  -1282488.18345         0.00041  23865932.46345  23865932.83448
 -14046010.25148 -10944940.42146         0.00041  22501985.74446  22501986.62348
  10721597.38348   8354489.70444         0.00041  23484023.93344  23484023.46348
 -14537931.63449 -11328249.62046         0.00041  20817989.62546  20817989.80549
 -18968019.49249 -14780270.20146         0.00041  21578680.73246  21578681.25549
  -3399592.02648  -2649031.16044         0.00041  24264940.47644  24264942.60248
 -20289989.11149 -15810370.78947         0.00041  20684880.51847  20684881.12049
  -3195913.89648  -2490314.08044         0.00041  23742094.09244  23742093.03048
 97 03 25 05 47 00.0000000  0  8 01 03 06 17 21 22 23 26
  -1755045.63948  -1367567.49045         0.00041  23845154.94245  23845155.76448
 -14125638.15448 -11006988.13846         0.00041  22486833.33946  22486833.55448
  10831439.87948   8440081.24844         0.00041  23504926.94644  23504925.47148
 -14516442.18249 -11311504.60046         0.00041  20822078.69846  20822079.14249
 -19013456.70849 -14815675.81546         0.00041  21570034.23746  21570034.49749
  -3338322.61048  -2601288.76344         0.00041  24276601.11144  24276601.91948
 -20274992.39349 -15798685.03347         0.00041  20687734.36447  20687735.01449
  -3111061.18848  -2424195.09144         0.00041  23758239.38644  23758239.36048
 97 03 25 05 47 30.0000000  0  8 01 03 06 17 21 22 23 26
  -1864141.23648  -1452577.04845         0.00041  23824395.12045  23824395.54048
 -14204898.27348 -11068749.25546         0.00041  22471750.36646  22471750.96348
  10941453.37748   8525806.03444         0.00041  23525859.38744  23525860.27148
 -14494664.19949 -11294534.74646         0.00041  20826223.00446  20826223.44649
 -19058644.90149 -14850887.38046         0.00041  21561435.68146  21561435.70949
  -3276906.03148  -2553431.71544         0.00041  24288290.82944  24288289.21248
 -20259714.90549 -15786780.49247         0.00041  20690641.57647  20690642.26149
  -3025903.19148  -2357838.21844         0.00041  23774443.99744  23774444.47948
 97 03 25 05 48 00.0000000  0  8 01 03 06 17 21 22 23 26
  -1973161.22948  -1537527.69345         0.00041  23803649.63045  23803649.82848
 -14283774.77548 -11130211.46746         0.00041  22456740.42746  22456741.23448
  11051625.09148   8611654.09244         0.00041  23546825.16544  23546825.62848
 -14472591.03549 -11277334.88346         0.00041  20830423.15846  20830423.83649
 -19103567.75349 -14885892.18846         0.00041  21552886.43346  21552887.23849
  -3215351.40648  -2505467.07044         0.00041  24300002.37744  24300002.20548
 -20244157.94849 -15774658.18947         0.00041  20693601.95947  20693602.62249
  -2940427.12348  -2291233.48645         0.00041  23790708.63345  23790710.13548
 97 03 25 05 48 30.0000000  0  8 01 03 06 17 21 22 23 26
  -2082097.11548  -1622412.82945         0.00041  23782918.11045  23782919.83848
 -14362238.80448 -11191352.25646         0.00041  22441809.29246  22441810.10048
  11161951.44048   8697622.62444         0.00041  23567820.04344  23567820.29148
 -14450210.24049 -11259895.31146         0.00041  20834682.31246  20834682.92349
 -19148205.97049 -14920675.20546         0.00041  21544392.18446  21544392.44249
  -3153635.16648  -2457376.53444         0.00041  24311748.90344  24311746.17848
 -20228315.15849 -15762313.16247         0.00041  20696616.76447  20696617.52549
  -2854607.99648  -2224361.44045         0.00041  23807040.79745  23807041.84648
 97 03 25 05 49 00.0000000  0  8 01 03 06 17 21 22 23 26
  -2190947.96648  -1707231.65245         0.00041  23762206.14745  23762205.90848
 -14440306.28548 -11252184.05946         0.00041  22426952.86546  22426954.27548
  11272414.10348   8783697.43945         0.00041  23588838.92045  23588840.67848
 -14427526.85249 -11242219.95446         0.00041  20838998.54746  20838999.33149
 -19192576.05249 -14955249.28346         0.00041  21535948.73946  21535949.25749
  -3091736.63548  -2409143.92344         0.00041  24323524.81844  24323525.13348
 -20212195.38249 -15749752.30147         0.00041  20699684.30947  20699684.89949
  -2768432.60648  -2157211.77345         0.00041  23823437.93145  23823440.45548
 97 03 25 05 49 30.0000000  0  8 01 03 06 17 21 22 23 26
  -2299714.92448  -1791985.09945         0.00041  23741509.37745  23741508.10248
 -14517988.40348 -11312715.57146         0.00041  22412171.14646  22412171.68048
  11383006.63448   8869873.45345         0.00041  23609885.30645  23609886.06048
 -14404560.04049 -11224323.74546         0.00041  20843369.26246  20843370.01549
 -19236673.88049 -14989611.21146         0.00041  21527557.44446  21527557.77249
  -3029644.13948  -2360760.16944         0.00041  24335341.53244  24335341.01648
 -20195791.03749 -15736969.70047         0.00041  20702805.99947  20702806.58249
  -2681893.62948  -2089778.79545         0.00041  23839905.35145  23839908.26848
 97 03 25 05 50 00.0000000  0  8 01 03 06 17 21 22 23 26
  -2408393.75548  -1876669.87445         0.00041  23720827.29745  23720826.94348
 -14595273.99048 -11372938.09846         0.00041  22397464.42446  22397465.17848
  11493744.55648   8956162.73445         0.00041  23630959.06145  23630959.11048
 -14381324.96149 -11206218.50346         0.00041  20847790.88446  20847791.53349
 -19280478.99649 -15023745.05746         0.00041  21519221.86646  21519221.99549
  -2967342.71348  -2312213.59244         0.00041  24347196.09944  24347196.84348
 -20179078.21449 -15723946.72647         0.00041  20705986.16947  20705986.60149
  -2594981.27748  -2022054.88545         0.00041  23856443.41745  23856447.21248
 97 03 25 05 50 30.0000000  0  8 01 03 06 17 21 22 23 26
  -2516964.07448  -1961270.13444         0.00041  23700165.95944  23700166.37048
 -14672178.50248 -11432863.67946         0.00041  22382829.19346  22382830.16348
  11604634.52248   9042570.50145         0.00041  23652058.34845  23652060.76848
 -14357829.91649 -11187910.68346         0.00041  20852261.91546  20852262.60249
 -19323991.12349 -15057650.59846         0.00041  21510941.43346  21510941.60849
  -2904812.78048  -2263489.00844         0.00041  24359097.39644  24359096.30048
 -20162048.44849 -15710676.78347         0.00041  20709226.82947  20709227.20649
  -2507706.37448  -1954048.47644         0.00041  23873053.71744  23873054.84048
 97 03 25 05 51 00.0000000  0  8 01 03 06 17 21 22 23 26
  -2625446.75648  -2045802.10544         0.00041  23679521.07944  23679522.75948
 -14748732.44848 -11492516.10146         0.00041  22368261.44546  22368262.96448
  11715667.28248   9129089.54145         0.00041  23673189.78345  23673189.31448
 -14334100.56449 -11169420.28146         0.00041  20856777.59346  20856778.04049
 -19367226.23449 -15091340.28446         0.00041  21502714.20646  21502714.50849
  -2842081.48048  -2214607.46744         0.00041  24371032.38744  24371033.17448
 -20144717.21049 -15697171.92347         0.00041  20712525.03747  20712525.63849
  -2420102.04148  -1885785.36244         0.00041  23889723.52744  23889725.84648
 97 03 25 05 51 30.0000000  0  8 01 03 06 17 21 22 23 26
  -2733833.38148  -2130259.21644         0.00041  23658897.89144  23658898.03948
 -14824892.62148 -11551861.68646         0.00041  22353768.65546  22353769.73148
  11826864.25148   9215736.51945         0.00041  23694348.43145  23694349.03648
 -14310130.42949 -11150742.26946         0.00041  20861338.81046  20861339.32749
 -19410147.64749 -15124785.53046         0.00041  21494546.78846  21494546.85549
  -2779153.74048  -2165572.88644         0.00041  24383006.44444  24383007.71748
 -20127074.98949 -15683424.73147         0.00041  20715882.17747  20715882.91849
  -2332162.00648  -1817260.65444         0.00041  23906458.31144  23906460.46648
 97 03 25 05 52 00.0000000  0  8 01 03 06 17 21 22 23 26
  -2842118.80048  -2214637.46844         0.00041  23638291.90944  23638292.10248
 -14900640.65148 -11610886.11646         0.00041  22339354.34846  22339355.41748
  11938232.58248   9302517.01444         0.00041  23715541.64044  23715541.82048
 -14285910.39549 -11131869.52346         0.00041  20865947.70146  20865948.25349
 -19452769.68949 -15157997.50246         0.00041  21486435.59446  21486435.98149
  -2716046.77048  -2116398.61644         0.00041  24395015.35644  24395016.25548
 -20109134.81949 -15669445.36947         0.00041  20719296.00647  20719296.54549
  -2243889.98948  -1748477.24945         0.00041  23923255.23145  23923257.70148
 97 03 25 05 52 30.0000000  0  8 01 03 06 17 21 22 23 26
  -2950326.77248  -2298955.33544         0.00041  23617701.03944  23617700.71848
 -14976005.23448 -11669611.76146         0.00041  22325013.02946  22325014.13848
  12049745.42548   9389410.11844         0.00041  23736761.20144  23736762.29148
 -14261447.52649 -11112807.55746         0.00041  20870602.86346  20870603.27249
 -19495134.75249 -15191009.22846         0.00041  21478373.93046  21478374.15549
  -2652792.78548  -2067109.81044         0.00041  24407051.20144  24407052.70748
 -20090944.40249 -15655271.01547         0.00041  20722757.52347  20722758.06149
  -2155310.85248  -1679454.55444         0.00041  23940113.86944  23940114.00848
 97 03 25 05 53 00.0000000  0  8 01 03 06 17 21 22 23 26
  -3058453.01448  -2383209.54545         0.00041  23597125.95245  23597125.36148
 -15050950.39548 -11728010.58946         0.00041  22310751.54846  22310752.71748
  12161416.91248   9476426.81345         0.00041  23758011.92145  23758012.98648
 -14236721.64649 -11093540.63746         0.00041  20875308.22046  20875308.61449
 -19537238.45049 -15223817.28846         0.00041  21470361.89746  21470361.98249
  -2589403.24748  -2017715.37344         0.00041  24419113.38444  24419115.48748
 -20072506.35749 -15640903.70547         0.00041  20726266.20147  20726266.82549
  -2066409.63848  -1610180.89644         0.00041  23957030.44744  23957030.86948
 97 03 25 05 53 30.0000000  0  8 01 03 06 17 21 22 23 26
  -3166479.74348  -2467386.19745         0.00041  23576569.83045  23576568.11348
 -15125457.58948 -11786068.13946         0.00041  22296573.39346  22296574.26048
  12273250.27848   9563569.66845         0.00041  23779293.85645  23779294.31648
 -14211714.62149 -11074054.65146         0.00041  20880066.55946  20880066.88749
 -19579083.98949 -15256424.18146         0.00041  21462399.15246  21462399.16449
  -2525873.87248  -1968211.95744         0.00041  24431204.18744  24431204.53248
 -20053816.64049 -15626340.28647         0.00041  20729822.77647  20729823.25249
  -1977185.94748  -1540655.93044         0.00041  23974009.21544  23974009.78548
 97 03 25 05 54 00.0000000  0  8 01 03 06 17 21 22 23 26
  -3274388.17848  -2551470.64844         0.00041  23556033.99444  23556034.06548
 -15199539.49848 -11843794.29946         0.00041  22282476.37546  22282476.57448
  12385254.78448   9650845.91344         0.00041  23800606.35444  23800608.02448
 -14186398.78849 -11054328.04246         0.00041  20884884.00046  20884884.41149
 -19620674.92449 -15288832.69046         0.00041  21454484.31346  21454484.75749
  -2462193.82748  -1918591.15244         0.00041  24443321.48144  24443322.15948
 -20034862.54649 -15611570.86047         0.00041  20733429.57147  20733430.14349
  -1887631.37848  -1470873.14444         0.00041  23991051.03844  23991051.02948
 97 03 25 05 54 30.0000000  0  8 01 03 06 17 21 22 23 26
  -3382186.57848  -2635469.39045         0.00041  23535521.33945  23535520.79948
 -15273215.17948 -11901203.91746         0.00041  22268455.79846  22268456.79848
  12497407.14848   9738237.39144         0.00041  23821948.58444  23821949.35148
 -14160783.85149 -11034368.36146         0.00041  20889758.38146  20889758.94349
 -19662017.72449 -15321047.84746         0.00041  21446617.21946  21446617.60249
  -2398382.28248  -1868867.89344         0.00041  24455466.52844  24455466.08948
 -20015650.08549 -15596600.10747         0.00041  20737085.66347  20737086.27649
  -1797764.41948  -1400846.94944         0.00041  24008151.21144  24008153.26348
